Wetterdaten: Sonntag, 28.08.2016
Datum Zeit Temp. A. Temp. A. max Feuchte A. Luftdruck Regen Wind Richtung Richtung Sonnenschein ET UV Solar Taupunkt Windben
28.08.2016 00:00 18,4 C 18,4 C 91 % 1015,6 hPa 0,0 mm 0,8 km/h (0 Bft) S-SO 163 0 min 0,000 mm 0,0 UV-I 0 W/m 16,9 C 1,6 km/h (1 Bft)
28.08.2016 00:01 18,4 C 18,4 C 91 % 1015,6 hPa 0,0 mm 0,2 km/h (0 Bft) S-SO 163 0 min 0,000 mm 0,0 UV-I 0 W/m 16,9 C 1,6 km/h (1 Bft)
28.08.2016 00:04 18,6 C 18,6 C 91 % 1015,6 hPa 0,0 mm 0,1 km/h (0 Bft) S-SO 163 0 min 0,000 mm 0,0 UV-I 0 W/m 17,1 C 1,6 km/h (1 Bft)
28.08.2016 00:05 18,6 C 18,6 C 90 % 1015,5 hPa 0,0 mm 0,0 km/h (0 Bft) S-SO 163 0 min 0,000 mm 0,0 UV-I 0 W/m 16,9 C 0,0 km/h (0 Bft)
28.08.2016 00:06 18,6 C 18,6 C 91 % 1015,5 hPa 0,0 mm 0,0 km/h (0 Bft) S-SO 163 0 min 0,000 mm 0,0 UV-I 0 W/m 17,1 C 0,0 km/h (0 Bft)
28.08.2016 00:07 18,6 C 18,6 C 91 % 1015,5 hPa 0,0 mm 0,0 km/h (0 Bft) S-SO 163 0 min 0,000 mm 0,0 UV-I 0 W/m 17,1 C 0,0 km/h (0 Bft)
28.08.2016 00:08 18,6 C 18,6 C 91 % 1015,5 hPa 0,0 mm 0,0 km/h (0 Bft) S-SO 163 0 min 0,000 mm 0,0 UV-I 0 W/m 17,1 C 0,0 km/h (0 Bft)
28.08.2016 00:09 18,5 C 18,6 C 90 % 1015,5 hPa 0,0 mm 0,0 km/h (0 Bft) S-SO 163 0 min 0,000 mm 0,0 UV-I 0 W/m 16,8 C 0,0 km/h (0 Bft)
28.08.2016 00:10 18,5 C 18,5 C 90 % 1015,5 hPa 0,0 mm 0,0 km/h (0 Bft) S-SO 163 0 min 0,000 mm 0,0 UV-I 0 W/m 16,8 C 0,0 km/h (0 Bft)
28.08.2016 00:11 18,4 C 18,5 C 90 % 1015,5 hPa 0,0 mm 0,0 km/h (0 Bft) S-SO 163 0 min 0,000 mm 0,0 UV-I 0 W/m 16,7 C 0,0 km/h (0 Bft)
28.08.2016 00:12 18,3 C 18,4 C 91 % 1015,5 hPa 0,0 mm 0,0 km/h (0 Bft) S-SO 163 0 min 0,000 mm 0,0 UV-I 0 W/m 16,8 C 0,0 km/h (0 Bft)
28.08.2016 00:13 18,3 C 18,3 C 91 % 1015,5 hPa 0,0 mm 0,0 km/h (0 Bft) S-SO 163 0 min 0,000 mm 0,0 UV-I 0 W/m 16,8 C 0,0 km/h (0 Bft)
28.08.2016 00:14 18,3 C 18,3 C 91 % 1015,5 hPa 0,0 mm 0,0 km/h (0 Bft) S-SO 163 0 min 0,000 mm 0,0 UV-I 0 W/m 16,8 C 0,0 km/h (0 Bft)
28.08.2016 00:15 18,3 C 18,3 C 92 % 1015,5 hPa 0,0 mm 0,0 km/h (0 Bft) S-SO 163 0 min 0,000 mm 0,0 UV-I 0 W/m 17,0 C 0,0 km/h (0 Bft)
28.08.2016 00:16 18,3 C 18,3 C 92 % 1015,4 hPa 0,0 mm 0,0 km/h (0 Bft) S-SO 163 0 min 0,000 mm 0,0 UV-I 0 W/m 17,0 C 0,0 km/h (0 Bft)
28.08.2016 00:17 18,3 C 18,3 C 91 % 1015,4 hPa 0,0 mm 0,0 km/h (0 Bft) S-SO 163 0 min 0,000 mm 0,0 UV-I 0 W/m 16,8 C 0,0 km/h (0 Bft)
28.08.2016 00:18 18,3 C 18,3 C 92 % 1015,5 hPa 0,0 mm 0,0 km/h (0 Bft) S-SO 163 0 min 0,000 mm 0,0 UV-I 0 W/m 17,0 C 0,0 km/h (0 Bft)
28.08.2016 00:19 18,3 C 18,3 C 92 % 1015,5 hPa 0,0 mm 0,0 km/h (0 Bft) S-SO 163 0 min 0,000 mm 0,0 UV-I 0 W/m 17,0 C 0,0 km/h (0 Bft)
28.08.2016 00:20 18,3 C 18,3 C 92 % 1015,5 hPa 0,0 mm 0,0 km/h (0 Bft) S-SO 163 0 min 0,000 mm 0,0 UV-I 0 W/m 17,0 C 0,0 km/h (0 Bft)
28.08.2016 00:21 18,3 C 18,3 C 92 % 1015,5 hPa 0,0 mm 0,0 km/h (0 Bft) S-SO 163 0 min 0,000 mm 0,0 UV-I 0 W/m 17,0 C 0,0 km/h (0 Bft)
28.08.2016 00:22 18,3 C 18,3 C 92 % 1015,5 hPa 0,0 mm 0,0 km/h (0 Bft) S-SO 163 0 min 0,000 mm 0,0 UV-I 0 W/m 17,0 C 0,0 km/h (0 Bft)
28.08.2016 00:23 18,3 C 18,3 C 92 % 1015,5 hPa 0,0 mm 0,0 km/h (0 Bft) S-SO 163 0 min 0,000 mm 0,0 UV-I 0 W/m 17,0 C 0,0 km/h (0 Bft)
28.08.2016 00:24 18,2 C 18,3 C 92 % 1015,5 hPa 0,0 mm 0,0 km/h (0 Bft) S-SO 163 0 min 0,000 mm 0,0 UV-I 0 W/m 16,9 C 0,0 km/h (0 Bft)
28.08.2016 00:25 18,2 C 18,2 C 91 % 1015,5 hPa 0,0 mm 0,0 km/h (0 Bft) S-SO 163 0 min 0,000 mm 0,0 UV-I 0 W/m 16,7 C 0,0 km/h (0 Bft)
28.08.2016 00:26 18,2 C 18,3 C 91 % 1015,5 hPa 0,0 mm 0,9 km/h (0 Bft) S-SO 163 0 min 0,000 mm 0,0 UV-I 0 W/m 16,7 C 3,2 km/h (1 Bft)
28.08.2016 00:27 18,2 C 18,2 C 91 % 1015,5 hPa 0,0 mm 1,8 km/h (1 Bft) S-SO 163 0 min 0,000 mm 0,0 UV-I 0 W/m 16,7 C 3,2 km/h (1 Bft)
28.08.2016 00:28 18,2 C 18,2 C 91 % 1015,5 hPa 0,0 mm 0,0 km/h (0 Bft) S-SO 163 0 min 0,000 mm 0,0 UV-I 0 W/m 16,7 C 0,0 km/h (0 Bft)
28.08.2016 00:29 18,1 C 18,2 C 91 % 1015,4 hPa 0,0 mm 0,0 km/h (0 Bft) S-SO 163 0 min 0,000 mm 0,0 UV-I 0 W/m 16,6 C 0,0 km/h (0 Bft)
28.08.2016 00:30 18,1 C 18,1 C 92 % 1015,4 hPa 0,0 mm 0,0 km/h (0 Bft) S-SO 163 0 min 0,000 mm 0,0 UV-I 0 W/m 16,8 C 0,0 km/h (0 Bft)
28.08.2016 00:31 18,1 C 18,1 C 92 % 1015,4 hPa 0,0 mm 0,0 km/h (0 Bft) S-SO 163 0 min 0,000 mm 0,0 UV-I 0 W/m 16,8 C 0,0 km/h (0 Bft)
28.08.2016 00:32 18,2 C 18,2 C 92 % 1015,4 hPa 0,0 mm 0,0 km/h (0 Bft) S-SO 163 0 min 0,000 mm 0,0 UV-I 0 W/m 16,9 C 0,0 km/h (0 Bft)
28.08.2016 00:33 18,2 C 18,2 C 92 % 1015,4 hPa 0,0 mm 0,0 km/h (0 Bft) S-SO 163 0 min 0,000 mm 0,0 UV-I 0 W/m 16,9 C 0,0 km/h (0 Bft)
28.08.2016 00:34 18,3 C 18,3 C 92 % 1015,4 hPa 0,0 mm 0,0 km/h (0 Bft) S-SO 163 0 min 0,000 mm 0,0 UV-I 0 W/m 17,0 C 0,0 km/h (0 Bft)
28.08.2016 00:35 18,3 C 18,3 C 92 % 1015,4 hPa 0,0 mm 0,0 km/h (0 Bft) S-SO 163 0 min 0,000 mm 0,0 UV-I 0 W/m 17,0 C 0,0 km/h (0 Bft)
28.08.2016 00:36 18,4 C 18,4 C 92 % 1015,3 hPa 0,0 mm 0,0 km/h (0 Bft) S-SO 163 0 min 0,000 mm 0,0 UV-I 0 W/m 17,1 C 0,0 km/h (0 Bft)
28.08.2016 00:37 18,3 C 18,4 C 91 % 1015,4 hPa 0,0 mm 0,0 km/h (0 Bft) S-SO 163 0 min 0,000 mm 0,0 UV-I 0 W/m 16,8 C 0,0 km/h (0 Bft)
28.08.2016 00:38 18,3 C 18,4 C 90 % 1015,4 hPa 0,0 mm 0,0 km/h (0 Bft) S-SO 163 0 min 0,000 mm 0,0 UV-I 0 W/m 16,6 C 0,0 km/h (0 Bft)
28.08.2016 00:39 18,2 C 18,3 C 90 % 1015,3 hPa 0,0 mm 0,0 km/h (0 Bft) S-SO 163 0 min 0,000 mm 0,0 UV-I 0 W/m 16,5 C 0,0 km/h (0 Bft)
28.08.2016 00:40 18,1 C 18,2 C 91 % 1015,4 hPa 0,0 mm 0,0 km/h (0 Bft) S-SO 163 0 min 0,000 mm 0,0 UV-I 0 W/m 16,6 C 0,0 km/h (0 Bft)
28.08.2016 00:41 18,1 C 18,2 C 91 % 1015,4 hPa 0,0 mm 0,0 km/h (0 Bft) S-SO 163 0 min 0,000 mm 0,0 UV-I 0 W/m 16,6 C 0,0 km/h (0 Bft)
28.08.2016 00:42 18,0 C 18,1 C 91 % 1015,4 hPa 0,0 mm 0,0 km/h (0 Bft) S-SO 163 0 min 0,000 mm 0,0 UV-I 0 W/m 16,5 C 0,0 km/h (0 Bft)
28.08.2016 00:43 18,0 C 18,0 C 91 % 1015,5 hPa 0,0 mm 0,0 km/h (0 Bft) S-SO 163 0 min 0,000 mm 0,0 UV-I 0 W/m 16,5 C 0,0 km/h (0 Bft)
28.08.2016 00:44 17,9 C 18,0 C 92 % 1015,5 hPa 0,0 mm 0,0 km/h (0 Bft) S-SO 163 0 min 0,000 mm 0,0 UV-I 0 W/m 16,6 C 0,0 km/h (0 Bft)
28.08.2016 00:45 17,9 C 17,9 C 92 % 1015,4 hPa 0,0 mm 0,0 km/h (0 Bft) S-SO 163 0 min 0,000 mm 0,0 UV-I 0 W/m 16,6 C 0,0 km/h (0 Bft)
28.08.2016 00:46 17,9 C 17,9 C 92 % 1015,4 hPa 0,0 mm 0,0 km/h (0 Bft) S-SO 163 0 min 0,000 mm 0,0 UV-I 0 W/m 16,6 C 0,0 km/h (0 Bft)
28.08.2016 00:47 18,0 C 18,0 C 92 % 1015,4 hPa 0,0 mm 0,0 km/h (0 Bft) S-SO 163 0 min 0,000 mm 0,0 UV-I 0 W/m 16,7 C 0,0 km/h (0 Bft)
28.08.2016 00:48 17,9 C 18,0 C 92 % 1015,4 hPa 0,0 mm 0,0 km/h (0 Bft) S-SO 163 0 min 0,000 mm 0,0 UV-I 0 W/m 16,6 C 0,0 km/h (0 Bft)
28.08.2016 00:49 17,9 C 17,9 C 92 % 1015,4 hPa 0,0 mm 0,0 km/h (0 Bft) S-SO 163 0 min 0,000 mm 0,0 UV-I 0 W/m 16,6 C 0,0 km/h (0 Bft)
28.08.2016 00:50 17,9 C 17,9 C 92 % 1015,5 hPa 0,0 mm 0,0 km/h (0 Bft) S-SO 163 0 min 0,000 mm 0,0 UV-I 0 W/m 16,6 C 0,0 km/h (0 Bft)
28.08.2016 00:51 17,9 C 17,9 C 92 % 1015,5 hPa 0,0 mm 0,0 km/h (0 Bft) S-SO 163 0 min 0,000 mm 0,0 UV-I 0 W/m 16,6 C 0,0 km/h (0 Bft)
28.08.2016 00:52 17,9 C 17,9 C 92 % 1015,5 hPa 0,0 mm 0,0 km/h (0 Bft) S-SO 163 0 min 0,000 mm 0,0 UV-I 0 W/m 16,6 C 0,0 km/h (0 Bft)
28.08.2016 00:53 17,9 C 17,9 C 91 % 1015,5 hPa 0,0 mm 0,0 km/h (0 Bft) S-SO 163 0 min 0,000 mm 0,0 UV-I 0 W/m 16,4 C 0,0 km/h (0 Bft)
28.08.2016 00:54 17,9 C 17,9 C 92 % 1015,5 hPa 0,0 mm 0,0 km/h (0 Bft) S-SO 163 0 min 0,000 mm 0,0 UV-I 0 W/m 16,6 C 0,0 km/h (0 Bft)
28.08.2016 00:55 17,8 C 17,9 C 92 % 1015,5 hPa 0,0 mm 0,0 km/h (0 Bft) S-SO 163 0 min 0,000 mm 0,0 UV-I 0 W/m 16,5 C 0,0 km/h (0 Bft)
28.08.2016 00:56 17,8 C 17,8 C 92 % 1015,5 hPa 0,0 mm 0,0 km/h (0 Bft) S-SO 163 0 min 0,000 mm 0,0 UV-I 0 W/m 16,5 C 0,0 km/h (0 Bft)
28.08.2016 00:57 17,8 C 17,8 C 92 % 1015,5 hPa 0,0 mm 0,0 km/h (0 Bft) S-SO 163 0 min 0,000 mm 0,0 UV-I 0 W/m 16,5 C 0,0 km/h (0 Bft)
28.08.2016 00:58 17,9 C 17,9 C 92 % 1015,5 hPa 0,0 mm 0,0 km/h (0 Bft) S-SO 163 0 min 0,000 mm 0,0 UV-I 0 W/m 16,6 C 0,0 km/h (0 Bft)
28.08.2016 00:59 17,9 C 17,9 C 92 % 1015,5 hPa 0,0 mm 0,0 km/h (0 Bft) S-SO 163 0 min 0,000 mm 0,0 UV-I 0 W/m 16,6 C 0,0 km/h (0 Bft)
28.08.2016 01:00 18,0 C 18,0 C 92 % 1015,5 hPa 0,0 mm 0,0 km/h (0 Bft) S-SO 163 0 min 0,000 mm 0,0 UV-I 0 W/m 16,7 C 0,0 km/h (0 Bft)
28.08.2016 01:01 17,9 C 18,0 C 92 % 1015,6 hPa 0,0 mm 0,0 km/h (0 Bft) S-SO 163 0 min 0,000 mm 0,0 UV-I 0 W/m 16,6 C 0,0 km/h (0 Bft)
28.08.2016 01:02 17,9 C 18,0 C 91 % 1015,6 hPa 0,0 mm 0,0 km/h (0 Bft) S-SO 163 0 min 0,000 mm 0,0 UV-I 0 W/m 16,4 C 0,0 km/h (0 Bft)
28.08.2016 01:03 17,9 C 17,9 C 91 % 1015,6 hPa 0,0 mm 0,0 km/h (0 Bft) S-SO 163 0 min 0,000 mm 0,0 UV-I 0 W/m 16,4 C 0,0 km/h (0 Bft)
28.08.2016 01:04 17,9 C 17,9 C 91 % 1015,5 hPa 0,0 mm 0,0 km/h (0 Bft) S-SO 163 0 min 0,000 mm 0,0 UV-I 0 W/m 16,4 C 0,0 km/h (0 Bft)
28.08.2016 01:05 17,9 C 17,9 C 92 % 1015,5 hPa 0,0 mm 0,0 km/h (0 Bft) S-SO 163 0 min 0,000 mm 0,0 UV-I 0 W/m 16,6 C 0,0 km/h (0 Bft)
28.08.2016 01:06 17,8 C 17,9 C 91 % 1015,5 hPa 0,0 mm 0,0 km/h (0 Bft) S-SO 163 0 min 0,000 mm 0,0 UV-I 0 W/m 16,3 C 0,0 km/h (0 Bft)
28.08.2016 01:07 17,8 C 17,8 C 92 % 1015,5 hPa 0,0 mm 0,0 km/h (0 Bft) S-SO 163 0 min 0,000 mm 0,0 UV-I 0 W/m 16,5 C 0,0 km/h (0 Bft)
28.08.2016 01:08 17,8 C 17,8 C 92 % 1015,4 hPa 0,0 mm 0,0 km/h (0 Bft) S-SO 163 0 min 0,000 mm 0,0 UV-I 0 W/m 16,5 C 0,0 km/h (0 Bft)
28.08.2016 01:09 17,8 C 17,8 C 93 % 1015,5 hPa 0,0 mm 0,0 km/h (0 Bft) S-SO 163 0 min 0,000 mm 0,0 UV-I 0 W/m 16,7 C 0,0 km/h (0 Bft)
28.08.2016 01:10 17,9 C 17,9 C 93 % 1015,4 hPa 0,0 mm 0,0 km/h (0 Bft) S-SO 163 0 min 0,000 mm 0,0 UV-I 0 W/m 16,8 C 0,0 km/h (0 Bft)
28.08.2016 01:11 17,9 C 17,9 C 93 % 1015,4 hPa 0,0 mm 0,0 km/h (0 Bft) S-SO 163 0 min 0,000 mm 0,0 UV-I 0 W/m 16,8 C 0,0 km/h (0 Bft)
28.08.2016 01:12 17,9 C 17,9 C 93 % 1015,4 hPa 0,0 mm 0,0 km/h (0 Bft) S-SO 163 0 min 0,000 mm 0,0 UV-I 0 W/m 16,8 C 0,0 km/h (0 Bft)
28.08.2016 01:13 17,9 C 17,9 C 93 % 1015,4 hPa 0,0 mm 0,0 km/h (0 Bft) S-SO 163 0 min 0,000 mm 0,0 UV-I 0 W/m 16,8 C 0,0 km/h (0 Bft)
28.08.2016 01:14 17,9 C 17,9 C 93 % 1015,4 hPa 0,0 mm 0,0 km/h (0 Bft) S-SO 163 0 min 0,000 mm 0,0 UV-I 0 W/m 16,8 C 0,0 km/h (0 Bft)
28.08.2016 01:15 17,9 C 17,9 C 93 % 1015,4 hPa 0,0 mm 0,0 km/h (0 Bft) S-SO 163 0 min 0,000 mm 0,0 UV-I 0 W/m 16,8 C 0,0 km/h (0 Bft)
28.08.2016 01:16 17,9 C 17,9 C 92 % 1015,4 hPa 0,0 mm 0,0 km/h (0 Bft) S-SO 163 0 min 0,000 mm 0,0 UV-I 0 W/m 16,6 C 0,0 km/h (0 Bft)
28.08.2016 01:17 18,1 C 18,1 C 93 % 1015,4 hPa 0,0 mm 0,0 km/h (0 Bft) S-SO 163 0 min 0,000 mm 0,0 UV-I 0 W/m 16,9 C 0,0 km/h (0 Bft)
28.08.2016 01:18 18,1 C 18,1 C 93 % 1015,4 hPa 0,0 mm 0,0 km/h (0 Bft) S-SO 163 0 min 0,000 mm 0,0 UV-I 0 W/m 16,9 C 0,0 km/h (0 Bft)
28.08.2016 01:19 18,2 C 18,2 C 93 % 1015,4 hPa 0,0 mm 0,0 km/h (0 Bft) S-SO 163 0 min 0,000 mm 0,0 UV-I 0 W/m 17,0 C 0,0 km/h (0 Bft)
28.08.2016 01:20 18,3 C 18,3 C 92 % 1015,4 hPa 0,0 mm 0,0 km/h (0 Bft) S-SO 163 0 min 0,000 mm 0,0 UV-I 0 W/m 17,0 C 0,0 km/h (0 Bft)
28.08.2016 01:21 18,3 C 18,3 C 92 % 1015,4 hPa 0,0 mm 0,0 km/h (0 Bft) S-SO 163 0 min 0,000 mm 0,0 UV-I 0 W/m 17,0 C 0,0 km/h (0 Bft)
28.08.2016 01:22 18,4 C 18,4 C 92 % 1015,4 hPa 0,0 mm 0,0 km/h (0 Bft) S-SO 163 0 min 0,000 mm 0,0 UV-I 0 W/m 17,1 C 0,0 km/h (0 Bft)
28.08.2016 01:23 18,4 C 18,4 C 92 % 1015,4 hPa 0,0 mm 0,0 km/h (0 Bft) S-SO 163 0 min 0,000 mm 0,0 UV-I 0 W/m 17,1 C 0,0 km/h (0 Bft)
28.08.2016 01:24 18,3 C 18,4 C 91 % 1015,4 hPa 0,0 mm 0,0 km/h (0 Bft) S-SO 163 0 min 0,000 mm 0,0 UV-I 0 W/m 16,8 C 0,0 km/h (0 Bft)
28.08.2016 01:25 18,3 C 18,3 C 91 % 1015,4 hPa 0,0 mm 0,0 km/h (0 Bft) S-SO 163 0 min 0,000 mm 0,0 UV-I 0 W/m 16,8 C 0,0 km/h (0 Bft)
28.08.2016 01:26 18,3 C 18,3 C 91 % 1015,4 hPa 0,0 mm 0,0 km/h (0 Bft) S-SO 163 0 min 0,000 mm 0,0 UV-I 0 W/m 16,8 C 0,0 km/h (0 Bft)
28.08.2016 01:27 18,2 C 18,3 C 90 % 1015,5 hPa 0,0 mm 0,0 km/h (0 Bft) S-SO 163 0 min 0,000 mm 0,0 UV-I 0 W/m 16,5 C 0,0 km/h (0 Bft)
28.08.2016 01:28 18,2 C 18,2 C 91 % 1015,5 hPa 0,0 mm 0,0 km/h (0 Bft) S-SO 163 0 min 0,000 mm 0,0 UV-I 0 W/m 16,7 C 0,0 km/h (0 Bft)
28.08.2016 01:29 18,2 C 18,2 C 92 % 1015,5 hPa 0,0 mm 0,0 km/h (0 Bft) S-SO 163 0 min 0,000 mm 0,0 UV-I 0 W/m 16,9 C 0,0 km/h (0 Bft)
28.08.2016 01:30 18,2 C 18,2 C 92 % 1015,5 hPa 0,0 mm 0,4 km/h (0 Bft) S 181 0 min 0,000 mm 0,0 UV-I 0 W/m 16,9 C 3,2 km/h (1 Bft)
28.08.2016 01:31 18,2 C 18,2 C 92 % 1015,5 hPa 0,0 mm 2,6 km/h (1 Bft) S 178 0 min 0,000 mm 0,0 UV-I 0 W/m 16,9 C 3,2 km/h (1 Bft)
28.08.2016 01:32 18,2 C 18,3 C 92 % 1015,5 hPa 0,0 mm 1,8 km/h (1 Bft) S 178 0 min 0,000 mm 0,0 UV-I 0 W/m 16,9 C 3,2 km/h (1 Bft)
28.08.2016 01:33 18,3 C 18,3 C 92 % 1015,5 hPa 0,0 mm 1,4 km/h (1 Bft) S 178 0 min 0,000 mm 0,0 UV-I 0 W/m 17,0 C 3,2 km/h (1 Bft)
28.08.2016 01:34 18,2 C 18,3 C 91 % 1015,5 hPa 0,0 mm 1,4 km/h (1 Bft) S 178 0 min 0,000 mm 0,0 UV-I 0 W/m 16,7 C 1,6 km/h (1 Bft)
28.08.2016 01:35 18,3 C 18,3 C 92 % 1015,4 hPa 0,0 mm 2,2 km/h (1 Bft) S 178 0 min 0,000 mm 0,0 UV-I 0 W/m 17,0 C 3,2 km/h (1 Bft)
28.08.2016 01:36 18,3 C 18,3 C 92 % 1015,5 hPa 0,0 mm 2,1 km/h (1 Bft) S 178 0 min 0,000 mm 0,0 UV-I 0 W/m 17,0 C 3,2 km/h (1 Bft)
28.08.2016 01:37 18,3 C 18,3 C 91 % 1015,5 hPa 0,0 mm 0,6 km/h (0 Bft) S 178 0 min 0,000 mm 0,0 UV-I 0 W/m 16,8 C 1,6 km/h (1 Bft)
28.08.2016 01:38 18,3 C 18,3 C 91 % 1015,5 hPa 0,0 mm 0,3 km/h (0 Bft) S 178 0 min 0,000 mm 0,0 UV-I 0 W/m 16,8 C 1,6 km/h (1 Bft)
28.08.2016 01:39 18,3 C 18,3 C 91 % 1015,5 hPa 0,0 mm 0,1 km/h (0 Bft) S 178 0 min 0,000 mm 0,0 UV-I 0 W/m 16,8 C 1,6 km/h (1 Bft)
28.08.2016 01:40 18,2 C 18,3 C 91 % 1015,5 hPa 0,0 mm 0,0 km/h (0 Bft) S 180 0 min 0,000 mm 0,0 UV-I 0 W/m 16,7 C 0,0 km/h (0 Bft)
28.08.2016 01:41 18,3 C 18,3 C 91 % 1015,5 hPa 0,0 mm 0,1 km/h (0 Bft) S 180 0 min 0,000 mm 0,0 UV-I 0 W/m 16,8 C 1,6 km/h (1 Bft)
28.08.2016 01:42 18,3 C 18,3 C 91 % 1015,6 hPa 0,0 mm 0,4 km/h (0 Bft) S 180 0 min 0,000 mm 0,0 UV-I 0 W/m 16,8 C 1,6 km/h (1 Bft)
28.08.2016 01:43 18,2 C 18,3 C 91 % 1015,5 hPa 0,0 mm 1,1 km/h (1 Bft) S 180 0 min 0,000 mm 0,0 UV-I 0 W/m 16,7 C 3,2 km/h (1 Bft)
28.08.2016 01:44 18,2 C 18,3 C 91 % 1015,5 hPa 0,0 mm 2,1 km/h (1 Bft) S 180 0 min 0,000 mm 0,0 UV-I 0 W/m 16,7 C 3,2 km/h (1 Bft)
28.08.2016 01:45 18,2 C 18,2 C 91 % 1015,5 hPa 0,0 mm 3,2 km/h (1 Bft) SO 132 0 min 0,000 mm 0,0 UV-I 0 W/m 16,7 C 4,8 km/h (1 Bft)
28.08.2016 01:46 18,2 C 18,2 C 91 % 1015,4 hPa 0,0 mm 4,1 km/h (1 Bft) O-SO 111 0 min 0,000 mm 0,0 UV-I 0 W/m 16,7 C 4,8 km/h (1 Bft)
28.08.2016 01:47 18,2 C 18,2 C 92 % 1015,4 hPa 0,0 mm 5,0 km/h (1 Bft) O 96 0 min 0,000 mm 0,0 UV-I 0 W/m 16,9 C 6,4 km/h (2 Bft)
28.08.2016 01:48 18,3 C 18,3 C 92 % 1015,4 hPa 0,0 mm 2,7 km/h (1 Bft) O 96 0 min 0,000 mm 0,0 UV-I 0 W/m 17,0 C 3,2 km/h (1 Bft)
28.08.2016 01:49 18,3 C 18,3 C 92 % 1015,4 hPa 0,0 mm 3,1 km/h (1 Bft) O 96 0 min 0,000 mm 0,0 UV-I 0 W/m 17,0 C 4,8 km/h (1 Bft)
28.08.2016 01:50 18,4 C 18,4 C 92 % 1015,4 hPa 0,0 mm 0,8 km/h (0 Bft) O 96 0 min 0,000 mm 0,0 UV-I 0 W/m 17,1 C 3,2 km/h (1 Bft)
28.08.2016 01:51 18,5 C 18,5 C 92 % 1015,4 hPa 0,0 mm 0,0 km/h (0 Bft) O 96 0 min 0,000 mm 0,0 UV-I 0 W/m 17,2 C 0,0 km/h (0 Bft)
28.08.2016 01:52 18,5 C 18,5 C 92 % 1015,4 hPa 0,0 mm 0,5 km/h (0 Bft) O 96 0 min 0,000 mm 0,0 UV-I 0 W/m 17,2 C 1,6 km/h (1 Bft)
28.08.2016 01:53 18,5 C 18,5 C 91 % 1015,4 hPa 0,0 mm 0,2 km/h (0 Bft) O 96 0 min 0,000 mm 0,0 UV-I 0 W/m 17,0 C 1,6 km/h (1 Bft)
28.08.2016 01:54 18,4 C 18,5 C 90 % 1015,4 hPa 0,0 mm 0,0 km/h (0 Bft) O 96 0 min 0,000 mm 0,0 UV-I 0 W/m 16,7 C 0,0 km/h (0 Bft)
28.08.2016 01:55 18,4 C 18,4 C 91 % 1015,3 hPa 0,0 mm 0,0 km/h (0 Bft) O 96 0 min 0,000 mm 0,0 UV-I 0 W/m 16,9 C 0,0 km/h (0 Bft)
28.08.2016 01:56 18,3 C 18,4 C 91 % 1015,3 hPa 0,0 mm 0,0 km/h (0 Bft) O 96 0 min 0,000 mm 0,0 UV-I 0 W/m 16,8 C 0,0 km/h (0 Bft)
28.08.2016 01:57 18,3 C 18,3 C 91 % 1015,4 hPa 0,0 mm 0,0 km/h (0 Bft) O 96 0 min 0,000 mm 0,0 UV-I 0 W/m 16,8 C 0,0 km/h (0 Bft)
28.08.2016 01:58 18,2 C 18,3 C 91 % 1015,4 hPa 0,0 mm 0,0 km/h (0 Bft) O 96 0 min 0,000 mm 0,0 UV-I 0 W/m 16,7 C 0,0 km/h (0 Bft)
28.08.2016 01:59 18,3 C 18,3 C 91 % 1015,4 hPa 0,0 mm 1,4 km/h (1 Bft) S 176 0 min 0,000 mm 0,0 UV-I 0 W/m 16,8 C 4,8 km/h (1 Bft)
28.08.2016 02:00 18,3 C 18,3 C 91 % 1015,4 hPa 0,0 mm 6,6 km/h (2 Bft) S 190 0 min 0,000 mm 0,0 UV-I 0 W/m 16,8 C 11,3 km/h (2 Bft)
28.08.2016 02:01 18,4 C 18,4 C 91 % 1015,4 hPa 0,0 mm 5,6 km/h (1 Bft) S 183 0 min 0,000 mm 0,0 UV-I 0 W/m 16,9 C 8,0 km/h (2 Bft)
28.08.2016 02:02 18,4 C 18,4 C 90 % 1015,4 hPa 0,0 mm 2,6 km/h (1 Bft) S 178 0 min 0,000 mm 0,0 UV-I 0 W/m 16,7 C 3,2 km/h (1 Bft)
28.08.2016 02:03 18,4 C 18,4 C 90 % 1015,4 hPa 0,0 mm 0,9 km/h (0 Bft) S 178 0 min 0,000 mm 0,0 UV-I 0 W/m 16,7 C 1,6 km/h (1 Bft)
28.08.2016 02:04 18,3 C 18,4 C 89 % 1015,3 hPa 0,0 mm 0,3 km/h (0 Bft) S 178 0 min 0,000 mm 0,0 UV-I 0 W/m 16,5 C 1,6 km/h (1 Bft)
28.08.2016 02:05 18,3 C 18,3 C 90 % 1015,4 hPa 0,0 mm 0,1 km/h (0 Bft) S 178 0 min 0,000 mm 0,0 UV-I 0 W/m 16,6 C 1,6 km/h (1 Bft)
28.08.2016 02:06 18,2 C 18,3 C 90 % 1015,4 hPa 0,0 mm 0,1 km/h (0 Bft) S 178 0 min 0,000 mm 0,0 UV-I 0 W/m 16,5 C 1,6 km/h (1 Bft)
28.08.2016 02:07 18,2 C 18,2 C 90 % 1015,4 hPa 0,0 mm 1,3 km/h (1 Bft) S 178 0 min 0,000 mm 0,0 UV-I 0 W/m 16,5 C 3,2 km/h (1 Bft)
28.08.2016 02:08 18,1 C 18,2 C 90 % 1015,4 hPa 0,0 mm 1,3 km/h (1 Bft) S 178 0 min 0,000 mm 0,0 UV-I 0 W/m 16,4 C 3,2 km/h (1 Bft)
28.08.2016 02:09 18,0 C 18,1 C 90 % 1015,4 hPa 0,0 mm 0,2 km/h (0 Bft) S 178 0 min 0,000 mm 0,0 UV-I 0 W/m 16,3 C 1,6 km/h (1 Bft)
28.08.2016 02:10 17,9 C 18,0 C 90 % 1015,4 hPa 0,0 mm 1,2 km/h (1 Bft) S 178 0 min 0,000 mm 0,0 UV-I 0 W/m 16,2 C 3,2 km/h (1 Bft)
28.08.2016 02:11 17,8 C 17,9 C 90 % 1015,4 hPa 0,0 mm 0,0 km/h (0 Bft) S 178 0 min 0,000 mm 0,0 UV-I 0 W/m 16,1 C 0,0 km/h (0 Bft)
28.08.2016 02:12 17,7 C 17,8 C 91 % 1015,4 hPa 0,0 mm 0,0 km/h (0 Bft) S 178 0 min 0,000 mm 0,0 UV-I 0 W/m 16,2 C 0,0 km/h (0 Bft)
28.08.2016 02:13 17,7 C 17,7 C 91 % 1015,4 hPa 0,0 mm 0,0 km/h (0 Bft) S 178 0 min 0,000 mm 0,0 UV-I 0 W/m 16,2 C 0,0 km/h (0 Bft)
28.08.2016 02:14 17,7 C 17,7 C 91 % 1015,4 hPa 0,0 mm 0,0 km/h (0 Bft) S 178 0 min 0,000 mm 0,0 UV-I 0 W/m 16,2 C 0,0 km/h (0 Bft)
28.08.2016 02:15 17,7 C 17,7 C 91 % 1015,4 hPa 0,0 mm 0,0 km/h (0 Bft) S 178 0 min 0,000 mm 0,0 UV-I 0 W/m 16,2 C 0,0 km/h (0 Bft)
28.08.2016 02:16 17,6 C 17,7 C 91 % 1015,4 hPa 0,0 mm 0,0 km/h (0 Bft) S 178 0 min 0,000 mm 0,0 UV-I 0 W/m 16,1 C 0,0 km/h (0 Bft)
28.08.2016 02:17 17,6 C 17,6 C 92 % 1015,4 hPa 0,0 mm 0,0 km/h (0 Bft) S 178 0 min 0,000 mm 0,0 UV-I 0 W/m 16,3 C 0,0 km/h (0 Bft)
28.08.2016 02:18 17,5 C 17,6 C 92 % 1015,3 hPa 0,0 mm 0,0 km/h (0 Bft) S 178 0 min 0,000 mm 0,0 UV-I 0 W/m 16,2 C 0,0 km/h (0 Bft)
28.08.2016 02:19 17,5 C 17,5 C 92 % 1015,3 hPa 0,0 mm 0,0 km/h (0 Bft) S 178 0 min 0,000 mm 0,0 UV-I 0 W/m 16,2 C 0,0 km/h (0 Bft)
28.08.2016 02:20 17,4 C 17,5 C 92 % 1015,3 hPa 0,0 mm 0,0 km/h (0 Bft) S 178 0 min 0,000 mm 0,0 UV-I 0 W/m 16,1 C 0,0 km/h (0 Bft)
28.08.2016 02:21 17,4 C 17,4 C 92 % 1015,3 hPa 0,0 mm 0,0 km/h (0 Bft) S 178 0 min 0,000 mm 0,0 UV-I 0 W/m 16,1 C 0,0 km/h (0 Bft)
28.08.2016 02:22 17,3 C 17,4 C 92 % 1015,3 hPa 0,0 mm 0,0 km/h (0 Bft) S 178 0 min 0,000 mm 0,0 UV-I 0 W/m 16,0 C 0,0 km/h (0 Bft)
28.08.2016 02:23 17,3 C 17,3 C 92 % 1015,3 hPa 0,0 mm 0,0 km/h (0 Bft) S 178 0 min 0,000 mm 0,0 UV-I 0 W/m 16,0 C 0,0 km/h (0 Bft)
28.08.2016 02:24 17,3 C 17,3 C 92 % 1015,3 hPa 0,0 mm 0,0 km/h (0 Bft) S 178 0 min 0,000 mm 0,0 UV-I 0 W/m 16,0 C 0,0 km/h (0 Bft)
28.08.2016 02:25 17,2 C 17,3 C 93 % 1015,3 hPa 0,0 mm 0,0 km/h (0 Bft) S 178 0 min 0,000 mm 0,0 UV-I 0 W/m 16,1 C 0,0 km/h (0 Bft)
28.08.2016 02:26 17,2 C 17,2 C 93 % 1015,4 hPa 0,0 mm 0,0 km/h (0 Bft) S 178 0 min 0,000 mm 0,0 UV-I 0 W/m 16,1 C 0,0 km/h (0 Bft)
28.08.2016 02:27 17,2 C 17,2 C 93 % 1015,3 hPa 0,0 mm 0,0 km/h (0 Bft) S 178 0 min 0,000 mm 0,0 UV-I 0 W/m 16,1 C 0,0 km/h (0 Bft)
28.08.2016 02:28 17,2 C 17,2 C 93 % 1015,4 hPa 0,0 mm 0,0 km/h (0 Bft) S 178 0 min 0,000 mm 0,0 UV-I 0 W/m 16,1 C 0,0 km/h (0 Bft)
28.08.2016 02:29 17,2 C 17,2 C 93 % 1015,4 hPa 0,0 mm 0,0 km/h (0 Bft) S 178 0 min 0,000 mm 0,0 UV-I 0 W/m 16,1 C 0,0 km/h (0 Bft)
28.08.2016 02:30 17,1 C 17,2 C 93 % 1015,4 hPa 0,0 mm 0,0 km/h (0 Bft) S 178 0 min 0,000 mm 0,0 UV-I 0 W/m 16,0 C 0,0 km/h (0 Bft)
28.08.2016 02:31 17,1 C 17,2 C 93 % 1015,3 hPa 0,0 mm 0,5 km/h (0 Bft) S 178 0 min 0,000 mm 0,0 UV-I 0 W/m 16,0 C 1,6 km/h (1 Bft)
28.08.2016 02:32 17,1 C 17,2 C 94 % 1015,3 hPa 0,0 mm 0,3 km/h (0 Bft) S 178 0 min 0,000 mm 0,0 UV-I 0 W/m 16,1 C 1,6 km/h (1 Bft)
28.08.2016 02:33 17,1 C 17,1 C 93 % 1015,3 hPa 0,0 mm 0,0 km/h (0 Bft) S 178 0 min 0,000 mm 0,0 UV-I 0 W/m 16,0 C 0,0 km/h (0 Bft)
28.08.2016 02:34 17,1 C 17,1 C 93 % 1015,3 hPa 0,0 mm 0,0 km/h (0 Bft) S 178 0 min 0,000 mm 0,0 UV-I 0 W/m 16,0 C 0,0 km/h (0 Bft)
28.08.2016 02:35 17,0 C 17,1 C 93 % 1015,3 hPa 0,0 mm 0,0 km/h (0 Bft) S 178 0 min 0,000 mm 0,0 UV-I 0 W/m 15,9 C 0,0 km/h (0 Bft)
28.08.2016 02:36 17,0 C 17,0 C 94 % 1015,4 hPa 0,0 mm 0,0 km/h (0 Bft) S 178 0 min 0,000 mm 0,0 UV-I 0 W/m 16,0 C 0,0 km/h (0 Bft)
28.08.2016 02:37 17,0 C 17,1 C 94 % 1015,4 hPa 0,0 mm 0,0 km/h (0 Bft) S 178 0 min 0,000 mm 0,0 UV-I 0 W/m 16,0 C 0,0 km/h (0 Bft)
28.08.2016 02:38 16,9 C 17,0 C 94 % 1015,3 hPa 0,0 mm 0,0 km/h (0 Bft) S 178 0 min 0,000 mm 0,0 UV-I 0 W/m 15,9 C 0,0 km/h (0 Bft)
28.08.2016 02:39 16,9 C 17,0 C 94 % 1015,4 hPa 0,0 mm 0,0 km/h (0 Bft) S 178 0 min 0,000 mm 0,0 UV-I 0 W/m 15,9 C 0,0 km/h (0 Bft)
28.08.2016 02:40 16,9 C 16,9 C 94 % 1015,3 hPa 0,0 mm 0,6 km/h (0 Bft) S 178 0 min 0,000 mm 0,0 UV-I 0 W/m 15,9 C 1,6 km/h (1 Bft)
28.08.2016 02:41 16,9 C 16,9 C 94 % 1015,3 hPa 0,0 mm 0,6 km/h (0 Bft) S 178 0 min 0,000 mm 0,0 UV-I 0 W/m 15,9 C 1,6 km/h (1 Bft)
28.08.2016 02:42 16,9 C 16,9 C 94 % 1015,3 hPa 0,0 mm 0,2 km/h (0 Bft) S 178 0 min 0,000 mm 0,0 UV-I 0 W/m 15,9 C 1,6 km/h (1 Bft)
28.08.2016 02:43 16,9 C 16,9 C 94 % 1015,4 hPa 0,0 mm 0,1 km/h (0 Bft) S 178 0 min 0,000 mm 0,0 UV-I 0 W/m 15,9 C 1,6 km/h (1 Bft)
28.08.2016 02:44 16,8 C 16,9 C 94 % 1015,4 hPa 0,0 mm 0,9 km/h (0 Bft) S 178 0 min 0,000 mm 0,0 UV-I 0 W/m 15,8 C 1,6 km/h (1 Bft)
28.08.2016 02:45 16,8 C 16,8 C 94 % 1015,4 hPa 0,0 mm 0,3 km/h (0 Bft) S 178 0 min 0,000 mm 0,0 UV-I 0 W/m 15,8 C 1,6 km/h (1 Bft)
28.08.2016 02:46 16,8 C 16,9 C 94 % 1015,4 hPa 0,0 mm 0,3 km/h (0 Bft) S 178 0 min 0,000 mm 0,0 UV-I 0 W/m 15,8 C 1,6 km/h (1 Bft)
28.08.2016 02:47 16,9 C 16,9 C 94 % 1015,4 hPa 0,0 mm 0,0 km/h (0 Bft) S 178 0 min 0,000 mm 0,0 UV-I 0 W/m 15,9 C 0,0 km/h (0 Bft)
28.08.2016 02:48 16,9 C 16,9 C 94 % 1015,4 hPa 0,0 mm 0,0 km/h (0 Bft) S 178 0 min 0,000 mm 0,0 UV-I 0 W/m 15,9 C 0,0 km/h (0 Bft)
28.08.2016 02:49 16,9 C 16,9 C 94 % 1015,3 hPa 0,0 mm 0,2 km/h (0 Bft) S 178 0 min 0,000 mm 0,0 UV-I 0 W/m 15,9 C 1,6 km/h (1 Bft)
28.08.2016 02:50 16,9 C 16,9 C 94 % 1015,3 hPa 0,0 mm 0,1 km/h (0 Bft) S 178 0 min 0,000 mm 0,0 UV-I 0 W/m 15,9 C 1,6 km/h (1 Bft)
28.08.2016 02:51 17,0 C 17,0 C 94 % 1015,4 hPa 0,0 mm 0,0 km/h (0 Bft) S 178 0 min 0,000 mm 0,0 UV-I 0 W/m 16,0 C 0,0 km/h (0 Bft)
28.08.2016 02:52 17,0 C 17,0 C 94 % 1015,3 hPa 0,0 mm 0,0 km/h (0 Bft) S 178 0 min 0,000 mm 0,0 UV-I 0 W/m 16,0 C 0,0 km/h (0 Bft)
28.08.2016 02:53 17,1 C 17,1 C 94 % 1015,3 hPa 0,0 mm 0,0 km/h (0 Bft) S 178 0 min 0,000 mm 0,0 UV-I 0 W/m 16,1 C 0,0 km/h (0 Bft)
28.08.2016 02:54 17,1 C 17,1 C 94 % 1015,3 hPa 0,0 mm 0,0 km/h (0 Bft) S 178 0 min 0,000 mm 0,0 UV-I 0 W/m 16,1 C 0,0 km/h (0 Bft)
28.08.2016 02:55 17,1 C 17,1 C 94 % 1015,3 hPa 0,0 mm 0,0 km/h (0 Bft) S 178 0 min 0,000 mm 0,0 UV-I 0 W/m 16,1 C 0,0 km/h (0 Bft)
28.08.2016 02:56 17,0 C 17,1 C 93 % 1015,3 hPa 0,0 mm 0,0 km/h (0 Bft) S 178 0 min 0,000 mm 0,0 UV-I 0 W/m 15,9 C 0,0 km/h (0 Bft)
28.08.2016 02:57 17,0 C 17,0 C 93 % 1015,3 hPa 0,0 mm 0,4 km/h (0 Bft) S 178 0 min 0,000 mm 0,0 UV-I 0 W/m 15,9 C 1,6 km/h (1 Bft)
28.08.2016 02:58 16,9 C 17,0 C 93 % 1015,3 hPa 0,0 mm 0,0 km/h (0 Bft) S 178 0 min 0,000 mm 0,0 UV-I 0 W/m 15,8 C 0,0 km/h (0 Bft)
28.08.2016 02:59 16,9 C 16,9 C 93 % 1015,2 hPa 0,0 mm 0,0 km/h (0 Bft) S 178 0 min 0,000 mm 0,0 UV-I 0 W/m 15,8 C 0,0 km/h (0 Bft)
28.08.2016 03:00 16,9 C 16,9 C 93 % 1015,3 hPa 0,0 mm 0,3 km/h (0 Bft) S 178 0 min 0,000 mm 0,0 UV-I 0 W/m 15,8 C 1,6 km/h (1 Bft)
28.08.2016 03:01 16,8 C 16,9 C 93 % 1015,3 hPa 0,0 mm 0,0 km/h (0 Bft) S 178 0 min 0,000 mm 0,0 UV-I 0 W/m 15,7 C 0,0 km/h (0 Bft)
28.08.2016 03:02 16,8 C 16,8 C 93 % 1015,3 hPa 0,0 mm 0,0 km/h (0 Bft) S 178 0 min 0,000 mm 0,0 UV-I 0 W/m 15,7 C 0,0 km/h (0 Bft)
28.08.2016 03:03 16,8 C 16,8 C 94 % 1015,3 hPa 0,0 mm 0,0 km/h (0 Bft) S 178 0 min 0,000 mm 0,0 UV-I 0 W/m 15,8 C 0,0 km/h (0 Bft)
28.08.2016 03:04 16,8 C 16,8 C 94 % 1015,3 hPa 0,0 mm 0,0 km/h (0 Bft) S 178 0 min 0,000 mm 0,0 UV-I 0 W/m 15,8 C 0,0 km/h (0 Bft)
28.08.2016 03:05 16,9 C 16,9 C 94 % 1015,3 hPa 0,0 mm 0,5 km/h (0 Bft) S 178 0 min 0,000 mm 0,0 UV-I 0 W/m 15,9 C 1,6 km/h (1 Bft)
28.08.2016 03:06 16,9 C 16,9 C 94 % 1015,3 hPa 0,0 mm 0,0 km/h (0 Bft) S 178 0 min 0,000 mm 0,0 UV-I 0 W/m 15,9 C 0,0 km/h (0 Bft)
28.08.2016 03:07 16,9 C 16,9 C 94 % 1015,3 hPa 0,0 mm 0,0 km/h (0 Bft) S 178 0 min 0,000 mm 0,0 UV-I 0 W/m 15,9 C 0,0 km/h (0 Bft)
28.08.2016 03:08 16,9 C 16,9 C 94 % 1015,3 hPa 0,0 mm 1,4 km/h (1 Bft) S 178 0 min 0,000 mm 0,0 UV-I 0 W/m 15,9 C 3,2 km/h (1 Bft)
28.08.2016 03:09 16,9 C 16,9 C 93 % 1015,3 hPa 0,0 mm 0,1 km/h (0 Bft) S 178 0 min 0,000 mm 0,0 UV-I 0 W/m 15,8 C 1,6 km/h (1 Bft)
28.08.2016 03:10 16,8 C 16,9 C 93 % 1015,3 hPa 0,0 mm 0,0 km/h (0 Bft) S 178 0 min 0,000 mm 0,0 UV-I 0 W/m 15,7 C 0,0 km/h (0 Bft)
28.08.2016 03:11 16,7 C 16,8 C 93 % 1015,3 hPa 0,0 mm 0,0 km/h (0 Bft) S 178 0 min 0,000 mm 0,0 UV-I 0 W/m 15,6 C 0,0 km/h (0 Bft)
28.08.2016 03:12 16,8 C 16,8 C 94 % 1015,3 hPa 0,0 mm 0,3 km/h (0 Bft) S 178 0 min 0,000 mm 0,0 UV-I 0 W/m 15,8 C 1,6 km/h (1 Bft)
28.08.2016 03:13 16,9 C 16,9 C 94 % 1015,3 hPa 0,0 mm 3,1 km/h (1 Bft) SO 140 0 min 0,000 mm 0,0 UV-I 0 W/m 15,9 C 4,8 km/h (1 Bft)
28.08.2016 03:14 16,9 C 16,9 C 94 % 1015,3 hPa 0,0 mm 2,7 km/h (1 Bft) SO 140 0 min 0,000 mm 0,0 UV-I 0 W/m 15,9 C 3,2 km/h (1 Bft)
28.08.2016 03:15 17,1 C 17,1 C 94 % 1015,3 hPa 0,0 mm 0,1 km/h (0 Bft) SO 140 0 min 0,000 mm 0,0 UV-I 0 W/m 16,1 C 1,6 km/h (1 Bft)
28.08.2016 03:16 17,0 C 17,1 C 94 % 1015,3 hPa 0,0 mm 0,2 km/h (0 Bft) SO 140 0 min 0,000 mm 0,0 UV-I 0 W/m 16,0 C 1,6 km/h (1 Bft)
28.08.2016 03:17 17,0 C 17,0 C 94 % 1015,3 hPa 0,0 mm 1,2 km/h (1 Bft) SO 140 0 min 0,000 mm 0,0 UV-I 0 W/m 16,0 C 3,2 km/h (1 Bft)
28.08.2016 03:18 17,1 C 17,1 C 94 % 1015,3 hPa 0,0 mm 0,7 km/h (0 Bft) SO 141 0 min 0,000 mm 0,0 UV-I 0 W/m 16,1 C 3,2 km/h (1 Bft)
28.08.2016 03:19 17,2 C 17,2 C 94 % 1015,2 hPa 0,0 mm 1,8 km/h (1 Bft) SO 141 0 min 0,000 mm 0,0 UV-I 0 W/m 16,2 C 3,2 km/h (1 Bft)
28.08.2016 03:20 17,3 C 17,3 C 95 % 1015,2 hPa 0,0 mm 3,6 km/h (1 Bft) SO 141 0 min 0,000 mm 0,0 UV-I 0 W/m 16,5 C 4,8 km/h (1 Bft)
28.08.2016 03:21 17,4 C 17,4 C 95 % 1015,2 hPa 0,0 mm 1,9 km/h (1 Bft) SO 141 0 min 0,000 mm 0,0 UV-I 0 W/m 16,6 C 3,2 km/h (1 Bft)
28.08.2016 03:22 17,5 C 17,5 C 94 % 1015,3 hPa 0,0 mm 1,4 km/h (1 Bft) SO 141 0 min 0,000 mm 0,0 UV-I 0 W/m 16,5 C 3,2 km/h (1 Bft)
28.08.2016 03:23 17,6 C 17,6 C 92 % 1015,3 hPa 0,0 mm 1,9 km/h (1 Bft) S-SO 150 0 min 0,000 mm 0,0 UV-I 0 W/m 16,3 C 3,2 km/h (1 Bft)
28.08.2016 03:24 17,4 C 17,6 C 91 % 1015,3 hPa 0,0 mm 0,9 km/h (0 Bft) S-SO 150 0 min 0,000 mm 0,0 UV-I 0 W/m 15,9 C 1,6 km/h (1 Bft)
28.08.2016 03:25 17,3 C 17,4 C 91 % 1015,3 hPa 0,0 mm 0,0 km/h (0 Bft) S-SO 150 0 min 0,000 mm 0,0 UV-I 0 W/m 15,8 C 0,0 km/h (0 Bft)
28.08.2016 03:26 17,3 C 17,3 C 91 % 1015,3 hPa 0,0 mm 0,0 km/h (0 Bft) S-SO 150 0 min 0,000 mm 0,0 UV-I 0 W/m 15,8 C 0,0 km/h (0 Bft)
28.08.2016 03:27 17,2 C 17,3 C 92 % 1015,3 hPa 0,0 mm 0,8 km/h (0 Bft) S-SO 150 0 min 0,000 mm 0,0 UV-I 0 W/m 15,9 C 1,6 km/h (1 Bft)
28.08.2016 03:28 17,1 C 17,2 C 92 % 1015,3 hPa 0,0 mm 1,2 km/h (1 Bft) S-SO 150 0 min 0,000 mm 0,0 UV-I 0 W/m 15,8 C 1,6 km/h (1 Bft)
28.08.2016 03:29 17,0 C 17,1 C 92 % 1015,3 hPa 0,0 mm 0,1 km/h (0 Bft) S-SO 150 0 min 0,000 mm 0,0 UV-I 0 W/m 15,7 C 1,6 km/h (1 Bft)
28.08.2016 03:30 16,9 C 17,0 C 92 % 1015,2 hPa 0,0 mm 2,9 km/h (1 Bft) SO 128 0 min 0,000 mm 0,0 UV-I 0 W/m 15,6 C 4,8 km/h (1 Bft)
28.08.2016 03:31 17,0 C 17,0 C 93 % 1015,2 hPa 0,0 mm 1,2 km/h (1 Bft) SO 128 0 min 0,000 mm 0,0 UV-I 0 W/m 15,9 C 3,2 km/h (1 Bft)
28.08.2016 03:32 17,0 C 17,0 C 93 % 1015,2 hPa 0,0 mm 0,4 km/h (0 Bft) SO 128 0 min 0,000 mm 0,0 UV-I 0 W/m 15,9 C 1,6 km/h (1 Bft)
28.08.2016 03:33 17,1 C 17,1 C 93 % 1015,2 hPa 0,0 mm 0,1 km/h (0 Bft) SO 128 0 min 0,000 mm 0,0 UV-I 0 W/m 16,0 C 1,6 km/h (1 Bft)
28.08.2016 03:34 17,1 C 17,1 C 93 % 1015,2 hPa 0,0 mm 0,0 km/h (0 Bft) SO 128 0 min 0,000 mm 0,0 UV-I 0 W/m 16,0 C 0,0 km/h (0 Bft)
28.08.2016 03:35 17,1 C 17,1 C 92 % 1015,2 hPa 0,0 mm 0,0 km/h (0 Bft) SO 128 0 min 0,000 mm 0,0 UV-I 0 W/m 15,8 C 0,0 km/h (0 Bft)
28.08.2016 03:36 17,0 C 17,1 C 92 % 1015,2 hPa 0,0 mm 0,0 km/h (0 Bft) SO 128 0 min 0,000 mm 0,0 UV-I 0 W/m 15,7 C 0,0 km/h (0 Bft)
28.08.2016 03:37 17,0 C 17,0 C 93 % 1015,3 hPa 0,0 mm 0,2 km/h (0 Bft) SO 128 0 min 0,000 mm 0,0 UV-I 0 W/m 15,9 C 1,6 km/h (1 Bft)
28.08.2016 03:38 16,9 C 17,0 C 92 % 1015,2 hPa 0,0 mm 2,1 km/h (1 Bft) SO 127 0 min 0,000 mm 0,0 UV-I 0 W/m 15,6 C 4,8 km/h (1 Bft)
28.08.2016 03:39 17,0 C 17,0 C 93 % 1015,2 hPa 0,0 mm 0,7 km/h (0 Bft) SO 127 0 min 0,000 mm 0,0 UV-I 0 W/m 15,9 C 1,6 km/h (1 Bft)
28.08.2016 03:40 17,1 C 17,1 C 93 % 1015,2 hPa 0,0 mm 0,1 km/h (0 Bft) SO 127 0 min 0,000 mm 0,0 UV-I 0 W/m 16,0 C 1,6 km/h (1 Bft)
28.08.2016 03:41 17,0 C 17,1 C 92 % 1015,2 hPa 0,0 mm 2,0 km/h (1 Bft) SO 127 0 min 0,000 mm 0,0 UV-I 0 W/m 15,7 C 3,2 km/h (1 Bft)
28.08.2016 03:42 16,9 C 17,1 C 92 % 1015,2 hPa 0,0 mm 0,5 km/h (0 Bft) SO 127 0 min 0,000 mm 0,0 UV-I 0 W/m 15,6 C 1,6 km/h (1 Bft)
28.08.2016 03:43 16,9 C 16,9 C 92 % 1015,2 hPa 0,0 mm 0,0 km/h (0 Bft) SO 127 0 min 0,000 mm 0,0 UV-I 0 W/m 15,6 C 0,0 km/h (0 Bft)
28.08.2016 03:44 16,8 C 16,9 C 92 % 1015,2 hPa 0,0 mm 0,1 km/h (0 Bft) SO 127 0 min 0,000 mm 0,0 UV-I 0 W/m 15,5 C 1,6 km/h (1 Bft)
28.08.2016 03:45 16,8 C 16,8 C 92 % 1015,2 hPa 0,0 mm 0,0 km/h (0 Bft) SO 127 0 min 0,000 mm 0,0 UV-I 0 W/m 15,5 C 0,0 km/h (0 Bft)
28.08.2016 03:46 16,8 C 16,8 C 93 % 1015,2 hPa 0,0 mm 0,0 km/h (0 Bft) SO 127 0 min 0,000 mm 0,0 UV-I 0 W/m 15,7 C 0,0 km/h (0 Bft)
28.08.2016 03:47 16,8 C 16,8 C 93 % 1015,2 hPa 0,0 mm 0,0 km/h (0 Bft) SO 127 0 min 0,000 mm 0,0 UV-I 0 W/m 15,7 C 0,0 km/h (0 Bft)
28.08.2016 03:48 16,8 C 16,8 C 93 % 1015,3 hPa 0,0 mm 0,0 km/h (0 Bft) SO 127 0 min 0,000 mm 0,0 UV-I 0 W/m 15,7 C 0,0 km/h (0 Bft)
28.08.2016 03:49 16,8 C 16,8 C 93 % 1015,3 hPa 0,0 mm 0,1 km/h (0 Bft) SO 127 0 min 0,000 mm 0,0 UV-I 0 W/m 15,7 C 1,6 km/h (1 Bft)
28.08.2016 03:50 16,8 C 16,8 C 93 % 1015,2 hPa 0,0 mm 1,7 km/h (1 Bft) SO 127 0 min 0,000 mm 0,0 UV-I 0 W/m 15,7 C 3,2 km/h (1 Bft)
28.08.2016 03:51 16,9 C 16,9 C 94 % 1015,2 hPa 0,0 mm 1,4 km/h (1 Bft) SO 127 0 min 0,000 mm 0,0 UV-I 0 W/m 15,9 C 3,2 km/h (1 Bft)
28.08.2016 03:52 16,9 C 16,9 C 93 % 1015,3 hPa 0,0 mm 0,0 km/h (0 Bft) SO 127 0 min 0,000 mm 0,0 UV-I 0 W/m 15,8 C 0,0 km/h (0 Bft)
28.08.2016 03:53 16,9 C 16,9 C 93 % 1015,3 hPa 0,0 mm 0,0 km/h (0 Bft) SO 127 0 min 0,000 mm 0,0 UV-I 0 W/m 15,8 C 0,0 km/h (0 Bft)
28.08.2016 03:54 16,8 C 16,9 C 93 % 1015,3 hPa 0,0 mm 0,0 km/h (0 Bft) SO 127 0 min 0,000 mm 0,0 UV-I 0 W/m 15,7 C 0,0 km/h (0 Bft)
28.08.2016 03:55 16,8 C 16,8 C 93 % 1015,3 hPa 0,0 mm 0,0 km/h (0 Bft) SO 127 0 min 0,000 mm 0,0 UV-I 0 W/m 15,7 C 0,0 km/h (0 Bft)
28.08.2016 03:56 16,8 C 16,8 C 93 % 1015,3 hPa 0,0 mm 0,0 km/h (0 Bft) SO 127 0 min 0,000 mm 0,0 UV-I 0 W/m 15,7 C 0,0 km/h (0 Bft)
28.08.2016 03:57 16,7 C 16,8 C 93 % 1015,3 hPa 0,0 mm 0,0 km/h (0 Bft) SO 127 0 min 0,000 mm 0,0 UV-I 0 W/m 15,6 C 0,0 km/h (0 Bft)
28.08.2016 03:58 16,7 C 16,8 C 93 % 1015,3 hPa 0,0 mm 0,0 km/h (0 Bft) SO 127 0 min 0,000 mm 0,0 UV-I 0 W/m 15,6 C 0,0 km/h (0 Bft)
28.08.2016 03:59 16,7 C 16,7 C 93 % 1015,3 hPa 0,0 mm 0,0 km/h (0 Bft) SO 127 0 min 0,000 mm 0,0 UV-I 0 W/m 15,6 C 0,0 km/h (0 Bft)
28.08.2016 04:00 16,6 C 16,7 C 93 % 1015,3 hPa 0,0 mm 0,0 km/h (0 Bft) SO 127 0 min 0,000 mm 0,0 UV-I 0 W/m 15,5 C 0,0 km/h (0 Bft)
28.08.2016 04:01 16,6 C 16,6 C 93 % 1015,3 hPa 0,0 mm 0,0 km/h (0 Bft) SO 127 0 min 0,000 mm 0,0 UV-I 0 W/m 15,5 C 0,0 km/h (0 Bft)
28.08.2016 04:03 16,6 C 16,6 C 94 % 1015,2 hPa 0,0 mm 0,0 km/h (0 Bft) SO 127 0 min 0,000 mm 0,0 UV-I 0 W/m 15,6 C 0,0 km/h (0 Bft)
28.08.2016 04:04 16,6 C 16,6 C 94 % 1015,2 hPa 0,0 mm 0,0 km/h (0 Bft) SO 127 0 min 0,000 mm 0,0 UV-I 0 W/m 15,6 C 0,0 km/h (0 Bft)
28.08.2016 04:05 16,6 C 16,6 C 94 % 1015,2 hPa 0,0 mm 0,0 km/h (0 Bft) SO 127 0 min 0,000 mm 0,0 UV-I 0 W/m 15,6 C 0,0 km/h (0 Bft)
28.08.2016 04:06 16,6 C 16,6 C 94 % 1015,2 hPa 0,0 mm 0,0 km/h (0 Bft) SO 127 0 min 0,000 mm 0,0 UV-I 0 W/m 15,6 C 0,0 km/h (0 Bft)
28.08.2016 04:07 16,5 C 16,6 C 94 % 1015,2 hPa 0,0 mm 0,0 km/h (0 Bft) SO 127 0 min 0,000 mm 0,0 UV-I 0 W/m 15,5 C 0,0 km/h (0 Bft)
28.08.2016 04:08 16,6 C 16,6 C 94 % 1015,3 hPa 0,0 mm 0,0 km/h (0 Bft) SO 127 0 min 0,000 mm 0,0 UV-I 0 W/m 15,6 C 0,0 km/h (0 Bft)
28.08.2016 04:09 16,6 C 16,6 C 94 % 1015,3 hPa 0,0 mm 0,0 km/h (0 Bft) SO 127 0 min 0,000 mm 0,0 UV-I 0 W/m 15,6 C 0,0 km/h (0 Bft)
28.08.2016 04:10 16,6 C 16,6 C 95 % 1015,3 hPa 0,0 mm 0,0 km/h (0 Bft) SO 127 0 min 0,000 mm 0,0 UV-I 0 W/m 15,8 C 0,0 km/h (0 Bft)
28.08.2016 04:11 16,5 C 16,6 C 94 % 1015,3 hPa 0,0 mm 0,0 km/h (0 Bft) SO 127 0 min 0,000 mm 0,0 UV-I 0 W/m 15,5 C 0,0 km/h (0 Bft)
28.08.2016 04:12 16,6 C 16,6 C 94 % 1015,3 hPa 0,0 mm 0,0 km/h (0 Bft) SO 127 0 min 0,000 mm 0,0 UV-I 0 W/m 15,6 C 0,0 km/h (0 Bft)
28.08.2016 04:13 16,6 C 16,6 C 94 % 1015,3 hPa 0,0 mm 0,0 km/h (0 Bft) SO 127 0 min 0,000 mm 0,0 UV-I 0 W/m 15,6 C 0,0 km/h (0 Bft)
28.08.2016 04:14 16,6 C 16,6 C 94 % 1015,3 hPa 0,0 mm 0,0 km/h (0 Bft) SO 127 0 min 0,000 mm 0,0 UV-I 0 W/m 15,6 C 0,0 km/h (0 Bft)
28.08.2016 04:15 16,7 C 16,7 C 95 % 1015,2 hPa 0,0 mm 0,0 km/h (0 Bft) SO 127 0 min 0,000 mm 0,0 UV-I 0 W/m 15,9 C 0,0 km/h (0 Bft)
28.08.2016 04:16 16,6 C 16,7 C 94 % 1015,2 hPa 0,0 mm 0,0 km/h (0 Bft) SO 127 0 min 0,000 mm 0,0 UV-I 0 W/m 15,6 C 0,0 km/h (0 Bft)
28.08.2016 04:17 16,6 C 16,7 C 94 % 1015,3 hPa 0,0 mm 0,0 km/h (0 Bft) SO 127 0 min 0,000 mm 0,0 UV-I 0 W/m 15,6 C 0,0 km/h (0 Bft)
28.08.2016 04:18 16,7 C 16,7 C 94 % 1015,2 hPa 0,0 mm 0,0 km/h (0 Bft) SO 127 0 min 0,000 mm 0,0 UV-I 0 W/m 15,7 C 0,0 km/h (0 Bft)
28.08.2016 04:19 16,7 C 16,7 C 94 % 1015,2 hPa 0,0 mm 0,0 km/h (0 Bft) SO 127 0 min 0,000 mm 0,0 UV-I 0 W/m 15,7 C 0,0 km/h (0 Bft)
28.08.2016 04:20 16,6 C 16,7 C 94 % 1015,3 hPa 0,0 mm 0,0 km/h (0 Bft) SO 127 0 min 0,000 mm 0,0 UV-I 0 W/m 15,6 C 0,0 km/h (0 Bft)
28.08.2016 04:21 16,6 C 16,6 C 94 % 1015,2 hPa 0,0 mm 0,0 km/h (0 Bft) SO 127 0 min 0,000 mm 0,0 UV-I 0 W/m 15,6 C 0,0 km/h (0 Bft)
28.08.2016 04:22 16,6 C 16,7 C 94 % 1015,2 hPa 0,0 mm 0,0 km/h (0 Bft) SO 127 0 min 0,000 mm 0,0 UV-I 0 W/m 15,6 C 0,0 km/h (0 Bft)
28.08.2016 04:23 16,7 C 16,7 C 94 % 1015,3 hPa 0,0 mm 0,0 km/h (0 Bft) SO 127 0 min 0,000 mm 0,0 UV-I 0 W/m 15,7 C 0,0 km/h (0 Bft)
28.08.2016 04:24 16,6 C 16,7 C 94 % 1015,3 hPa 0,0 mm 0,0 km/h (0 Bft) SO 127 0 min 0,000 mm 0,0 UV-I 0 W/m 15,6 C 0,0 km/h (0 Bft)
28.08.2016 04:25 16,6 C 16,6 C 94 % 1015,3 hPa 0,0 mm 0,0 km/h (0 Bft) SO 127 0 min 0,000 mm 0,0 UV-I 0 W/m 15,6 C 0,0 km/h (0 Bft)
28.08.2016 04:26 16,6 C 16,6 C 93 % 1015,3 hPa 0,0 mm 0,0 km/h (0 Bft) SO 127 0 min 0,000 mm 0,0 UV-I 0 W/m 15,5 C 0,0 km/h (0 Bft)
28.08.2016 04:27 16,6 C 16,6 C 93 % 1015,3 hPa 0,0 mm 0,0 km/h (0 Bft) SO 127 0 min 0,000 mm 0,0 UV-I 0 W/m 15,5 C 0,0 km/h (0 Bft)
28.08.2016 04:28 16,4 C 16,6 C 93 % 1015,3 hPa 0,0 mm 0,0 km/h (0 Bft) SO 127 0 min 0,000 mm 0,0 UV-I 0 W/m 15,3 C 0,0 km/h (0 Bft)
28.08.2016 04:29 16,4 C 16,4 C 93 % 1015,3 hPa 0,0 mm 0,0 km/h (0 Bft) SO 127 0 min 0,000 mm 0,0 UV-I 0 W/m 15,3 C 0,0 km/h (0 Bft)
28.08.2016 04:30 16,4 C 16,4 C 94 % 1015,3 hPa 0,0 mm 0,0 km/h (0 Bft) SO 127 0 min 0,000 mm 0,0 UV-I 0 W/m 15,4 C 0,0 km/h (0 Bft)
28.08.2016 04:31 16,6 C 16,6 C 95 % 1015,3 hPa 0,0 mm 0,0 km/h (0 Bft) SO 127 0 min 0,000 mm 0,0 UV-I 0 W/m 15,8 C 0,0 km/h (0 Bft)
28.08.2016 04:32 16,6 C 16,6 C 94 % 1015,2 hPa 0,0 mm 0,0 km/h (0 Bft) SO 127 0 min 0,000 mm 0,0 UV-I 0 W/m 15,6 C 0,0 km/h (0 Bft)
28.08.2016 04:33 16,5 C 16,6 C 94 % 1015,2 hPa 0,0 mm 0,0 km/h (0 Bft) SO 127 0 min 0,000 mm 0,0 UV-I 0 W/m 15,5 C 0,0 km/h (0 Bft)
28.08.2016 04:34 16,4 C 16,5 C 94 % 1015,3 hPa 0,0 mm 0,0 km/h (0 Bft) SO 127 0 min 0,000 mm 0,0 UV-I 0 W/m 15,4 C 0,0 km/h (0 Bft)
28.08.2016 04:35 16,4 C 16,4 C 94 % 1015,3 hPa 0,0 mm 0,0 km/h (0 Bft) SO 127 0 min 0,000 mm 0,0 UV-I 0 W/m 15,4 C 0,0 km/h (0 Bft)
28.08.2016 04:36 16,4 C 16,4 C 94 % 1015,2 hPa 0,0 mm 0,0 km/h (0 Bft) SO 127 0 min 0,000 mm 0,0 UV-I 0 W/m 15,4 C 0,0 km/h (0 Bft)
28.08.2016 04:37 16,3 C 16,4 C 93 % 1015,3 hPa 0,0 mm 0,0 km/h (0 Bft) SO 127 0 min 0,000 mm 0,0 UV-I 0 W/m 15,2 C 0,0 km/h (0 Bft)
28.08.2016 04:38 16,3 C 16,3 C 93 % 1015,3 hPa 0,0 mm 0,0 km/h (0 Bft) SO 127 0 min 0,000 mm 0,0 UV-I 0 W/m 15,2 C 0,0 km/h (0 Bft)
28.08.2016 04:39 16,3 C 16,3 C 94 % 1015,3 hPa 0,0 mm 0,0 km/h (0 Bft) SO 127 0 min 0,000 mm 0,0 UV-I 0 W/m 15,3 C 0,0 km/h (0 Bft)
28.08.2016 04:40 16,3 C 16,3 C 94 % 1015,3 hPa 0,0 mm 0,0 km/h (0 Bft) SO 127 0 min 0,000 mm 0,0 UV-I 0 W/m 15,3 C 0,0 km/h (0 Bft)
28.08.2016 04:41 16,3 C 16,3 C 94 % 1015,3 hPa 0,0 mm 0,0 km/h (0 Bft) SO 127 0 min 0,000 mm 0,0 UV-I 0 W/m 15,3 C 0,0 km/h (0 Bft)
28.08.2016 04:42 16,3 C 16,3 C 94 % 1015,3 hPa 0,0 mm 0,0 km/h (0 Bft) SO 127 0 min 0,000 mm 0,0 UV-I 0 W/m 15,3 C 0,0 km/h (0 Bft)
28.08.2016 04:43 16,2 C 16,3 C 94 % 1015,3 hPa 0,0 mm 1,2 km/h (1 Bft) SO 127 0 min 0,000 mm 0,0 UV-I 0 W/m 15,2 C 4,8 km/h (1 Bft)
28.08.2016 04:44 16,3 C 16,3 C 94 % 1015,3 hPa 0,0 mm 2,6 km/h (1 Bft) SO 127 0 min 0,000 mm 0,0 UV-I 0 W/m 15,3 C 4,8 km/h (1 Bft)
28.08.2016 04:45 16,3 C 16,3 C 95 % 1015,3 hPa 0,0 mm 2,6 km/h (1 Bft) S-SW 206 0 min 0,000 mm 0,0 UV-I 0 W/m 15,5 C 3,2 km/h (1 Bft)
28.08.2016 04:46 16,3 C 16,3 C 94 % 1015,3 hPa 0,0 mm 0,3 km/h (0 Bft) S-SW 205 0 min 0,000 mm 0,0 UV-I 0 W/m 15,3 C 1,6 km/h (1 Bft)
28.08.2016 04:47 16,2 C 16,3 C 94 % 1015,3 hPa 0,0 mm 0,2 km/h (0 Bft) S-SW 205 0 min 0,000 mm 0,0 UV-I 0 W/m 15,2 C 1,6 km/h (1 Bft)
28.08.2016 04:48 16,2 C 16,2 C 94 % 1015,3 hPa 0,0 mm 0,0 km/h (0 Bft) S-SW 205 0 min 0,000 mm 0,0 UV-I 0 W/m 15,2 C 0,0 km/h (0 Bft)
28.08.2016 04:49 16,2 C 16,2 C 94 % 1015,3 hPa 0,0 mm 0,0 km/h (0 Bft) S-SW 205 0 min 0,000 mm 0,0 UV-I 0 W/m 15,2 C 0,0 km/h (0 Bft)
28.08.2016 04:50 16,2 C 16,2 C 94 % 1015,3 hPa 0,0 mm 0,0 km/h (0 Bft) S-SW 205 0 min 0,000 mm 0,0 UV-I 0 W/m 15,2 C 0,0 km/h (0 Bft)
28.08.2016 04:51 16,3 C 16,3 C 95 % 1015,4 hPa 0,0 mm 0,0 km/h (0 Bft) S-SW 205 0 min 0,000 mm 0,0 UV-I 0 W/m 15,5 C 0,0 km/h (0 Bft)
28.08.2016 04:52 16,2 C 16,3 C 94 % 1015,3 hPa 0,0 mm 0,7 km/h (0 Bft) S-SW 205 0 min 0,000 mm 0,0 UV-I 0 W/m 15,2 C 1,6 km/h (1 Bft)
28.08.2016 04:53 16,2 C 16,2 C 94 % 1015,3 hPa 0,0 mm 1,2 km/h (1 Bft) S-SW 206 0 min 0,000 mm 0,0 UV-I 0 W/m 15,2 C 3,2 km/h (1 Bft)
28.08.2016 04:54 16,1 C 16,2 C 94 % 1015,4 hPa 0,0 mm 0,6 km/h (0 Bft) S-SW 206 0 min 0,000 mm 0,0 UV-I 0 W/m 15,1 C 3,2 km/h (1 Bft)
28.08.2016 04:55 16,1 C 16,1 C 94 % 1015,3 hPa 0,0 mm 2,5 km/h (1 Bft) S-SO 157 0 min 0,000 mm 0,0 UV-I 0 W/m 15,1 C 4,8 km/h (1 Bft)
28.08.2016 04:56 16,0 C 16,1 C 94 % 1015,4 hPa 0,0 mm 1,6 km/h (1 Bft) S-SO 162 0 min 0,000 mm 0,0 UV-I 0 W/m 15,0 C 3,2 km/h (1 Bft)
28.08.2016 04:57 16,0 C 16,0 C 94 % 1015,4 hPa 0,0 mm 1,8 km/h (1 Bft) SW 220 0 min 0,000 mm 0,0 UV-I 0 W/m 15,0 C 3,2 km/h (1 Bft)
28.08.2016 04:58 16,0 C 16,0 C 94 % 1015,4 hPa 0,0 mm 2,9 km/h (1 Bft) SO 144 0 min 0,000 mm 0,0 UV-I 0 W/m 15,0 C 3,2 km/h (1 Bft)
28.08.2016 04:59 16,0 C 16,0 C 95 % 1015,4 hPa 0,0 mm 1,5 km/h (1 Bft) SO 144 0 min 0,000 mm 0,0 UV-I 0 W/m 15,2 C 4,8 km/h (1 Bft)
28.08.2016 05:00 16,0 C 16,0 C 94 % 1015,4 hPa 0,0 mm 0,0 km/h (0 Bft) SO 144 0 min 0,000 mm 0,0 UV-I 0 W/m 15,0 C 0,0 km/h (0 Bft)
28.08.2016 05:01 15,9 C 16,0 C 94 % 1015,4 hPa 0,0 mm 0,6 km/h (0 Bft) S-SO 152 0 min 0,000 mm 0,0 UV-I 0 W/m 14,9 C 1,6 km/h (1 Bft)
28.08.2016 05:02 15,9 C 15,9 C 94 % 1015,4 hPa 0,0 mm 0,3 km/h (0 Bft) S-SO 152 0 min 0,000 mm 0,0 UV-I 0 W/m 14,9 C 1,6 km/h (1 Bft)
28.08.2016 05:03 15,9 C 15,9 C 94 % 1015,4 hPa 0,0 mm 0,0 km/h (0 Bft) S-SO 152 0 min 0,000 mm 0,0 UV-I 0 W/m 14,9 C 1,6 km/h (1 Bft)
28.08.2016 05:04 15,9 C 15,9 C 94 % 1015,4 hPa 0,0 mm 0,0 km/h (0 Bft) S-SO 152 0 min 0,000 mm 0,0 UV-I 0 W/m 14,9 C 0,0 km/h (0 Bft)
28.08.2016 05:05 15,9 C 15,9 C 95 % 1015,4 hPa 0,0 mm 0,0 km/h (0 Bft) S-SO 152 0 min 0,000 mm 0,0 UV-I 0 W/m 15,1 C 0,0 km/h (0 Bft)
28.08.2016 05:06 16,0 C 16,0 C 95 % 1015,4 hPa 0,0 mm 0,0 km/h (0 Bft) S-SO 152 0 min 0,000 mm 0,0 UV-I 0 W/m 15,2 C 0,0 km/h (0 Bft)
28.08.2016 05:07 16,1 C 16,1 C 95 % 1015,4 hPa 0,0 mm 0,0 km/h (0 Bft) S-SO 152 0 min 0,000 mm 0,0 UV-I 0 W/m 15,3 C 0,0 km/h (0 Bft)
28.08.2016 05:08 16,1 C 16,1 C 95 % 1015,4 hPa 0,0 mm 0,0 km/h (0 Bft) S-SO 152 0 min 0,000 mm 0,0 UV-I 0 W/m 15,3 C 0,0 km/h (0 Bft)
28.08.2016 05:09 16,2 C 16,2 C 95 % 1015,4 hPa 0,0 mm 0,0 km/h (0 Bft) S-SO 152 0 min 0,000 mm 0,0 UV-I 0 W/m 15,4 C 0,0 km/h (0 Bft)
28.08.2016 05:10 16,2 C 16,2 C 95 % 1015,4 hPa 0,0 mm 0,0 km/h (0 Bft) S-SO 152 0 min 0,000 mm 0,0 UV-I 0 W/m 15,4 C 0,0 km/h (0 Bft)
28.08.2016 05:11 16,2 C 16,2 C 95 % 1015,4 hPa 0,0 mm 0,0 km/h (0 Bft) S-SO 152 0 min 0,000 mm 0,0 UV-I 0 W/m 15,4 C 0,0 km/h (0 Bft)
28.08.2016 05:12 16,2 C 16,2 C 94 % 1015,4 hPa 0,0 mm 0,2 km/h (0 Bft) S-SO 152 0 min 0,000 mm 0,0 UV-I 0 W/m 15,2 C 1,6 km/h (1 Bft)
28.08.2016 05:13 16,2 C 16,2 C 94 % 1015,4 hPa 0,0 mm 0,1 km/h (0 Bft) S-SO 152 0 min 0,000 mm 0,0 UV-I 0 W/m 15,2 C 1,6 km/h (1 Bft)
28.08.2016 05:14 16,1 C 16,2 C 94 % 1015,4 hPa 0,0 mm 0,0 km/h (0 Bft) S-SO 152 0 min 0,000 mm 0,0 UV-I 0 W/m 15,1 C 0,0 km/h (0 Bft)
28.08.2016 05:15 16,1 C 16,1 C 94 % 1015,4 hPa 0,0 mm 0,0 km/h (0 Bft) S-SO 152 0 min 0,000 mm 0,0 UV-I 0 W/m 15,1 C 0,0 km/h (0 Bft)
28.08.2016 05:16 16,1 C 16,1 C 94 % 1015,4 hPa 0,0 mm 0,0 km/h (0 Bft) S-SO 152 0 min 0,000 mm 0,0 UV-I 0 W/m 15,1 C 0,0 km/h (0 Bft)
28.08.2016 05:17 16,1 C 16,1 C 94 % 1015,4 hPa 0,0 mm 0,0 km/h (0 Bft) S-SO 152 0 min 0,000 mm 0,0 UV-I 0 W/m 15,1 C 0,0 km/h (0 Bft)
28.08.2016 05:18 16,1 C 16,1 C 94 % 1015,4 hPa 0,0 mm 0,0 km/h (0 Bft) S-SO 152 0 min 0,000 mm 0,0 UV-I 0 W/m 15,1 C 0,0 km/h (0 Bft)
28.08.2016 05:19 16,1 C 16,1 C 95 % 1015,4 hPa 0,0 mm 0,0 km/h (0 Bft) S-SO 152 0 min 0,000 mm 0,0 UV-I 0 W/m 15,3 C 0,0 km/h (0 Bft)
28.08.2016 05:20 16,1 C 16,1 C 95 % 1015,4 hPa 0,0 mm 0,0 km/h (0 Bft) S-SO 152 0 min 0,000 mm 0,0 UV-I 0 W/m 15,3 C 0,0 km/h (0 Bft)
28.08.2016 05:21 16,2 C 16,2 C 95 % 1015,4 hPa 0,0 mm 0,0 km/h (0 Bft) S-SO 152 0 min 0,000 mm 0,0 UV-I 0 W/m 15,4 C 0,0 km/h (0 Bft)
28.08.2016 05:22 16,2 C 16,2 C 95 % 1015,4 hPa 0,0 mm 0,0 km/h (0 Bft) S-SO 152 0 min 0,000 mm 0,0 UV-I 0 W/m 15,4 C 0,0 km/h (0 Bft)
28.08.2016 05:23 16,2 C 16,2 C 95 % 1015,4 hPa 0,0 mm 0,0 km/h (0 Bft) S-SO 153 0 min 0,000 mm 0,0 UV-I 0 W/m 15,4 C 0,0 km/h (0 Bft)
28.08.2016 05:24 16,1 C 16,2 C 95 % 1015,4 hPa 0,0 mm 0,0 km/h (0 Bft) S-SO 153 0 min 0,000 mm 0,0 UV-I 0 W/m 15,3 C 0,0 km/h (0 Bft)
28.08.2016 05:25 16,1 C 16,1 C 94 % 1015,5 hPa 0,0 mm 0,0 km/h (0 Bft) S-SO 153 0 min 0,000 mm 0,0 UV-I 0 W/m 15,1 C 0,0 km/h (0 Bft)
28.08.2016 05:26 16,1 C 16,1 C 95 % 1015,4 hPa 0,0 mm 0,0 km/h (0 Bft) S-SO 153 0 min 0,000 mm 0,0 UV-I 0 W/m 15,3 C 0,0 km/h (0 Bft)
28.08.2016 05:27 16,0 C 16,1 C 94 % 1015,4 hPa 0,0 mm 0,0 km/h (0 Bft) S-SO 153 0 min 0,000 mm 0,0 UV-I 0 W/m 15,0 C 0,0 km/h (0 Bft)
28.08.2016 05:28 15,9 C 16,0 C 94 % 1015,5 hPa 0,0 mm 0,0 km/h (0 Bft) S-SO 153 0 min 0,000 mm 0,0 UV-I 0 W/m 14,9 C 0,0 km/h (0 Bft)
28.08.2016 05:29 16,0 C 16,0 C 94 % 1015,5 hPa 0,0 mm 0,0 km/h (0 Bft) S-SO 153 0 min 0,000 mm 0,0 UV-I 0 W/m 15,0 C 0,0 km/h (0 Bft)
28.08.2016 05:30 16,0 C 16,0 C 95 % 1015,5 hPa 0,0 mm 0,0 km/h (0 Bft) S-SO 153 0 min 0,000 mm 0,0 UV-I 0 W/m 15,2 C 0,0 km/h (0 Bft)
28.08.2016 05:31 16,0 C 16,0 C 94 % 1015,5 hPa 0,0 mm 0,0 km/h (0 Bft) S-SO 153 0 min 0,000 mm 0,0 UV-I 0 W/m 15,0 C 0,0 km/h (0 Bft)
28.08.2016 05:32 15,9 C 16,0 C 94 % 1015,5 hPa 0,0 mm 0,0 km/h (0 Bft) S-SO 153 0 min 0,000 mm 0,0 UV-I 0 W/m 14,9 C 0,0 km/h (0 Bft)
28.08.2016 05:33 15,9 C 15,9 C 94 % 1015,5 hPa 0,0 mm 0,0 km/h (0 Bft) S-SO 153 0 min 0,000 mm 0,0 UV-I 0 W/m 14,9 C 0,0 km/h (0 Bft)
28.08.2016 05:34 15,9 C 15,9 C 94 % 1015,5 hPa 0,0 mm 0,0 km/h (0 Bft) S-SO 153 0 min 0,000 mm 0,0 UV-I 0 W/m 14,9 C 0,0 km/h (0 Bft)
28.08.2016 05:35 15,9 C 15,9 C 94 % 1015,5 hPa 0,0 mm 0,0 km/h (0 Bft) S-SO 153 0 min 0,000 mm 0,0 UV-I 0 W/m 14,9 C 0,0 km/h (0 Bft)
28.08.2016 05:36 15,9 C 15,9 C 95 % 1015,5 hPa 0,0 mm 2,4 km/h (1 Bft) SW 236 0 min 0,000 mm 0,0 UV-I 0 W/m 15,1 C 3,2 km/h (1 Bft)
28.08.2016 05:37 15,9 C 15,9 C 95 % 1015,5 hPa 0,0 mm 1,5 km/h (1 Bft) SW 236 0 min 0,000 mm 0,0 UV-I 0 W/m 15,1 C 1,6 km/h (1 Bft)
28.08.2016 05:38 15,9 C 15,9 C 95 % 1015,5 hPa 0,0 mm 0,6 km/h (0 Bft) SW 236 0 min 0,000 mm 0,0 UV-I 0 W/m 15,1 C 1,6 km/h (1 Bft)
28.08.2016 05:39 15,9 C 15,9 C 95 % 1015,5 hPa 0,0 mm 0,1 km/h (0 Bft) SW 236 0 min 0,000 mm 0,0 UV-I 0 W/m 15,1 C 1,6 km/h (1 Bft)
28.08.2016 05:40 15,8 C 15,9 C 94 % 1015,5 hPa 0,0 mm 0,0 km/h (0 Bft) SW 236 0 min 0,000 mm 0,0 UV-I 0 W/m 14,8 C 0,0 km/h (0 Bft)
28.08.2016 05:41 15,8 C 15,8 C 94 % 1015,5 hPa 0,0 mm 0,0 km/h (0 Bft) SW 236 0 min 0,000 mm 0,0 UV-I 0 W/m 14,8 C 0,0 km/h (0 Bft)
28.08.2016 05:42 15,8 C 15,8 C 95 % 1015,4 hPa 0,0 mm 1,3 km/h (1 Bft) SW 236 0 min 0,000 mm 0,0 UV-I 0 W/m 15,0 C 3,2 km/h (1 Bft)
28.08.2016 05:43 15,9 C 15,9 C 95 % 1015,4 hPa 0,0 mm 0,9 km/h (0 Bft) SW 236 0 min 0,000 mm 0,0 UV-I 0 W/m 15,1 C 3,2 km/h (1 Bft)
28.08.2016 05:44 16,0 C 16,0 C 95 % 1015,4 hPa 0,0 mm 0,3 km/h (0 Bft) SW 236 0 min 0,000 mm 0,0 UV-I 0 W/m 15,2 C 1,6 km/h (1 Bft)
28.08.2016 05:45 15,9 C 16,0 C 95 % 1015,4 hPa 0,0 mm 0,9 km/h (0 Bft) SW 236 0 min 0,000 mm 0,0 UV-I 0 W/m 15,1 C 1,6 km/h (1 Bft)
28.08.2016 05:46 15,9 C 16,0 C 95 % 1015,4 hPa 0,0 mm 0,4 km/h (0 Bft) SW 236 0 min 0,000 mm 0,0 UV-I 0 W/m 15,1 C 1,6 km/h (1 Bft)
28.08.2016 05:47 16,1 C 16,1 C 95 % 1015,4 hPa 0,0 mm 1,4 km/h (1 Bft) SW 236 0 min 0,000 mm 0,0 UV-I 0 W/m 15,3 C 1,6 km/h (1 Bft)
28.08.2016 05:48 16,2 C 16,2 C 95 % 1015,4 hPa 0,0 mm 2,5 km/h (1 Bft) SW 234 0 min 0,000 mm 0,0 UV-I 0 W/m 15,4 C 3,2 km/h (1 Bft)
28.08.2016 05:49 16,2 C 16,2 C 95 % 1015,4 hPa 0,0 mm 1,9 km/h (1 Bft) W-SW 239 0 min 0,000 mm 0,0 UV-I 0 W/m 15,4 C 4,8 km/h (1 Bft)
28.08.2016 05:50 16,2 C 16,2 C 95 % 1015,4 hPa 0,0 mm 0,9 km/h (0 Bft) W-SW 239 0 min 0,000 mm 0,0 UV-I 0 W/m 15,4 C 3,2 km/h (1 Bft)
28.08.2016 05:51 16,1 C 16,2 C 94 % 1015,4 hPa 0,0 mm 0,0 km/h (0 Bft) W-SW 239 0 min 0,000 mm 0,0 UV-I 0 W/m 15,1 C 0,0 km/h (0 Bft)
28.08.2016 05:52 16,1 C 16,1 C 94 % 1015,5 hPa 0,0 mm 0,0 km/h (0 Bft) W-SW 239 0 min 0,000 mm 0,0 UV-I 0 W/m 15,1 C 0,0 km/h (0 Bft)
28.08.2016 05:53 16,0 C 16,1 C 94 % 1015,4 hPa 0,0 mm 0,6 km/h (0 Bft) W-SW 239 0 min 0,000 mm 0,0 UV-I 0 W/m 15,0 C 1,6 km/h (1 Bft)
28.08.2016 05:54 15,9 C 16,0 C 94 % 1015,4 hPa 0,0 mm 0,0 km/h (0 Bft) W-SW 239 0 min 0,000 mm 0,0 UV-I 0 W/m 14,9 C 0,0 km/h (0 Bft)
28.08.2016 05:55 16,1 C 16,1 C 95 % 1015,4 hPa 0,0 mm 1,4 km/h (1 Bft) S 182 0 min 0,000 mm 0,0 UV-I 0 W/m 15,3 C 4,8 km/h (1 Bft)
28.08.2016 05:56 16,2 C 16,2 C 95 % 1015,4 hPa 0,0 mm 3,7 km/h (1 Bft) S-SW 201 0 min 0,000 mm 0,0 UV-I 0 W/m 15,4 C 8,0 km/h (2 Bft)
28.08.2016 05:57 16,4 C 16,4 C 95 % 1015,5 hPa 0,0 mm 2,8 km/h (1 Bft) W-SW 245 0 min 0,000 mm 0,0 UV-I 0 W/m 15,6 C 3,2 km/h (1 Bft)
28.08.2016 05:58 16,4 C 16,4 C 95 % 1015,4 hPa 0,0 mm 0,9 km/h (0 Bft) W-SW 245 0 min 0,000 mm 0,0 UV-I 0 W/m 15,6 C 1,6 km/h (1 Bft)
28.08.2016 05:59 16,3 C 16,4 C 93 % 1015,4 hPa 0,0 mm 1,3 km/h (1 Bft) W-SW 245 0 min 0,000 mm 0,0 UV-I 0 W/m 15,2 C 1,6 km/h (1 Bft)
28.08.2016 06:00 16,3 C 16,3 C 93 % 1015,4 hPa 0,0 mm 0,6 km/h (0 Bft) W-SW 245 0 min 0,000 mm 0,0 UV-I 0 W/m 15,2 C 1,6 km/h (1 Bft)
28.08.2016 06:01 16,2 C 16,3 C 93 % 1015,4 hPa 0,0 mm 0,9 km/h (0 Bft) W-SW 244 0 min 0,000 mm 0,0 UV-I 0 W/m 15,1 C 1,6 km/h (1 Bft)
28.08.2016 06:02 16,3 C 16,3 C 93 % 1015,4 hPa 0,0 mm 0,1 km/h (0 Bft) W-SW 245 0 min 0,000 mm 0,0 UV-I 0 W/m 15,2 C 1,6 km/h (1 Bft)
28.08.2016 06:03 16,3 C 16,3 C 94 % 1015,4 hPa 0,0 mm 0,0 km/h (0 Bft) W-SW 245 0 min 0,000 mm 0,0 UV-I 0 W/m 15,3 C 0,0 km/h (0 Bft)
28.08.2016 06:04 16,3 C 16,3 C 94 % 1015,4 hPa 0,0 mm 0,1 km/h (0 Bft) W-SW 245 0 min 0,000 mm 0,0 UV-I 0 W/m 15,3 C 1,6 km/h (1 Bft)
28.08.2016 06:05 16,2 C 16,3 C 93 % 1015,4 hPa 0,0 mm 1,0 km/h (0 Bft) W-SW 245 0 min 0,000 mm 0,0 UV-I 0 W/m 15,1 C 1,6 km/h (1 Bft)
28.08.2016 06:06 16,1 C 16,2 C 93 % 1015,4 hPa 0,0 mm 0,0 km/h (0 Bft) W-SW 244 0 min 0,000 mm 0,0 UV-I 0 W/m 15,0 C 0,0 km/h (0 Bft)
28.08.2016 06:07 16,0 C 16,1 C 93 % 1015,4 hPa 0,0 mm 0,0 km/h (0 Bft) W-SW 245 0 min 0,000 mm 0,0 UV-I 0 W/m 14,9 C 0,0 km/h (0 Bft)
28.08.2016 06:08 16,0 C 16,0 C 93 % 1015,4 hPa 0,0 mm 0,0 km/h (0 Bft) W-SW 244 0 min 0,000 mm 0,0 UV-I 0 W/m 14,9 C 0,0 km/h (0 Bft)
28.08.2016 06:09 15,9 C 16,0 C 94 % 1015,4 hPa 0,0 mm 0,0 km/h (0 Bft) W-SW 244 0 min 0,000 mm 0,0 UV-I 0 W/m 14,9 C 0,0 km/h (0 Bft)
28.08.2016 06:10 15,9 C 15,9 C 94 % 1015,4 hPa 0,0 mm 0,0 km/h (0 Bft) W-SW 245 0 min 0,000 mm 0,0 UV-I 0 W/m 14,9 C 0,0 km/h (0 Bft)
28.08.2016 06:11 16,0 C 16,0 C 94 % 1015,5 hPa 0,0 mm 1,3 km/h (1 Bft) W-SW 245 0 min 0,000 mm 0,0 UV-I 0 W/m 15,0 C 1,6 km/h (1 Bft)
28.08.2016 06:12 16,1 C 16,1 C 95 % 1015,5 hPa 0,0 mm 0,2 km/h (0 Bft) W-SW 245 0 min 0,000 mm 0,0 UV-I 0 W/m 15,3 C 1,6 km/h (1 Bft)
28.08.2016 06:13 16,2 C 16,2 C 95 % 1015,5 hPa 0,0 mm 0,0 km/h (0 Bft) W-SW 245 0 min 0,000 mm 0,0 UV-I 0 W/m 15,4 C 0,0 km/h (0 Bft)
28.08.2016 06:14 16,3 C 16,3 C 95 % 1015,5 hPa 0,0 mm 0,0 km/h (0 Bft) W-SW 244 0 min 0,000 mm 0,0 UV-I 0 W/m 15,5 C 0,0 km/h (0 Bft)
28.08.2016 06:15 16,3 C 16,3 C 95 % 1015,5 hPa 0,0 mm 0,0 km/h (0 Bft) W-SW 244 0 min 0,000 mm 0,0 UV-I 0 W/m 15,5 C 0,0 km/h (0 Bft)
28.08.2016 06:16 16,3 C 16,3 C 94 % 1015,5 hPa 0,0 mm 0,0 km/h (0 Bft) W-SW 245 0 min 0,000 mm 0,0 UV-I 0 W/m 15,3 C 0,0 km/h (0 Bft)
28.08.2016 06:17 16,2 C 16,3 C 93 % 1015,5 hPa 0,0 mm 0,0 km/h (0 Bft) W-SW 245 0 min 0,000 mm 0,0 UV-I 0 W/m 15,1 C 0,0 km/h (0 Bft)
28.08.2016 06:18 16,2 C 16,2 C 93 % 1015,5 hPa 0,0 mm 0,0 km/h (0 Bft) W-SW 244 0 min 0,000 mm 0,0 UV-I 0 W/m 15,1 C 0,0 km/h (0 Bft)
28.08.2016 06:19 16,1 C 16,2 C 93 % 1015,5 hPa 0,0 mm 0,0 km/h (0 Bft) W-SW 244 0 min 0,000 mm 0,0 UV-I 0 W/m 15,0 C 0,0 km/h (0 Bft)
28.08.2016 06:20 16,1 C 16,1 C 93 % 1015,5 hPa 0,0 mm 0,0 km/h (0 Bft) W-SW 245 0 min 0,000 mm 0,0 UV-I 0 W/m 15,0 C 0,0 km/h (0 Bft)
28.08.2016 06:21 16,0 C 16,1 C 93 % 1015,5 hPa 0,0 mm 0,0 km/h (0 Bft) W-SW 244 0 min 0,000 mm 0,0 UV-I 0 W/m 14,9 C 0,0 km/h (0 Bft)
28.08.2016 06:22 16,0 C 16,0 C 93 % 1015,5 hPa 0,0 mm 0,0 km/h (0 Bft) W-SW 244 0 min 0,000 mm 0,0 UV-I 0 W/m 14,9 C 0,0 km/h (0 Bft)
28.08.2016 06:23 15,9 C 16,0 C 94 % 1015,5 hPa 0,0 mm 0,0 km/h (0 Bft) W-SW 244 0 min 0,000 mm 0,0 UV-I 0 W/m 14,9 C 0,0 km/h (0 Bft)
28.08.2016 06:24 15,9 C 15,9 C 94 % 1015,5 hPa 0,0 mm 0,0 km/h (0 Bft) W-SW 244 0 min 0,000 mm 0,0 UV-I 0 W/m 14,9 C 0,0 km/h (0 Bft)
28.08.2016 06:25 15,9 C 16,0 C 94 % 1015,5 hPa 0,0 mm 0,0 km/h (0 Bft) W-SW 244 0 min 0,000 mm 0,0 UV-I 0 W/m 14,9 C 0,0 km/h (0 Bft)
28.08.2016 06:26 15,9 C 15,9 C 94 % 1015,5 hPa 0,0 mm 0,0 km/h (0 Bft) W-SW 244 0 min 0,000 mm 0,0 UV-I 0 W/m 14,9 C 0,0 km/h (0 Bft)
28.08.2016 06:27 15,9 C 15,9 C 94 % 1015,5 hPa 0,0 mm 0,0 km/h (0 Bft) W-SW 244 0 min 0,000 mm 0,0 UV-I 5 W/m 14,9 C 0,0 km/h (0 Bft)
28.08.2016 06:28 16,0 C 16,0 C 94 % 1015,5 hPa 0,0 mm 0,0 km/h (0 Bft) W-SW 244 0 min 0,000 mm 0,0 UV-I 5 W/m 15,0 C 0,0 km/h (0 Bft)
28.08.2016 06:29 16,0 C 16,1 C 95 % 1015,6 hPa 0,0 mm 0,0 km/h (0 Bft) W-SW 244 0 min 0,000 mm 0,0 UV-I 5 W/m 15,2 C 0,0 km/h (0 Bft)
28.08.2016 06:30 16,0 C 16,0 C 94 % 1015,6 hPa 0,0 mm 0,0 km/h (0 Bft) W-SW 244 0 min 0,000 mm 0,0 UV-I 5 W/m 15,0 C 0,0 km/h (0 Bft)
28.08.2016 06:31 15,9 C 16,0 C 94 % 1015,6 hPa 0,0 mm 0,0 km/h (0 Bft) W-SW 244 0 min 0,000 mm 0,0 UV-I 5 W/m 14,9 C 0,0 km/h (0 Bft)
28.08.2016 06:32 15,9 C 16,0 C 94 % 1015,5 hPa 0,0 mm 0,0 km/h (0 Bft) W-SW 244 0 min 0,000 mm 0,0 UV-I 7 W/m 14,9 C 0,0 km/h (0 Bft)
28.08.2016 06:33 16,0 C 16,0 C 94 % 1015,6 hPa 0,0 mm 2,1 km/h (1 Bft) S 191 0 min 0,000 mm 0,0 UV-I 7 W/m 15,0 C 4,8 km/h (1 Bft)
28.08.2016 06:34 16,1 C 16,1 C 95 % 1015,5 hPa 0,0 mm 3,0 km/h (1 Bft) S 177 0 min 0,000 mm 0,0 UV-I 7 W/m 15,3 C 4,8 km/h (1 Bft)
28.08.2016 06:35 16,1 C 16,1 C 94 % 1015,6 hPa 0,0 mm 0,2 km/h (0 Bft) S 177 0 min 0,000 mm 0,0 UV-I 7 W/m 15,1 C 1,6 km/h (1 Bft)
28.08.2016 06:36 16,1 C 16,1 C 94 % 1015,6 hPa 0,0 mm 0,0 km/h (0 Bft) S 177 0 min 0,000 mm 0,0 UV-I 7 W/m 15,1 C 0,0 km/h (0 Bft)
28.08.2016 06:37 16,1 C 16,2 C 94 % 1015,6 hPa 0,0 mm 0,4 km/h (0 Bft) S 177 0 min 0,000 mm 0,0 UV-I 9 W/m 15,1 C 1,6 km/h (1 Bft)
28.08.2016 06:38 16,1 C 16,1 C 93 % 1015,7 hPa 0,0 mm 0,0 km/h (0 Bft) S 177 0 min 0,000 mm 0,0 UV-I 9 W/m 15,0 C 0,0 km/h (0 Bft)
28.08.2016 06:39 16,0 C 16,1 C 93 % 1015,7 hPa 0,0 mm 0,0 km/h (0 Bft) S 177 0 min 0,000 mm 0,0 UV-I 11 W/m 14,9 C 0,0 km/h (0 Bft)
28.08.2016 06:40 15,9 C 16,0 C 93 % 1015,7 hPa 0,0 mm 0,0 km/h (0 Bft) S 177 1 min 0,000 mm 0,0 UV-I 11 W/m 14,8 C 0,0 km/h (0 Bft)
28.08.2016 06:41 15,9 C 15,9 C 94 % 1015,6 hPa 0,0 mm 1,5 km/h (1 Bft) S 177 1 min 0,000 mm 0,0 UV-I 11 W/m 14,9 C 3,2 km/h (1 Bft)
28.08.2016 06:42 15,9 C 15,9 C 94 % 1015,7 hPa 0,0 mm 1,7 km/h (1 Bft) S 177 1 min 0,000 mm 0,0 UV-I 12 W/m 14,9 C 3,2 km/h (1 Bft)
28.08.2016 06:43 15,9 C 15,9 C 94 % 1015,7 hPa 0,0 mm 0,3 km/h (0 Bft) S 177 0 min 0,000 mm 0,0 UV-I 12 W/m 14,9 C 1,6 km/h (1 Bft)
28.08.2016 06:44 15,9 C 15,9 C 94 % 1015,7 hPa 0,0 mm 1,5 km/h (1 Bft) S 177 0 min 0,000 mm 0,0 UV-I 14 W/m 14,9 C 3,2 km/h (1 Bft)
28.08.2016 06:45 16,1 C 16,1 C 95 % 1015,7 hPa 0,0 mm 2,4 km/h (1 Bft) W 275 0 min 0,000 mm 0,0 UV-I 16 W/m 15,3 C 9,7 km/h (2 Bft)
28.08.2016 06:46 16,2 C 16,2 C 94 % 1015,7 hPa 0,0 mm 2,3 km/h (1 Bft) W 280 0 min 0,000 mm 0,0 UV-I 16 W/m 15,2 C 6,4 km/h (2 Bft)
28.08.2016 06:47 16,1 C 16,2 C 93 % 1015,7 hPa 0,0 mm 2,2 km/h (1 Bft) SO 131 0 min 0,000 mm 0,0 UV-I 18 W/m 15,0 C 6,4 km/h (2 Bft)
28.08.2016 06:48 16,1 C 16,1 C 93 % 1015,6 hPa 0,0 mm 3,0 km/h (1 Bft) SO 131 0 min 0,000 mm 0,0 UV-I 18 W/m 15,0 C 3,2 km/h (1 Bft)
28.08.2016 06:49 16,2 C 16,2 C 94 % 1015,6 hPa 0,0 mm 2,8 km/h (1 Bft) SO 132 0 min 0,000 mm 0,0 UV-I 19 W/m 15,2 C 3,2 km/h (1 Bft)
28.08.2016 06:50 16,3 C 16,3 C 94 % 1015,6 hPa 0,0 mm 2,5 km/h (1 Bft) S-SO 155 0 min 0,000 mm 0,0 UV-I 19 W/m 15,3 C 3,2 km/h (1 Bft)
28.08.2016 06:51 16,4 C 16,4 C 94 % 1015,6 hPa 0,0 mm 0,9 km/h (0 Bft) S-SO 154 0 min 0,000 mm 0,0 UV-I 21 W/m 15,4 C 1,6 km/h (1 Bft)
28.08.2016 06:52 16,7 C 16,7 C 93 % 1015,6 hPa 0,0 mm 0,9 km/h (0 Bft) S-SO 154 0 min 0,000 mm 0,0 UV-I 21 W/m 15,6 C 1,6 km/h (1 Bft)
28.08.2016 06:53 16,8 C 16,8 C 92 % 1015,7 hPa 0,0 mm 0,5 km/h (0 Bft) S-SO 154 0 min 0,000 mm 0,0 UV-I 21 W/m 15,5 C 1,6 km/h (1 Bft)
28.08.2016 06:54 16,8 C 16,8 C 92 % 1015,7 hPa 0,0 mm 0,0 km/h (0 Bft) S-SO 154 0 min 0,000 mm 0,0 UV-I 23 W/m 15,5 C 0,0 km/h (0 Bft)
28.08.2016 06:55 16,7 C 16,8 C 91 % 1015,7 hPa 0,0 mm 1,7 km/h (1 Bft) S-SO 155 0 min 0,000 mm 0,0 UV-I 23 W/m 15,2 C 3,2 km/h (1 Bft)
28.08.2016 06:56 16,6 C 16,7 C 91 % 1015,7 hPa 0,0 mm 0,5 km/h (0 Bft) S-SO 155 0 min 0,000 mm 0,0 UV-I 23 W/m 15,1 C 1,6 km/h (1 Bft)
28.08.2016 06:57 16,5 C 16,6 C 91 % 1015,7 hPa 0,0 mm 1,2 km/h (1 Bft) S-SO 155 0 min 0,000 mm 0,0 UV-I 23 W/m 15,0 C 1,6 km/h (1 Bft)
28.08.2016 06:58 16,4 C 16,5 C 92 % 1015,7 hPa 0,0 mm 2,3 km/h (1 Bft) S-SO 155 0 min 0,000 mm 0,0 UV-I 23 W/m 15,1 C 4,8 km/h (1 Bft)
28.08.2016 06:59 16,6 C 16,6 C 92 % 1015,7 hPa 0,0 mm 2,8 km/h (1 Bft) S 190 0 min 0,000 mm 0,0 UV-I 25 W/m 15,3 C 4,8 km/h (1 Bft)
28.08.2016 07:00 16,8 C 16,8 C 92 % 1015,7 hPa 0,0 mm 0,4 km/h (0 Bft) S 190 0 min 0,000 mm 0,0 UV-I 25 W/m 15,5 C 1,6 km/h (1 Bft)
28.08.2016 07:01 16,9 C 16,9 C 91 % 1015,7 hPa 0,0 mm 0,8 km/h (0 Bft) S 190 0 min 0,000 mm 0,0 UV-I 25 W/m 15,4 C 1,6 km/h (1 Bft)
28.08.2016 07:03 16,8 C 16,9 C 90 % 1015,7 hPa 0,0 mm 0,2 km/h (0 Bft) S 190 0 min 0,000 mm 0,0 UV-I 25 W/m 15,1 C 1,6 km/h (1 Bft)
28.08.2016 07:04 16,7 C 16,8 C 91 % 1015,7 hPa 0,0 mm 0,9 km/h (0 Bft) S 190 0 min 0,000 mm 0,0 UV-I 25 W/m 15,2 C 1,6 km/h (1 Bft)
28.08.2016 07:05 16,7 C 16,7 C 91 % 1015,7 hPa 0,0 mm 2,1 km/h (1 Bft) S 190 0 min 0,000 mm 0,0 UV-I 25 W/m 15,2 C 3,2 km/h (1 Bft)
28.08.2016 07:06 16,7 C 16,7 C 91 % 1015,6 hPa 0,0 mm 0,0 km/h (0 Bft) S 190 0 min 0,000 mm 0,0 UV-I 26 W/m 15,2 C 0,0 km/h (0 Bft)
28.08.2016 07:07 16,8 C 16,8 C 92 % 1015,6 hPa 0,0 mm 0,1 km/h (0 Bft) S 190 0 min 0,000 mm 0,0 UV-I 26 W/m 15,5 C 1,6 km/h (1 Bft)
28.08.2016 07:09 17,2 C 17,2 C 91 % 1015,7 hPa 0,0 mm 0,3 km/h (0 Bft) S 190 0 min 0,000 mm 0,0 UV-I 26 W/m 15,7 C 1,6 km/h (1 Bft)
28.08.2016 07:10 17,2 C 17,2 C 91 % 1015,7 hPa 0,0 mm 0,2 km/h (0 Bft) S 190 0 min 0,000 mm 0,0 UV-I 26 W/m 15,7 C 1,6 km/h (1 Bft)
28.08.2016 07:11 17,2 C 17,2 C 90 % 1015,7 hPa 0,0 mm 0,3 km/h (0 Bft) S 190 0 min 0,000 mm 0,0 UV-I 26 W/m 15,5 C 1,6 km/h (1 Bft)
28.08.2016 07:12 17,2 C 17,2 C 90 % 1015,6 hPa 0,0 mm 0,9 km/h (0 Bft) S 190 0 min 0,000 mm 0,0 UV-I 26 W/m 15,5 C 1,6 km/h (1 Bft)
28.08.2016 07:13 17,2 C 17,2 C 90 % 1015,7 hPa 0,0 mm 0,0 km/h (0 Bft) S 190 0 min 0,000 mm 0,0 UV-I 26 W/m 15,5 C 0,0 km/h (0 Bft)
28.08.2016 07:14 17,1 C 17,2 C 90 % 1015,7 hPa 0,0 mm 0,0 km/h (0 Bft) S 190 0 min 0,000 mm 0,0 UV-I 28 W/m 15,4 C 0,0 km/h (0 Bft)
28.08.2016 07:15 16,9 C 17,1 C 90 % 1015,7 hPa 0,0 mm 0,0 km/h (0 Bft) S 190 0 min 0,000 mm 0,0 UV-I 28 W/m 15,2 C 0,0 km/h (0 Bft)
28.08.2016 07:16 16,8 C 16,9 C 90 % 1015,7 hPa 0,0 mm 0,0 km/h (0 Bft) S 190 0 min 0,000 mm 0,0 UV-I 28 W/m 15,1 C 0,0 km/h (0 Bft)
28.08.2016 07:17 16,7 C 16,8 C 91 % 1015,7 hPa 0,0 mm 0,0 km/h (0 Bft) S 190 0 min 0,000 mm 0,0 UV-I 28 W/m 15,2 C 0,0 km/h (0 Bft)
28.08.2016 07:18 16,7 C 16,7 C 91 % 1015,7 hPa 0,0 mm 1,4 km/h (1 Bft) S-SO 159 0 min 0,000 mm 0,0 UV-I 28 W/m 15,2 C 3,2 km/h (1 Bft)
28.08.2016 07:19 16,6 C 16,7 C 91 % 1015,7 hPa 0,0 mm 0,9 km/h (0 Bft) S-SO 159 0 min 0,000 mm 0,0 UV-I 28 W/m 15,1 C 3,2 km/h (1 Bft)
28.08.2016 07:20 16,7 C 16,7 C 92 % 1015,7 hPa 0,0 mm 0,0 km/h (0 Bft) S-SO 159 0 min 0,000 mm 0,0 UV-I 28 W/m 15,4 C 0,0 km/h (0 Bft)
28.08.2016 07:21 16,7 C 16,7 C 92 % 1015,7 hPa 0,0 mm 1,0 km/h (0 Bft) NW 306 0 min 0,000 mm 0,0 UV-I 28 W/m 15,4 C 3,2 km/h (1 Bft)
28.08.2016 07:22 16,7 C 16,7 C 91 % 1015,7 hPa 0,0 mm 3,0 km/h (1 Bft) S-SO 160 0 min 0,000 mm 0,0 UV-I 30 W/m 15,2 C 6,4 km/h (2 Bft)
28.08.2016 07:23 16,6 C 16,7 C 92 % 1015,8 hPa 0,0 mm 0,4 km/h (0 Bft) S-SO 160 0 min 0,000 mm 0,0 UV-I 30 W/m 15,3 C 1,6 km/h (1 Bft)
28.08.2016 07:24 16,7 C 16,7 C 92 % 1015,7 hPa 0,0 mm 1,8 km/h (1 Bft) S-SO 160 0 min 0,000 mm 0,0 UV-I 32 W/m 15,4 C 3,2 km/h (1 Bft)
28.08.2016 07:25 16,8 C 16,8 C 92 % 1015,7 hPa 0,0 mm 1,1 km/h (1 Bft) S-SO 159 0 min 0,000 mm 0,0 UV-I 33 W/m 15,5 C 3,2 km/h (1 Bft)
28.08.2016 07:26 16,8 C 16,8 C 91 % 1015,8 hPa 0,0 mm 1,2 km/h (1 Bft) S-SO 159 0 min 0,000 mm 0,0 UV-I 35 W/m 15,3 C 3,2 km/h (1 Bft)
28.08.2016 07:27 16,8 C 16,8 C 91 % 1015,8 hPa 0,0 mm 0,5 km/h (0 Bft) S-SO 159 0 min 0,000 mm 0,0 UV-I 35 W/m 15,3 C 3,2 km/h (1 Bft)
28.08.2016 07:28 16,8 C 16,8 C 91 % 1015,8 hPa 0,0 mm 1,0 km/h (0 Bft) S-SO 159 0 min 0,000 mm 0,0 UV-I 37 W/m 15,3 C 1,6 km/h (1 Bft)
28.08.2016 07:29 16,7 C 16,8 C 91 % 1015,8 hPa 0,0 mm 0,0 km/h (0 Bft) S-SO 159 0 min 0,000 mm 0,0 UV-I 39 W/m 15,2 C 0,0 km/h (0 Bft)
28.08.2016 07:30 16,8 C 16,8 C 91 % 1015,8 hPa 0,0 mm 0,1 km/h (0 Bft) S-SO 159 0 min 0,000 mm 0,0 UV-I 42 W/m 15,3 C 1,6 km/h (1 Bft)
28.08.2016 07:31 16,8 C 16,8 C 91 % 1015,8 hPa 0,0 mm 0,0 km/h (0 Bft) S-SO 159 0 min 0,000 mm 0,0 UV-I 42 W/m 15,3 C 0,0 km/h (0 Bft)
28.08.2016 07:32 16,8 C 16,8 C 91 % 1015,8 hPa 0,0 mm 0,0 km/h (0 Bft) S-SO 159 0 min 0,000 mm 0,0 UV-I 44 W/m 15,3 C 0,0 km/h (0 Bft)
28.08.2016 07:33 16,9 C 16,9 C 91 % 1015,8 hPa 0,0 mm 0,0 km/h (0 Bft) S-SO 159 0 min 0,000 mm 0,0 UV-I 46 W/m 15,4 C 0,0 km/h (0 Bft)
28.08.2016 07:34 16,9 C 16,9 C 91 % 1015,8 hPa 0,0 mm 0,0 km/h (0 Bft) S-SO 159 0 min 0,000 mm 0,0 UV-I 47 W/m 15,4 C 0,0 km/h (0 Bft)
28.08.2016 07:35 17,0 C 17,0 C 91 % 1015,8 hPa 0,0 mm 0,0 km/h (0 Bft) S-SO 159 0 min 0,000 mm 0,0 UV-I 49 W/m 15,5 C 0,0 km/h (0 Bft)
28.08.2016 07:36 17,1 C 17,1 C 91 % 1015,8 hPa 0,0 mm 0,0 km/h (0 Bft) S-SO 159 0 min 0,000 mm 0,0 UV-I 51 W/m 15,6 C 0,0 km/h (0 Bft)
28.08.2016 07:37 17,1 C 17,1 C 91 % 1015,8 hPa 0,0 mm 0,0 km/h (0 Bft) S-SO 159 0 min 0,000 mm 0,0 UV-I 49 W/m 15,6 C 0,0 km/h (0 Bft)
28.08.2016 07:38 17,1 C 17,1 C 91 % 1015,8 hPa 0,0 mm 0,0 km/h (0 Bft) S-SO 159 0 min 0,000 mm 0,0 UV-I 53 W/m 15,6 C 0,0 km/h (0 Bft)
28.08.2016 07:39 17,2 C 17,2 C 91 % 1015,8 hPa 0,0 mm 0,0 km/h (0 Bft) S-SO 153 0 min 0,000 mm 0,0 UV-I 54 W/m 15,7 C 0,0 km/h (0 Bft)
28.08.2016 07:40 17,2 C 17,2 C 91 % 1015,8 hPa 0,0 mm 0,0 km/h (0 Bft) S-SO 153 0 min 0,000 mm 0,0 UV-I 60 W/m 15,7 C 0,0 km/h (0 Bft)
28.08.2016 07:41 17,3 C 17,3 C 91 % 1015,8 hPa 0,0 mm 0,0 km/h (0 Bft) S-SO 153 0 min 0,000 mm 0,0 UV-I 63 W/m 15,8 C 0,0 km/h (0 Bft)
28.08.2016 07:42 17,6 C 17,6 C 90 % 1015,8 hPa 0,0 mm 0,0 km/h (0 Bft) S-SO 153 0 min 0,000 mm 0,0 UV-I 70 W/m 15,9 C 0,0 km/h (0 Bft)
28.08.2016 07:43 17,8 C 17,8 C 90 % 1015,8 hPa 0,0 mm 0,0 km/h (0 Bft) S-SO 153 0 min 0,000 mm 0,5 UV-I 88 W/m 16,1 C 0,0 km/h (0 Bft)
28.08.2016 07:44 18,0 C 18,0 C 90 % 1015,8 hPa 0,0 mm 0,0 km/h (0 Bft) S-SO 153 1 min 0,000 mm 0,5 UV-I 118 W/m 16,3 C 0,0 km/h (0 Bft)
28.08.2016 07:45 18,1 C 18,1 C 90 % 1015,8 hPa 0,0 mm 0,0 km/h (0 Bft) S-SO 153 1 min 0,000 mm 0,5 UV-I 128 W/m 16,4 C 0,0 km/h (0 Bft)
28.08.2016 07:46 17,9 C 18,1 C 89 % 1015,8 hPa 0,0 mm 0,0 km/h (0 Bft) S-SO 153 1 min 0,000 mm 0,5 UV-I 134 W/m 16,1 C 0,0 km/h (0 Bft)
28.08.2016 07:47 17,9 C 17,9 C 89 % 1015,8 hPa 0,0 mm 0,0 km/h (0 Bft) S-SO 153 1 min 0,000 mm 0,5 UV-I 139 W/m 16,1 C 0,0 km/h (0 Bft)
28.08.2016 07:48 17,8 C 17,9 C 90 % 1015,9 hPa 0,0 mm 0,0 km/h (0 Bft) S-SO 153 1 min 0,000 mm 0,5 UV-I 132 W/m 16,1 C 0,0 km/h (0 Bft)
28.08.2016 07:49 17,7 C 17,8 C 90 % 1015,9 hPa 0,0 mm 0,0 km/h (0 Bft) S-SO 153 1 min 0,000 mm 0,5 UV-I 135 W/m 16,0 C 0,0 km/h (0 Bft)
28.08.2016 07:50 17,7 C 17,7 C 90 % 1015,9 hPa 0,0 mm 0,0 km/h (0 Bft) S-SO 153 1 min 0,000 mm 0,5 UV-I 142 W/m 16,0 C 0,0 km/h (0 Bft)
28.08.2016 07:51 17,7 C 17,7 C 90 % 1015,8 hPa 0,0 mm 0,0 km/h (0 Bft) S-SO 153 1 min 0,000 mm 0,5 UV-I 153 W/m 16,0 C 0,0 km/h (0 Bft)
28.08.2016 07:52 17,8 C 17,8 C 90 % 1015,8 hPa 0,0 mm 0,0 km/h (0 Bft) S-SO 153 1 min 0,000 mm 0,5 UV-I 155 W/m 16,1 C 0,0 km/h (0 Bft)
28.08.2016 07:53 18,2 C 18,2 C 89 % 1015,9 hPa 0,0 mm 0,0 km/h (0 Bft) S-SO 153 1 min 0,000 mm 0,6 UV-I 160 W/m 16,4 C 0,0 km/h (0 Bft)
28.08.2016 07:54 18,3 C 18,3 C 89 % 1015,8 hPa 0,0 mm 0,0 km/h (0 Bft) S-SO 153 1 min 0,000 mm 0,6 UV-I 160 W/m 16,5 C 0,0 km/h (0 Bft)
28.08.2016 07:55 18,3 C 18,3 C 89 % 1015,8 hPa 0,0 mm 0,0 km/h (0 Bft) S-SO 153 1 min 0,000 mm 0,6 UV-I 165 W/m 16,5 C 0,0 km/h (0 Bft)
28.08.2016 07:56 18,3 C 18,3 C 89 % 1015,8 hPa 0,0 mm 0,0 km/h (0 Bft) S-SO 153 1 min 0,000 mm 0,6 UV-I 163 W/m 16,5 C 0,0 km/h (0 Bft)
28.08.2016 07:57 18,3 C 18,3 C 89 % 1015,8 hPa 0,0 mm 0,0 km/h (0 Bft) S-SO 153 1 min 0,000 mm 0,6 UV-I 151 W/m 16,5 C 0,0 km/h (0 Bft)
28.08.2016 07:58 18,5 C 18,5 C 90 % 1015,8 hPa 0,0 mm 0,0 km/h (0 Bft) S-SO 153 1 min 0,000 mm 0,6 UV-I 134 W/m 16,8 C 0,0 km/h (0 Bft)
28.08.2016 07:59 18,6 C 18,6 C 89 % 1015,8 hPa 0,0 mm 0,0 km/h (0 Bft) S-SO 153 0 min 0,000 mm 0,6 UV-I 111 W/m 16,7 C 0,0 km/h (0 Bft)
28.08.2016 08:00 18,7 C 18,7 C 90 % 1015,8 hPa 0,0 mm 0,0 km/h (0 Bft) S-SO 153 1 min 0,025 mm 0,6 UV-I 162 W/m 17,0 C 0,0 km/h (0 Bft)
28.08.2016 08:02 18,8 C 18,8 C 88 % 1015,8 hPa 0,0 mm 0,0 km/h (0 Bft) S-SO 153 0 min 0,000 mm 0,6 UV-I 134 W/m 16,8 C 0,0 km/h (0 Bft)
28.08.2016 08:04 19,1 C 19,1 C 90 % 1015,8 hPa 0,0 mm 0,0 km/h (0 Bft) S-SO 153 2 min 0,000 mm 0,7 UV-I 185 W/m 17,4 C 0,0 km/h (0 Bft)
28.08.2016 08:05 19,2 C 19,2 C 89 % 1015,8 hPa 0,0 mm 0,0 km/h (0 Bft) S-SO 153 1 min 0,000 mm 0,7 UV-I 171 W/m 17,3 C 0,0 km/h (0 Bft)
28.08.2016 08:06 19,4 C 19,4 C 88 % 1015,8 hPa 0,0 mm 0,0 km/h (0 Bft) S-SO 153 1 min 0,000 mm 0,7 UV-I 190 W/m 17,4 C 0,0 km/h (0 Bft)
28.08.2016 08:07 19,6 C 19,6 C 86 % 1015,8 hPa 0,0 mm 0,0 km/h (0 Bft) S-SO 153 1 min 0,000 mm 0,7 UV-I 178 W/m 17,2 C 0,0 km/h (0 Bft)
28.08.2016 08:08 19,7 C 19,7 C 84 % 1015,8 hPa 0,0 mm 0,0 km/h (0 Bft) S-SO 153 1 min 0,000 mm 0,7 UV-I 171 W/m 16,9 C 0,0 km/h (0 Bft)
28.08.2016 08:09 19,7 C 19,7 C 84 % 1015,8 hPa 0,0 mm 0,0 km/h (0 Bft) S-SO 153 0 min 0,000 mm 0,7 UV-I 91 W/m 16,9 C 0,0 km/h (0 Bft)
28.08.2016 08:10 19,7 C 19,7 C 83 % 1015,8 hPa 0,0 mm 0,0 km/h (0 Bft) S-SO 153 0 min 0,000 mm 0,7 UV-I 121 W/m 16,7 C 0,0 km/h (0 Bft)
28.08.2016 08:11 19,7 C 19,7 C 84 % 1015,8 hPa 0,0 mm 0,0 km/h (0 Bft) S-SO 153 0 min 0,000 mm 0,7 UV-I 105 W/m 16,9 C 0,0 km/h (0 Bft)
28.08.2016 08:12 19,7 C 19,7 C 84 % 1015,8 hPa 0,0 mm 0,0 km/h (0 Bft) S-SO 153 1 min 0,000 mm 0,7 UV-I 162 W/m 16,9 C 0,0 km/h (0 Bft)
28.08.2016 08:13 19,7 C 19,7 C 85 % 1015,8 hPa 0,0 mm 0,0 km/h (0 Bft) S-SW 207 0 min 0,000 mm 0,8 UV-I 149 W/m 17,1 C 0,0 km/h (0 Bft)
28.08.2016 08:14 19,7 C 19,7 C 85 % 1015,8 hPa 0,0 mm 0,0 km/h (0 Bft) S-SW 207 0 min 0,000 mm 0,8 UV-I 77 W/m 17,1 C 0,0 km/h (0 Bft)
28.08.2016 08:15 19,7 C 19,7 C 83 % 1015,8 hPa 0,0 mm 0,0 km/h (0 Bft) S-SW 207 0 min 0,000 mm 0,8 UV-I 70 W/m 16,7 C 0,0 km/h (0 Bft)
28.08.2016 08:16 19,7 C 19,8 C 84 % 1015,8 hPa 0,0 mm 0,0 km/h (0 Bft) S-SW 207 0 min 0,000 mm 0,8 UV-I 70 W/m 16,9 C 0,0 km/h (0 Bft)
28.08.2016 08:17 19,7 C 19,8 C 85 % 1015,8 hPa 0,0 mm 0,0 km/h (0 Bft) S-SW 208 1 min 0,000 mm 0,9 UV-I 209 W/m 17,1 C 0,0 km/h (0 Bft)
28.08.2016 08:18 19,8 C 19,8 C 86 % 1015,8 hPa 0,0 mm 0,0 km/h (0 Bft) S-SW 208 1 min 0,000 mm 0,9 UV-I 209 W/m 17,4 C 0,0 km/h (0 Bft)
28.08.2016 08:19 19,7 C 19,8 C 86 % 1015,8 hPa 0,0 mm 0,0 km/h (0 Bft) S-SW 208 1 min 0,000 mm 0,9 UV-I 211 W/m 17,3 C 0,0 km/h (0 Bft)
28.08.2016 08:20 19,7 C 19,7 C 85 % 1015,7 hPa 0,0 mm 0,0 km/h (0 Bft) S-SW 207 1 min 0,000 mm 0,9 UV-I 218 W/m 17,1 C 0,0 km/h (0 Bft)
28.08.2016 08:21 19,8 C 19,8 C 83 % 1015,8 hPa 0,0 mm 3,7 km/h (1 Bft) SO 137 1 min 0,000 mm 1,0 UV-I 218 W/m 16,8 C 4,8 km/h (1 Bft)
28.08.2016 08:22 19,8 C 19,8 C 82 % 1015,8 hPa 0,0 mm 4,0 km/h (1 Bft) SO 137 1 min 0,000 mm 1,0 UV-I 193 W/m 16,6 C 4,8 km/h (1 Bft)
28.08.2016 08:23 19,9 C 19,9 C 82 % 1015,7 hPa 0,0 mm 3,4 km/h (1 Bft) SO 135 1 min 0,000 mm 1,0 UV-I 195 W/m 16,7 C 4,8 km/h (1 Bft)
28.08.2016 08:24 19,9 C 19,9 C 83 % 1015,8 hPa 0,0 mm 1,0 km/h (0 Bft) SO 135 1 min 0,000 mm 1,0 UV-I 236 W/m 16,9 C 1,6 km/h (1 Bft)
28.08.2016 08:25 20,1 C 20,1 C 86 % 1015,8 hPa 0,0 mm 0,0 km/h (0 Bft) SO 135 1 min 0,000 mm 1,0 UV-I 237 W/m 17,7 C 0,0 km/h (0 Bft)
28.08.2016 08:26 20,1 C 20,1 C 84 % 1015,8 hPa 0,0 mm 0,6 km/h (0 Bft) SO 135 1 min 0,000 mm 1,0 UV-I 237 W/m 17,3 C 1,6 km/h (1 Bft)
28.08.2016 08:27 20,3 C 20,3 C 86 % 1015,8 hPa 0,0 mm 1,1 km/h (1 Bft) SO 145 1 min 0,000 mm 1,1 UV-I 237 W/m 17,9 C 3,2 km/h (1 Bft)
28.08.2016 08:28 20,3 C 20,3 C 82 % 1015,8 hPa 0,0 mm 5,4 km/h (1 Bft) O-SO 116 1 min 0,000 mm 1,1 UV-I 230 W/m 17,1 C 6,4 km/h (2 Bft)
28.08.2016 08:29 20,2 C 20,3 C 82 % 1015,8 hPa 0,0 mm 2,6 km/h (1 Bft) O-SO 116 0 min 0,000 mm 1,0 UV-I 146 W/m 17,0 C 3,2 km/h (1 Bft)
28.08.2016 08:30 20,2 C 20,2 C 83 % 1015,8 hPa 0,0 mm 1,1 km/h (1 Bft) O-SO 116 1 min 0,000 mm 1,1 UV-I 236 W/m 17,2 C 3,2 km/h (1 Bft)
28.08.2016 08:31 20,2 C 20,2 C 83 % 1015,8 hPa 0,0 mm 3,5 km/h (1 Bft) S 184 1 min 0,000 mm 1,1 UV-I 244 W/m 17,2 C 4,8 km/h (1 Bft)
28.08.2016 08:32 20,3 C 20,3 C 83 % 1015,8 hPa 0,0 mm 2,7 km/h (1 Bft) S 184 1 min 0,000 mm 1,2 UV-I 250 W/m 17,3 C 4,8 km/h (1 Bft)
28.08.2016 08:33 20,6 C 20,6 C 80 % 1015,8 hPa 0,0 mm 0,3 km/h (0 Bft) S 184 1 min 0,000 mm 1,2 UV-I 251 W/m 17,0 C 1,6 km/h (1 Bft)
28.08.2016 08:34 20,6 C 20,6 C 79 % 1015,8 hPa 0,0 mm 1,1 km/h (1 Bft) S 184 1 min 0,000 mm 1,2 UV-I 253 W/m 16,8 C 1,6 km/h (1 Bft)
28.08.2016 08:35 20,7 C 20,7 C 80 % 1015,9 hPa 0,0 mm 0,3 km/h (0 Bft) S 184 1 min 0,000 mm 1,2 UV-I 258 W/m 17,1 C 1,6 km/h (1 Bft)
28.08.2016 08:36 20,7 C 20,7 C 82 % 1015,8 hPa 0,0 mm 0,6 km/h (0 Bft) S 184 1 min 0,000 mm 1,3 UV-I 258 W/m 17,5 C 1,6 km/h (1 Bft)
28.08.2016 08:37 20,8 C 20,8 C 82 % 1015,8 hPa 0,0 mm 0,4 km/h (0 Bft) S 184 1 min 0,000 mm 1,3 UV-I 265 W/m 17,6 C 1,6 km/h (1 Bft)
28.08.2016 08:38 20,8 C 20,8 C 85 % 1015,9 hPa 0,0 mm 1,4 km/h (1 Bft) S 184 1 min 0,000 mm 1,3 UV-I 267 W/m 18,2 C 3,2 km/h (1 Bft)
28.08.2016 08:39 20,9 C 20,9 C 83 % 1015,9 hPa 0,0 mm 3,2 km/h (1 Bft) W 266 1 min 0,000 mm 1,3 UV-I 272 W/m 17,9 C 4,8 km/h (1 Bft)
28.08.2016 08:40 21,1 C 21,1 C 80 % 1015,8 hPa 0,0 mm 4,6 km/h (1 Bft) S-SW 197 1 min 0,000 mm 1,3 UV-I 272 W/m 17,5 C 6,4 km/h (2 Bft)
28.08.2016 08:41 21,1 C 21,1 C 81 % 1015,9 hPa 0,0 mm 3,2 km/h (1 Bft) S 190 1 min 0,000 mm 1,3 UV-I 274 W/m 17,7 C 4,8 km/h (1 Bft)
28.08.2016 08:42 21,0 C 21,1 C 80 % 1015,9 hPa 0,0 mm 4,0 km/h (1 Bft) S-SO 159 1 min 0,000 mm 1,3 UV-I 272 W/m 17,4 C 6,4 km/h (2 Bft)
28.08.2016 08:43 20,9 C 21,0 C 79 % 1015,9 hPa 0,0 mm 3,1 km/h (1 Bft) SO 137 1 min 0,000 mm 1,3 UV-I 274 W/m 17,1 C 6,4 km/h (2 Bft)
28.08.2016 08:44 20,9 C 20,9 C 83 % 1015,9 hPa 0,0 mm 1,4 km/h (1 Bft) SO 137 1 min 0,000 mm 1,4 UV-I 279 W/m 17,9 C 1,6 km/h (1 Bft)
28.08.2016 08:45 20,9 C 20,9 C 84 % 1015,9 hPa 0,0 mm 0,5 km/h (0 Bft) SO 137 1 min 0,000 mm 1,4 UV-I 287 W/m 18,1 C 1,6 km/h (1 Bft)
28.08.2016 08:46 20,9 C 20,9 C 82 % 1015,9 hPa 0,0 mm 1,4 km/h (1 Bft) SO 137 1 min 0,000 mm 1,4 UV-I 279 W/m 17,7 C 3,2 km/h (1 Bft)
28.08.2016 08:47 20,9 C 20,9 C 80 % 1015,9 hPa 0,0 mm 0,2 km/h (0 Bft) SO 137 1 min 0,000 mm 1,4 UV-I 304 W/m 17,3 C 1,6 km/h (1 Bft)
28.08.2016 08:48 20,9 C 20,9 C 82 % 1015,9 hPa 0,0 mm 0,4 km/h (0 Bft) SO 137 1 min 0,000 mm 1,4 UV-I 302 W/m 17,7 C 1,6 km/h (1 Bft)
28.08.2016 08:49 21,0 C 21,0 C 81 % 1015,9 hPa 0,0 mm 0,0 km/h (0 Bft) SO 137 1 min 0,000 mm 1,4 UV-I 260 W/m 17,6 C 0,0 km/h (0 Bft)
28.08.2016 08:50 21,1 C 21,1 C 82 % 1015,9 hPa 0,0 mm 0,3 km/h (0 Bft) SO 137 1 min 0,000 mm 1,4 UV-I 309 W/m 17,9 C 1,6 km/h (1 Bft)
28.08.2016 08:51 21,1 C 21,1 C 79 % 1015,9 hPa 0,0 mm 0,0 km/h (0 Bft) SO 137 1 min 0,000 mm 1,4 UV-I 281 W/m 17,3 C 0,0 km/h (0 Bft)
28.08.2016 08:52 21,1 C 21,2 C 78 % 1015,9 hPa 0,0 mm 0,6 km/h (0 Bft) SO 137 0 min 0,000 mm 1,4 UV-I 200 W/m 17,1 C 3,2 km/h (1 Bft)
28.08.2016 08:53 21,2 C 21,2 C 78 % 1015,9 hPa 0,0 mm 1,2 km/h (1 Bft) SO 137 1 min 0,000 mm 1,4 UV-I 257 W/m 17,2 C 1,6 km/h (1 Bft)
28.08.2016 08:54 21,2 C 21,2 C 79 % 1015,9 hPa 0,0 mm 0,4 km/h (0 Bft) SO 137 0 min 0,000 mm 1,3 UV-I 171 W/m 17,4 C 1,6 km/h (1 Bft)
28.08.2016 08:55 21,2 C 21,2 C 81 % 1015,8 hPa 0,0 mm 0,0 km/h (0 Bft) SO 137 0 min 0,000 mm 1,3 UV-I 134 W/m 17,8 C 0,0 km/h (0 Bft)
28.08.2016 08:56 21,2 C 21,2 C 79 % 1015,9 hPa 0,0 mm 0,5 km/h (0 Bft) SO 137 0 min 0,000 mm 1,3 UV-I 121 W/m 17,4 C 1,6 km/h (1 Bft)
28.08.2016 08:57 21,1 C 21,2 C 78 % 1015,8 hPa 0,0 mm 1,7 km/h (1 Bft) SO 137 0 min 0,000 mm 1,3 UV-I 114 W/m 17,1 C 3,2 km/h (1 Bft)
28.08.2016 08:58 21,1 C 21,2 C 78 % 1015,8 hPa 0,0 mm 1,1 km/h (1 Bft) SO 137 0 min 0,000 mm 1,3 UV-I 114 W/m 17,1 C 1,6 km/h (1 Bft)
28.08.2016 08:59 21,1 C 21,1 C 79 % 1015,9 hPa 0,0 mm 0,7 km/h (0 Bft) SO 137 0 min 0,000 mm 1,3 UV-I 111 W/m 17,3 C 1,6 km/h (1 Bft)
28.08.2016 09:00 20,9 C 21,1 C 81 % 1015,9 hPa 0,0 mm 0,4 km/h (0 Bft) SO 137 0 min 0,000 mm 1,3 UV-I 107 W/m 17,5 C 1,6 km/h (1 Bft)
28.08.2016 09:01 20,9 C 21,0 C 81 % 1015,9 hPa 0,0 mm 1,4 km/h (1 Bft) SO 137 0 min 0,127 mm 1,3 UV-I 105 W/m 17,5 C 3,2 km/h (1 Bft)
28.08.2016 09:03 20,8 C 20,9 C 80 % 1015,9 hPa 0,0 mm 1,1 km/h (1 Bft) SO 137 0 min 0,000 mm 1,3 UV-I 104 W/m 17,2 C 3,2 km/h (1 Bft)
28.08.2016 09:04 20,8 C 20,8 C 80 % 1015,9 hPa 0,0 mm 1,1 km/h (1 Bft) SO 137 0 min 0,000 mm 1,3 UV-I 105 W/m 17,2 C 3,2 km/h (1 Bft)
28.08.2016 09:05 20,8 C 20,8 C 80 % 1015,9 hPa 0,0 mm 0,1 km/h (0 Bft) SO 137 0 min 0,000 mm 1,3 UV-I 142 W/m 17,2 C 1,6 km/h (1 Bft)
28.08.2016 09:06 20,8 C 20,8 C 79 % 1016,0 hPa 0,0 mm 0,3 km/h (0 Bft) SO 137 0 min 0,000 mm 1,4 UV-I 142 W/m 17,0 C 1,6 km/h (1 Bft)
28.08.2016 09:07 20,8 C 20,8 C 80 % 1016,0 hPa 0,0 mm 0,1 km/h (0 Bft) SO 137 0 min 0,000 mm 1,4 UV-I 116 W/m 17,2 C 1,6 km/h (1 Bft)
28.08.2016 09:08 20,8 C 20,8 C 80 % 1015,9 hPa 0,0 mm 0,4 km/h (0 Bft) SO 137 0 min 0,000 mm 1,4 UV-I 118 W/m 17,2 C 3,2 km/h (1 Bft)
28.08.2016 09:09 20,8 C 20,8 C 80 % 1016,0 hPa 0,0 mm 0,8 km/h (0 Bft) SO 137 0 min 0,000 mm 1,5 UV-I 163 W/m 17,2 C 1,6 km/h (1 Bft)
28.08.2016 09:10 20,8 C 20,8 C 79 % 1016,0 hPa 0,0 mm 0,0 km/h (0 Bft) SO 137 1 min 0,000 mm 1,6 UV-I 239 W/m 17,0 C 0,0 km/h (0 Bft)
28.08.2016 09:11 20,8 C 20,8 C 81 % 1016,0 hPa 0,0 mm 0,0 km/h (0 Bft) SO 137 0 min 0,000 mm 1,5 UV-I 190 W/m 17,4 C 0,0 km/h (0 Bft)
28.08.2016 09:12 20,8 C 20,8 C 79 % 1016,0 hPa 0,0 mm 0,0 km/h (0 Bft) SO 137 0 min 0,000 mm 1,4 UV-I 120 W/m 17,0 C 0,0 km/h (0 Bft)
28.08.2016 09:13 20,8 C 20,8 C 80 % 1016,0 hPa 0,0 mm 0,0 km/h (0 Bft) SO 137 0 min 0,000 mm 1,5 UV-I 120 W/m 17,2 C 0,0 km/h (0 Bft)
28.08.2016 09:14 20,8 C 20,8 C 78 % 1016,0 hPa 0,0 mm 0,0 km/h (0 Bft) SO 137 0 min 0,000 mm 1,5 UV-I 120 W/m 16,8 C 0,0 km/h (0 Bft)
28.08.2016 09:15 20,8 C 20,8 C 79 % 1016,0 hPa 0,0 mm 0,0 km/h (0 Bft) SO 137 0 min 0,000 mm 1,7 UV-I 216 W/m 17,0 C 0,0 km/h (0 Bft)
28.08.2016 09:16 20,8 C 20,8 C 83 % 1016,0 hPa 0,0 mm 0,0 km/h (0 Bft) SO 137 1 min 0,000 mm 1,9 UV-I 388 W/m 17,8 C 0,0 km/h (0 Bft)
28.08.2016 09:17 20,9 C 20,9 C 80 % 1016,1 hPa 0,0 mm 0,0 km/h (0 Bft) SO 137 1 min 0,000 mm 2,0 UV-I 401 W/m 17,3 C 0,0 km/h (0 Bft)
28.08.2016 09:18 21,0 C 21,0 C 79 % 1016,1 hPa 0,0 mm 0,0 km/h (0 Bft) SO 137 1 min 0,000 mm 1,9 UV-I 383 W/m 17,2 C 0,0 km/h (0 Bft)
28.08.2016 09:19 21,0 C 21,0 C 78 % 1016,0 hPa 0,0 mm 0,0 km/h (0 Bft) SO 137 1 min 0,000 mm 1,7 UV-I 383 W/m 17,0 C 0,0 km/h (0 Bft)
28.08.2016 09:20 21,1 C 21,1 C 79 % 1016,0 hPa 0,0 mm 0,0 km/h (0 Bft) SO 137 0 min 0,000 mm 1,8 UV-I 174 W/m 17,3 C 0,0 km/h (0 Bft)
28.08.2016 09:21 21,1 C 21,1 C 80 % 1016,0 hPa 0,0 mm 0,0 km/h (0 Bft) SO 137 1 min 0,000 mm 2,0 UV-I 320 W/m 17,5 C 0,0 km/h (0 Bft)
28.08.2016 09:22 21,2 C 21,2 C 81 % 1016,0 hPa 0,0 mm 0,0 km/h (0 Bft) SO 137 1 min 0,000 mm 2,0 UV-I 397 W/m 17,8 C 0,0 km/h (0 Bft)
28.08.2016 09:23 21,3 C 21,3 C 85 % 1016,1 hPa 0,0 mm 0,0 km/h (0 Bft) SO 137 1 min 0,000 mm 2,2 UV-I 406 W/m 18,7 C 0,0 km/h (0 Bft)
28.08.2016 09:24 21,4 C 21,4 C 82 % 1016,0 hPa 0,0 mm 0,0 km/h (0 Bft) SO 137 1 min 0,000 mm 2,2 UV-I 406 W/m 18,2 C 0,0 km/h (0 Bft)
28.08.2016 09:25 21,6 C 21,6 C 83 % 1016,0 hPa 0,0 mm 0,0 km/h (0 Bft) SO 137 1 min 0,000 mm 2,2 UV-I 406 W/m 18,6 C 0,0 km/h (0 Bft)
28.08.2016 09:26 21,6 C 21,6 C 85 % 1016,0 hPa 0,0 mm 0,0 km/h (0 Bft) SO 137 1 min 0,000 mm 2,2 UV-I 403 W/m 19,0 C 0,0 km/h (0 Bft)
28.08.2016 09:27 21,4 C 21,6 C 79 % 1016,1 hPa 0,0 mm 0,0 km/h (0 Bft) SO 137 1 min 0,000 mm 2,2 UV-I 404 W/m 17,6 C 0,0 km/h (0 Bft)
28.08.2016 09:28 21,4 C 21,4 C 80 % 1016,1 hPa 0,0 mm 0,0 km/h (0 Bft) SO 137 1 min 0,000 mm 2,3 UV-I 406 W/m 17,8 C 0,0 km/h (0 Bft)
28.08.2016 09:29 21,5 C 21,5 C 80 % 1016,1 hPa 0,0 mm 0,0 km/h (0 Bft) SO 137 1 min 0,000 mm 2,3 UV-I 410 W/m 17,9 C 0,0 km/h (0 Bft)
28.08.2016 09:30 21,6 C 21,6 C 80 % 1016,0 hPa 0,0 mm 0,0 km/h (0 Bft) SO 137 1 min 0,000 mm 2,3 UV-I 415 W/m 18,0 C 0,0 km/h (0 Bft)
28.08.2016 09:31 21,6 C 21,6 C 80 % 1016,0 hPa 0,0 mm 0,0 km/h (0 Bft) SO 137 1 min 0,000 mm 2,4 UV-I 420 W/m 18,0 C 0,0 km/h (0 Bft)
28.08.2016 09:32 21,7 C 21,7 C 79 % 1015,9 hPa 0,0 mm 0,0 km/h (0 Bft) SO 137 1 min 0,000 mm 2,4 UV-I 422 W/m 17,9 C 0,0 km/h (0 Bft)
28.08.2016 09:33 21,7 C 21,7 C 79 % 1016,0 hPa 0,0 mm 0,0 km/h (0 Bft) SO 137 1 min 0,000 mm 2,4 UV-I 427 W/m 17,9 C 0,0 km/h (0 Bft)
28.08.2016 09:34 21,8 C 21,8 C 80 % 1016,1 hPa 0,0 mm 0,0 km/h (0 Bft) SO 137 1 min 0,000 mm 2,4 UV-I 431 W/m 18,2 C 0,0 km/h (0 Bft)
28.08.2016 09:35 22,0 C 22,0 C 83 % 1016,1 hPa 0,0 mm 0,0 km/h (0 Bft) SO 137 1 min 0,000 mm 2,5 UV-I 436 W/m 19,0 C 0,0 km/h (0 Bft)
28.08.2016 09:36 22,1 C 22,1 C 81 % 1016,0 hPa 0,0 mm 0,0 km/h (0 Bft) SO 137 1 min 0,000 mm 2,5 UV-I 445 W/m 18,7 C 0,0 km/h (0 Bft)
28.08.2016 09:37 22,3 C 22,3 C 80 % 1016,1 hPa 0,0 mm 0,0 km/h (0 Bft) SO 137 1 min 0,000 mm 2,5 UV-I 459 W/m 18,7 C 0,0 km/h (0 Bft)
28.08.2016 09:38 22,3 C 22,3 C 80 % 1016,1 hPa 0,0 mm 0,0 km/h (0 Bft) SO 137 1 min 0,000 mm 2,5 UV-I 475 W/m 18,7 C 0,0 km/h (0 Bft)
28.08.2016 09:39 22,4 C 22,4 C 81 % 1016,1 hPa 0,0 mm 0,0 km/h (0 Bft) SO 137 1 min 0,000 mm 2,5 UV-I 485 W/m 19,0 C 0,0 km/h (0 Bft)
28.08.2016 09:40 22,6 C 22,6 C 82 % 1016,1 hPa 0,0 mm 0,0 km/h (0 Bft) SO 137 1 min 0,000 mm 2,5 UV-I 434 W/m 19,4 C 0,0 km/h (0 Bft)
28.08.2016 09:41 22,7 C 22,7 C 84 % 1016,1 hPa 0,0 mm 0,0 km/h (0 Bft) SO 137 1 min 0,000 mm 2,1 UV-I 434 W/m 19,9 C 0,0 km/h (0 Bft)
28.08.2016 09:42 22,8 C 22,8 C 81 % 1016,1 hPa 0,0 mm 0,0 km/h (0 Bft) SO 137 0 min 0,000 mm 1,9 UV-I 218 W/m 19,4 C 0,0 km/h (0 Bft)
28.08.2016 09:43 22,7 C 22,8 C 80 % 1016,1 hPa 0,0 mm 0,0 km/h (0 Bft) SO 137 0 min 0,000 mm 1,9 UV-I 206 W/m 19,1 C 0,0 km/h (0 Bft)
28.08.2016 09:44 22,7 C 22,7 C 79 % 1016,1 hPa 0,0 mm 0,0 km/h (0 Bft) SO 137 0 min 0,000 mm 1,8 UV-I 200 W/m 18,9 C 0,0 km/h (0 Bft)
28.08.2016 09:45 22,7 C 22,7 C 80 % 1016,1 hPa 0,0 mm 0,0 km/h (0 Bft) SO 137 0 min 0,000 mm 1,8 UV-I 190 W/m 19,1 C 0,0 km/h (0 Bft)
28.08.2016 09:46 22,6 C 22,7 C 81 % 1016,1 hPa 0,0 mm 0,0 km/h (0 Bft) SO 137 0 min 0,000 mm 1,8 UV-I 186 W/m 19,2 C 0,0 km/h (0 Bft)
28.08.2016 09:47 22,6 C 22,7 C 80 % 1016,1 hPa 0,0 mm 0,0 km/h (0 Bft) SO 137 0 min 0,000 mm 1,8 UV-I 183 W/m 19,0 C 0,0 km/h (0 Bft)
28.08.2016 09:48 22,6 C 22,7 C 79 % 1016,2 hPa 0,0 mm 0,0 km/h (0 Bft) SO 137 0 min 0,000 mm 1,8 UV-I 181 W/m 18,8 C 0,0 km/h (0 Bft)
28.08.2016 09:49 22,6 C 22,7 C 83 % 1016,2 hPa 0,0 mm 0,0 km/h (0 Bft) SO 137 0 min 0,000 mm 1,8 UV-I 183 W/m 19,6 C 0,0 km/h (0 Bft)
28.08.2016 09:50 22,6 C 22,6 C 82 % 1016,2 hPa 0,0 mm 0,0 km/h (0 Bft) SO 137 0 min 0,000 mm 1,8 UV-I 185 W/m 19,4 C 0,0 km/h (0 Bft)
28.08.2016 09:51 22,5 C 22,6 C 83 % 1016,2 hPa 0,0 mm 0,0 km/h (0 Bft) SO 137 0 min 0,000 mm 1,8 UV-I 186 W/m 19,5 C 0,0 km/h (0 Bft)
28.08.2016 09:52 22,6 C 22,6 C 84 % 1016,2 hPa 0,0 mm 0,0 km/h (0 Bft) SO 137 0 min 0,000 mm 1,9 UV-I 192 W/m 19,8 C 0,0 km/h (0 Bft)
28.08.2016 09:53 22,5 C 22,6 C 85 % 1016,2 hPa 0,0 mm 0,0 km/h (0 Bft) SO 137 0 min 0,000 mm 1,9 UV-I 193 W/m 19,8 C 0,0 km/h (0 Bft)
28.08.2016 09:54 22,6 C 22,6 C 81 % 1016,2 hPa 0,0 mm 0,0 km/h (0 Bft) SO 137 0 min 0,000 mm 2,2 UV-I 244 W/m 19,2 C 0,0 km/h (0 Bft)
28.08.2016 09:55 22,7 C 22,7 C 83 % 1016,2 hPa 0,0 mm 0,0 km/h (0 Bft) SO 137 0 min 0,000 mm 2,3 UV-I 244 W/m 19,7 C 0,0 km/h (0 Bft)
28.08.2016 09:56 22,7 C 22,7 C 83 % 1016,2 hPa 0,0 mm 0,0 km/h (0 Bft) SO 137 0 min 0,000 mm 2,5 UV-I 244 W/m 19,7 C 0,0 km/h (0 Bft)
28.08.2016 09:57 22,7 C 22,7 C 82 % 1016,3 hPa 0,0 mm 0,0 km/h (0 Bft) SO 137 0 min 0,000 mm 2,2 UV-I 200 W/m 19,5 C 0,0 km/h (0 Bft)
28.08.2016 09:58 22,8 C 22,8 C 84 % 1016,3 hPa 0,0 mm 0,0 km/h (0 Bft) SO 137 0 min 0,000 mm 2,8 UV-I 200 W/m 19,9 C 0,0 km/h (0 Bft)
28.08.2016 09:59 23,0 C 23,0 C 79 % 1016,3 hPa 0,0 mm 0,0 km/h (0 Bft) SO 137 0 min 0,000 mm 2,9 UV-I 200 W/m 19,2 C 0,0 km/h (0 Bft)
28.08.2016 10:00 23,2 C 23,2 C 80 % 1016,3 hPa 0,0 mm 0,0 km/h (0 Bft) SO 137 0 min 0,000 mm 2,7 UV-I 200 W/m 19,6 C 0,0 km/h (0 Bft)
28.08.2016 10:01 23,4 C 23,4 C 80 % 1016,3 hPa 0,0 mm 0,1 km/h (0 Bft) SO 137 0 min 0,178 mm 2,9 UV-I 200 W/m 19,7 C 1,6 km/h (1 Bft)
28.08.2016 10:02 23,5 C 23,5 C 77 % 1016,3 hPa 0,0 mm 2,2 km/h (1 Bft) SO 137 1 min 0,000 mm 2,9 UV-I 561 W/m 19,2 C 3,2 km/h (1 Bft)
28.08.2016 10:03 23,4 C 23,5 C 77 % 1016,3 hPa 0,0 mm 3,4 km/h (1 Bft) SO 137 1 min 0,000 mm 3,1 UV-I 585 W/m 19,1 C 4,8 km/h (1 Bft)
28.08.2016 10:04 23,4 C 23,4 C 79 % 1016,3 hPa 0,0 mm 1,6 km/h (1 Bft) SO 137 1 min 0,000 mm 3,1 UV-I 591 W/m 19,5 C 1,6 km/h (1 Bft)
28.08.2016 10:05 23,5 C 23,5 C 79 % 1016,2 hPa 0,0 mm 0,5 km/h (0 Bft) SO 137 1 min 0,000 mm 3,2 UV-I 571 W/m 19,6 C 1,6 km/h (1 Bft)
28.08.2016 10:06 23,6 C 23,6 C 81 % 1016,3 hPa 0,0 mm 0,2 km/h (0 Bft) SO 137 1 min 0,000 mm 3,2 UV-I 584 W/m 20,1 C 1,6 km/h (1 Bft)
28.08.2016 10:07 23,8 C 23,8 C 78 % 1016,3 hPa 0,0 mm 1,7 km/h (1 Bft) SW 215 1 min 0,000 mm 3,2 UV-I 580 W/m 19,7 C 3,2 km/h (1 Bft)
28.08.2016 10:08 23,9 C 23,9 C 79 % 1016,3 hPa 0,0 mm 3,4 km/h (1 Bft) SW 236 1 min 0,000 mm 3,2 UV-I 615 W/m 20,0 C 4,8 km/h (1 Bft)
28.08.2016 10:09 24,1 C 24,1 C 78 % 1016,3 hPa 0,0 mm 0,9 km/h (0 Bft) SW 236 1 min 0,000 mm 3,3 UV-I 642 W/m 20,0 C 1,6 km/h (1 Bft)
28.08.2016 10:10 24,2 C 24,2 C 78 % 1016,3 hPa 0,0 mm 2,2 km/h (1 Bft) W-SW 238 1 min 0,000 mm 3,3 UV-I 652 W/m 20,1 C 3,2 km/h (1 Bft)
28.08.2016 10:11 24,3 C 24,3 C 76 % 1016,3 hPa 0,0 mm 2,1 km/h (1 Bft) W-SW 238 1 min 0,000 mm 3,2 UV-I 647 W/m 19,8 C 3,2 km/h (1 Bft)
28.08.2016 10:12 24,4 C 24,4 C 73 % 1016,3 hPa 0,0 mm 0,9 km/h (0 Bft) W-SW 238 1 min 0,000 mm 3,0 UV-I 589 W/m 19,2 C 1,6 km/h (1 Bft)
28.08.2016 10:13 24,6 C 24,6 C 72 % 1016,3 hPa 0,0 mm 0,9 km/h (0 Bft) W-SW 238 1 min 0,000 mm 2,8 UV-I 589 W/m 19,2 C 1,6 km/h (1 Bft)
28.08.2016 10:14 24,7 C 24,7 C 77 % 1016,3 hPa 0,0 mm 2,0 km/h (1 Bft) NW 313 1 min 0,000 mm 2,5 UV-I 459 W/m 20,4 C 3,2 km/h (1 Bft)
28.08.2016 10:15 24,5 C 24,7 C 73 % 1016,2 hPa 0,0 mm 1,1 km/h (1 Bft) NW 323 0 min 0,000 mm 2,1 UV-I 218 W/m 19,3 C 3,2 km/h (1 Bft)
28.08.2016 10:16 24,3 C 24,5 C 73 % 1016,3 hPa 0,0 mm 0,0 km/h (0 Bft) NW 323 0 min 0,000 mm 2,0 UV-I 211 W/m 19,1 C 0,0 km/h (0 Bft)
28.08.2016 10:17 24,2 C 24,3 C 73 % 1016,3 hPa 0,0 mm 0,0 km/h (0 Bft) NW 323 0 min 0,000 mm 2,0 UV-I 211 W/m 19,0 C 0,0 km/h (0 Bft)
28.08.2016 10:18 24,2 C 24,2 C 69 % 1016,3 hPa 0,0 mm 0,0 km/h (0 Bft) NW 323 0 min 0,000 mm 2,0 UV-I 209 W/m 18,1 C 0,0 km/h (0 Bft)
28.08.2016 10:19 24,3 C 24,3 C 70 % 1016,3 hPa 0,0 mm 3,6 km/h (1 Bft) NW 323 0 min 0,000 mm 2,0 UV-I 206 W/m 18,5 C 4,8 km/h (1 Bft)
28.08.2016 10:20 24,3 C 24,3 C 69 % 1016,3 hPa 0,0 mm 2,1 km/h (1 Bft) NW 323 0 min 0,000 mm 2,0 UV-I 207 W/m 18,2 C 3,2 km/h (1 Bft)
28.08.2016 10:21 24,3 C 24,3 C 72 % 1016,3 hPa 0,0 mm 1,1 km/h (1 Bft) NW 323 0 min 0,000 mm 2,1 UV-I 209 W/m 18,9 C 1,6 km/h (1 Bft)
28.08.2016 10:22 24,3 C 24,3 C 71 % 1016,3 hPa 0,0 mm 0,6 km/h (0 Bft) NW 323 0 min 0,000 mm 2,1 UV-I 213 W/m 18,7 C 1,6 km/h (1 Bft)
28.08.2016 10:23 24,2 C 24,3 C 72 % 1016,3 hPa 0,0 mm 1,8 km/h (1 Bft) W 281 0 min 0,000 mm 2,2 UV-I 237 W/m 18,8 C 4,8 km/h (1 Bft)
28.08.2016 10:24 24,2 C 24,2 C 67 % 1016,3 hPa 0,0 mm 3,0 km/h (1 Bft) W-NW 283 0 min 0,000 mm 2,9 UV-I 237 W/m 17,7 C 3,2 km/h (1 Bft)
28.08.2016 10:25 24,3 C 24,3 C 70 % 1016,4 hPa 0,0 mm 0,3 km/h (0 Bft) W-NW 283 1 min 0,000 mm 2,8 UV-I 475 W/m 18,5 C 1,6 km/h (1 Bft)
28.08.2016 10:26 24,4 C 24,4 C 70 % 1016,4 hPa 0,0 mm 1,2 km/h (1 Bft) W-NW 283 0 min 0,000 mm 2,2 UV-I 285 W/m 18,6 C 3,2 km/h (1 Bft)
28.08.2016 10:27 24,3 C 24,4 C 70 % 1016,4 hPa 0,0 mm 0,4 km/h (0 Bft) W-NW 283 0 min 0,000 mm 2,6 UV-I 255 W/m 18,5 C 1,6 km/h (1 Bft)
28.08.2016 10:28 24,2 C 24,3 C 76 % 1016,4 hPa 0,0 mm 0,6 km/h (0 Bft) W-NW 283 0 min 0,000 mm 2,2 UV-I 250 W/m 19,7 C 1,6 km/h (1 Bft)
28.08.2016 10:29 24,2 C 24,2 C 76 % 1016,4 hPa 0,0 mm 2,5 km/h (1 Bft) W-NW 283 0 min 0,000 mm 2,2 UV-I 246 W/m 19,7 C 3,2 km/h (1 Bft)
28.08.2016 10:30 24,1 C 24,2 C 72 % 1016,4 hPa 0,0 mm 2,5 km/h (1 Bft) W-NW 282 0 min 0,000 mm 2,2 UV-I 248 W/m 18,7 C 3,2 km/h (1 Bft)
28.08.2016 10:31 24,1 C 24,1 C 68 % 1016,4 hPa 0,0 mm 2,6 km/h (1 Bft) W-NW 282 0 min 0,000 mm 2,3 UV-I 251 W/m 17,8 C 3,2 km/h (1 Bft)
28.08.2016 10:32 24,1 C 24,1 C 71 % 1016,5 hPa 0,0 mm 2,8 km/h (1 Bft) W-NW 282 0 min 0,000 mm 2,3 UV-I 262 W/m 18,5 C 3,2 km/h (1 Bft)
28.08.2016 10:33 24,1 C 24,1 C 71 % 1016,5 hPa 0,0 mm 2,2 km/h (1 Bft) W-NW 282 0 min 0,000 mm 2,4 UV-I 267 W/m 18,5 C 3,2 km/h (1 Bft)
28.08.2016 10:34 24,1 C 24,1 C 74 % 1016,5 hPa 0,0 mm 2,6 km/h (1 Bft) W 281 0 min 0,000 mm 2,4 UV-I 278 W/m 19,2 C 3,2 km/h (1 Bft)
28.08.2016 10:35 24,1 C 24,1 C 70 % 1016,5 hPa 0,0 mm 1,2 km/h (1 Bft) W 281 0 min 0,000 mm 2,5 UV-I 292 W/m 18,3 C 3,2 km/h (1 Bft)
28.08.2016 10:36 24,1 C 24,1 C 70 % 1016,5 hPa 0,0 mm 2,3 km/h (1 Bft) W 281 0 min 0,000 mm 2,7 UV-I 316 W/m 18,3 C 3,2 km/h (1 Bft)
28.08.2016 10:37 24,2 C 24,2 C 71 % 1016,5 hPa 0,0 mm 0,4 km/h (0 Bft) W 281 0 min 0,000 mm 2,8 UV-I 316 W/m 18,6 C 1,6 km/h (1 Bft)
28.08.2016 10:38 24,2 C 24,2 C 71 % 1016,5 hPa 0,0 mm 2,0 km/h (1 Bft) W 281 1 min 0,000 mm 3,0 UV-I 446 W/m 18,6 C 3,2 km/h (1 Bft)
28.08.2016 10:39 24,3 C 24,3 C 73 % 1016,5 hPa 0,0 mm 0,7 km/h (0 Bft) W 281 1 min 0,000 mm 2,6 UV-I 362 W/m 19,1 C 1,6 km/h (1 Bft)
28.08.2016 10:40 24,3 C 24,3 C 70 % 1016,5 hPa 0,0 mm 2,2 km/h (1 Bft) W-NW 297 0 min 0,000 mm 2,6 UV-I 299 W/m 18,5 C 3,2 km/h (1 Bft)
28.08.2016 10:41 24,3 C 24,3 C 72 % 1016,5 hPa 0,0 mm 2,5 km/h (1 Bft) W-NW 296 0 min 0,000 mm 2,5 UV-I 299 W/m 18,9 C 3,2 km/h (1 Bft)
28.08.2016 10:42 24,3 C 24,3 C 75 % 1016,6 hPa 0,0 mm 0,7 km/h (0 Bft) W-NW 296 0 min 0,000 mm 2,5 UV-I 299 W/m 19,6 C 1,6 km/h (1 Bft)
28.08.2016 10:43 24,3 C 24,3 C 67 % 1016,6 hPa 0,0 mm 1,5 km/h (1 Bft) W-SW 257 0 min 0,000 mm 2,5 UV-I 283 W/m 17,8 C 3,2 km/h (1 Bft)
28.08.2016 10:44 24,3 C 24,3 C 71 % 1016,6 hPa 0,0 mm 4,1 km/h (1 Bft) W-SW 257 0 min 0,000 mm 2,5 UV-I 302 W/m 18,7 C 4,8 km/h (1 Bft)
28.08.2016 10:45 24,3 C 24,3 C 70 % 1016,6 hPa 0,0 mm 3,6 km/h (1 Bft) W-SW 257 0 min 0,000 mm 2,6 UV-I 306 W/m 18,5 C 4,8 km/h (1 Bft)
28.08.2016 10:46 24,3 C 24,3 C 73 % 1016,6 hPa 0,0 mm 2,3 km/h (1 Bft) W-SW 258 0 min 0,000 mm 2,5 UV-I 301 W/m 19,1 C 4,8 km/h (1 Bft)
28.08.2016 10:47 24,3 C 24,3 C 74 % 1016,6 hPa 0,0 mm 1,9 km/h (1 Bft) W-SW 258 0 min 0,000 mm 2,5 UV-I 295 W/m 19,4 C 3,2 km/h (1 Bft)
28.08.2016 10:48 24,3 C 24,3 C 71 % 1016,6 hPa 0,0 mm 2,6 km/h (1 Bft) W-SW 258 0 min 0,000 mm 2,5 UV-I 297 W/m 18,7 C 4,8 km/h (1 Bft)
28.08.2016 10:49 24,3 C 24,3 C 69 % 1016,6 hPa 0,0 mm 4,2 km/h (1 Bft) NW 306 0 min 0,000 mm 2,5 UV-I 306 W/m 18,2 C 6,4 km/h (2 Bft)
28.08.2016 10:50 24,3 C 24,3 C 69 % 1016,6 hPa 0,0 mm 3,7 km/h (1 Bft) W-NW 303 0 min 0,000 mm 2,5 UV-I 304 W/m 18,2 C 6,4 km/h (2 Bft)
28.08.2016 10:51 24,3 C 24,4 C 68 % 1016,6 hPa 0,0 mm 5,2 km/h (1 Bft) W 279 0 min 0,000 mm 2,4 UV-I 297 W/m 18,0 C 8,0 km/h (2 Bft)
28.08.2016 10:52 24,3 C 24,3 C 72 % 1016,6 hPa 0,0 mm 6,1 km/h (2 Bft) W 269 0 min 0,000 mm 2,3 UV-I 287 W/m 18,9 C 9,7 km/h (2 Bft)
28.08.2016 10:53 24,3 C 24,3 C 68 % 1016,6 hPa 0,0 mm 6,6 km/h (2 Bft) W-NW 302 0 min 0,000 mm 2,2 UV-I 276 W/m 18,0 C 9,7 km/h (2 Bft)
28.08.2016 10:54 24,3 C 24,3 C 69 % 1016,6 hPa 0,0 mm 6,4 km/h (2 Bft) W 270 0 min 0,000 mm 2,2 UV-I 264 W/m 18,2 C 9,7 km/h (2 Bft)
28.08.2016 10:55 24,3 C 24,3 C 68 % 1016,7 hPa 0,0 mm 4,4 km/h (1 Bft) W 267 0 min 0,000 mm 2,1 UV-I 234 W/m 18,0 C 6,4 km/h (2 Bft)
28.08.2016 10:56 24,3 C 24,3 C 66 % 1016,6 hPa 0,0 mm 3,8 km/h (1 Bft) W-NW 296 0 min 0,000 mm 2,0 UV-I 234 W/m 17,5 C 4,8 km/h (1 Bft)
28.08.2016 10:57 24,3 C 24,3 C 69 % 1016,6 hPa 0,0 mm 2,1 km/h (1 Bft) W-NW 296 0 min 0,000 mm 1,9 UV-I 225 W/m 18,2 C 3,2 km/h (1 Bft)
28.08.2016 10:58 24,2 C 24,3 C 71 % 1016,6 hPa 0,0 mm 4,3 km/h (1 Bft) W 273 0 min 0,000 mm 1,9 UV-I 225 W/m 18,6 C 6,4 km/h (2 Bft)
28.08.2016 10:59 24,2 C 24,2 C 70 % 1016,6 hPa 0,0 mm 4,7 km/h (1 Bft) W 279 0 min 0,000 mm 1,9 UV-I 221 W/m 18,4 C 6,4 km/h (2 Bft)
28.08.2016 11:00 24,2 C 24,2 C 71 % 1016,6 hPa 0,0 mm 9,2 km/h (2 Bft) W 261 0 min 0,229 mm 1,9 UV-I 223 W/m 18,6 C 14,5 km/h (3 Bft)
28.08.2016 11:01 24,1 C 24,2 C 68 % 1016,7 hPa 0,0 mm 7,8 km/h (2 Bft) W 267 0 min 0,000 mm 1,9 UV-I 232 W/m 17,8 C 17,7 km/h (3 Bft)
28.08.2016 11:02 23,9 C 24,1 C 66 % 1016,6 hPa 0,0 mm 9,7 km/h (2 Bft) W 279 0 min 0,000 mm 1,9 UV-I 229 W/m 17,1 C 14,5 km/h (3 Bft)
28.08.2016 11:03 23,8 C 24,1 C 66 % 1016,6 hPa 0,0 mm 7,7 km/h (2 Bft) W 268 0 min 0,000 mm 1,9 UV-I 220 W/m 17,1 C 14,5 km/h (3 Bft)
28.08.2016 11:04 23,8 C 23,8 C 66 % 1016,6 hPa 0,0 mm 8,4 km/h (2 Bft) W-NW 283 0 min 0,000 mm 1,9 UV-I 218 W/m 17,1 C 12,9 km/h (3 Bft)
28.08.2016 11:05 23,6 C 23,8 C 68 % 1016,6 hPa 0,0 mm 5,4 km/h (1 Bft) W 281 0 min 0,000 mm 2,0 UV-I 250 W/m 17,3 C 6,4 km/h (2 Bft)
28.08.2016 11:06 23,6 C 23,6 C 69 % 1016,6 hPa 0,0 mm 5,7 km/h (1 Bft) W-NW 290 0 min 0,000 mm 2,0 UV-I 243 W/m 17,6 C 9,7 km/h (2 Bft)
28.08.2016 11:07 23,6 C 23,6 C 69 % 1016,7 hPa 0,0 mm 7,2 km/h (2 Bft) N-NW 338 0 min 0,000 mm 2,6 UV-I 243 W/m 17,6 C 9,7 km/h (2 Bft)
28.08.2016 11:08 23,6 C 23,6 C 68 % 1016,7 hPa 0,0 mm 5,6 km/h (1 Bft) W-NW 300 0 min 0,000 mm 2,5 UV-I 288 W/m 17,3 C 8,0 km/h (2 Bft)
28.08.2016 11:09 23,6 C 23,6 C 69 % 1016,7 hPa 0,0 mm 6,1 km/h (2 Bft) NW 309 0 min 0,000 mm 2,7 UV-I 311 W/m 17,6 C 8,0 km/h (2 Bft)
28.08.2016 11:10 23,6 C 23,6 C 69 % 1016,6 hPa 0,0 mm 3,1 km/h (1 Bft) W-SW 249 0 min 0,000 mm 3,3 UV-I 311 W/m 17,6 C 4,8 km/h (1 Bft)
28.08.2016 11:11 23,6 C 23,6 C 69 % 1016,6 hPa 0,0 mm 6,7 km/h (2 Bft) NW 304 1 min 0,000 mm 4,1 UV-I 573 W/m 17,6 C 8,0 km/h (2 Bft)
28.08.2016 11:12 23,7 C 23,7 C 70 % 1016,6 hPa 0,0 mm 6,0 km/h (2 Bft) W-NW 298 1 min 0,000 mm 4,3 UV-I 573 W/m 17,9 C 8,0 km/h (2 Bft)
28.08.2016 11:13 23,8 C 23,8 C 69 % 1016,6 hPa 0,0 mm 6,8 km/h (2 Bft) W-NW 283 1 min 0,000 mm 3,8 UV-I 729 W/m 17,8 C 9,7 km/h (2 Bft)
28.08.2016 11:14 23,9 C 23,9 C 70 % 1016,6 hPa 0,0 mm 4,7 km/h (1 Bft) NW 314 1 min 0,000 mm 3,7 UV-I 631 W/m 18,1 C 9,7 km/h (2 Bft)
28.08.2016 11:15 24,1 C 24,1 C 68 % 1016,6 hPa 0,0 mm 3,2 km/h (1 Bft) NW 323 1 min 0,000 mm 5,0 UV-I 541 W/m 17,8 C 4,8 km/h (1 Bft)
28.08.2016 11:16 24,2 C 24,2 C 69 % 1016,6 hPa 0,0 mm 3,0 km/h (1 Bft) N-NW 329 1 min 0,000 mm 5,0 UV-I 541 W/m 18,1 C 4,8 km/h (1 Bft)
28.08.2016 11:17 24,3 C 24,3 C 67 % 1016,6 hPa 0,0 mm 5,5 km/h (1 Bft) NW 307 1 min 0,000 mm 4,9 UV-I 824 W/m 17,8 C 9,7 km/h (2 Bft)
28.08.2016 11:18 24,4 C 24,4 C 68 % 1016,6 hPa 0,0 mm 3,9 km/h (1 Bft) W 278 1 min 0,000 mm 4,9 UV-I 807 W/m 18,1 C 4,8 km/h (1 Bft)
28.08.2016 11:19 24,5 C 24,5 C 69 % 1016,6 hPa 0,0 mm 3,9 km/h (1 Bft) W-NW 302 1 min 0,000 mm 4,9 UV-I 802 W/m 18,4 C 6,4 km/h (2 Bft)
28.08.2016 11:20 24,6 C 24,6 C 67 % 1016,6 hPa 0,0 mm 7,3 km/h (2 Bft) NW 319 1 min 0,000 mm 4,9 UV-I 809 W/m 18,1 C 11,3 km/h (2 Bft)
28.08.2016 11:21 24,6 C 24,6 C 68 % 1016,7 hPa 0,0 mm 4,8 km/h (1 Bft) W 269 1 min 0,000 mm 5,0 UV-I 809 W/m 18,3 C 11,3 km/h (2 Bft)
28.08.2016 11:22 24,6 C 24,6 C 66 % 1016,7 hPa 0,0 mm 5,3 km/h (1 Bft) W 281 1 min 0,000 mm 4,8 UV-I 795 W/m 17,8 C 11,3 km/h (2 Bft)
28.08.2016 11:23 24,7 C 24,7 C 68 % 1016,6 hPa 0,0 mm 5,5 km/h (1 Bft) W 279 1 min 0,000 mm 5,0 UV-I 729 W/m 18,4 C 8,0 km/h (2 Bft)
28.08.2016 11:24 24,7 C 24,7 C 70 % 1016,7 hPa 0,0 mm 7,6 km/h (2 Bft) W 281 1 min 0,000 mm 5,0 UV-I 823 W/m 18,8 C 11,3 km/h (2 Bft)
28.08.2016 11:25 24,8 C 24,8 C 66 % 1016,7 hPa 0,0 mm 7,6 km/h (2 Bft) NW 313 1 min 0,000 mm 5,0 UV-I 809 W/m 18,0 C 9,7 km/h (2 Bft)
28.08.2016 11:26 24,9 C 24,9 C 68 % 1016,6 hPa 0,0 mm 5,8 km/h (2 Bft) W-NW 284 1 min 0,000 mm 4,2 UV-I 809 W/m 18,6 C 6,4 km/h (2 Bft)
28.08.2016 11:27 24,8 C 24,9 C 64 % 1016,6 hPa 0,0 mm 5,7 km/h (1 Bft) W-NW 287 1 min 0,000 mm 5,0 UV-I 809 W/m 17,5 C 8,0 km/h (2 Bft)
28.08.2016 11:28 24,9 C 24,9 C 70 % 1016,7 hPa 0,0 mm 3,4 km/h (1 Bft) NW 307 1 min 0,000 mm 5,0 UV-I 805 W/m 19,0 C 4,8 km/h (1 Bft)
28.08.2016 11:29 24,9 C 24,9 C 67 % 1016,7 hPa 0,0 mm 4,4 km/h (1 Bft) NW 325 1 min 0,000 mm 4,9 UV-I 800 W/m 18,3 C 8,0 km/h (2 Bft)
28.08.2016 11:30 24,9 C 24,9 C 66 % 1016,7 hPa 0,0 mm 3,3 km/h (1 Bft) N-NW 335 1 min 0,000 mm 3,9 UV-I 800 W/m 18,1 C 4,8 km/h (1 Bft)
28.08.2016 11:31 24,9 C 24,9 C 67 % 1016,7 hPa 0,0 mm 3,4 km/h (1 Bft) W-NW 296 1 min 0,000 mm 4,4 UV-I 577 W/m 18,3 C 6,4 km/h (2 Bft)
28.08.2016 11:32 24,9 C 24,9 C 68 % 1016,6 hPa 0,0 mm 4,8 km/h (1 Bft) NW 306 0 min 0,000 mm 4,0 UV-I 376 W/m 18,6 C 6,4 km/h (2 Bft)
28.08.2016 11:33 24,8 C 24,9 C 68 % 1016,6 hPa 0,0 mm 2,8 km/h (1 Bft) NW 318 0 min 0,000 mm 3,6 UV-I 376 W/m 18,5 C 4,8 km/h (1 Bft)
28.08.2016 11:34 24,7 C 24,8 C 68 % 1016,7 hPa 0,0 mm 4,1 km/h (1 Bft) NW 305 1 min 0,000 mm 4,9 UV-I 506 W/m 18,4 C 6,4 km/h (2 Bft)
28.08.2016 11:35 24,6 C 24,7 C 65 % 1016,6 hPa 0,0 mm 2,5 km/h (1 Bft) N-NW 327 1 min 0,000 mm 3,8 UV-I 439 W/m 17,6 C 3,2 km/h (1 Bft)
28.08.2016 11:36 24,6 C 24,6 C 67 % 1016,7 hPa 0,0 mm 2,8 km/h (1 Bft) NW 324 1 min 0,000 mm 3,4 UV-I 439 W/m 18,1 C 3,2 km/h (1 Bft)
28.08.2016 11:37 24,6 C 24,6 C 64 % 1016,7 hPa 0,0 mm 4,4 km/h (1 Bft) W 273 0 min 0,000 mm 3,4 UV-I 287 W/m 17,3 C 9,7 km/h (2 Bft)
28.08.2016 11:38 24,5 C 24,6 C 63 % 1016,7 hPa 0,0 mm 4,1 km/h (1 Bft) W-NW 296 0 min 0,000 mm 3,5 UV-I 332 W/m 17,0 C 6,4 km/h (2 Bft)
28.08.2016 11:39 24,4 C 24,5 C 64 % 1016,7 hPa 0,0 mm 2,7 km/h (1 Bft) NW 310 1 min 0,000 mm 4,3 UV-I 425 W/m 17,1 C 4,8 km/h (1 Bft)
28.08.2016 11:40 24,4 C 24,4 C 68 % 1016,7 hPa 0,0 mm 2,9 km/h (1 Bft) NW 310 1 min 0,000 mm 3,8 UV-I 425 W/m 18,1 C 4,8 km/h (1 Bft)
28.08.2016 11:41 24,4 C 24,4 C 65 % 1016,7 hPa 0,0 mm 1,9 km/h (1 Bft) W-NW 294 0 min 0,000 mm 3,8 UV-I 343 W/m 17,4 C 3,2 km/h (1 Bft)
28.08.2016 11:42 24,4 C 24,4 C 65 % 1016,7 hPa 0,0 mm 3,0 km/h (1 Bft) W 273 0 min 0,000 mm 3,5 UV-I 332 W/m 17,4 C 4,8 km/h (1 Bft)
28.08.2016 11:43 24,4 C 24,4 C 67 % 1016,6 hPa 0,0 mm 3,7 km/h (1 Bft) W 259 0 min 0,000 mm 3,5 UV-I 339 W/m 17,9 C 6,4 km/h (2 Bft)
28.08.2016 11:44 24,3 C 24,4 C 65 % 1016,7 hPa 0,0 mm 3,1 km/h (1 Bft) NW 313 0 min 0,000 mm 3,7 UV-I 357 W/m 17,3 C 4,8 km/h (1 Bft)
28.08.2016 11:45 24,3 C 24,4 C 70 % 1016,6 hPa 0,0 mm 1,9 km/h (1 Bft) NW 313 0 min 0,000 mm 3,9 UV-I 394 W/m 18,5 C 3,2 km/h (1 Bft)
28.08.2016 11:46 24,5 C 24,5 C 70 % 1016,6 hPa 0,0 mm 5,2 km/h (1 Bft) W-SW 248 0 min 0,000 mm 5,4 UV-I 394 W/m 18,7 C 8,0 km/h (2 Bft)
28.08.2016 11:47 24,6 C 24,6 C 66 % 1016,6 hPa 0,0 mm 3,7 km/h (1 Bft) W-NW 298 0 min 0,000 mm 4,6 UV-I 394 W/m 17,8 C 4,8 km/h (1 Bft)
28.08.2016 11:48 24,8 C 24,8 C 68 % 1016,6 hPa 0,0 mm 5,8 km/h (2 Bft) N-NW 344 1 min 0,000 mm 5,5 UV-I 889 W/m 18,5 C 9,7 km/h (2 Bft)
28.08.2016 11:49 24,9 C 24,9 C 65 % 1016,6 hPa 0,0 mm 5,2 km/h (1 Bft) W-NW 296 1 min 0,000 mm 5,6 UV-I 891 W/m 17,9 C 9,7 km/h (2 Bft)
28.08.2016 11:50 25,1 C 25,1 C 64 % 1016,6 hPa 0,0 mm 7,0 km/h (2 Bft) W-NW 293 1 min 0,000 mm 5,7 UV-I 902 W/m 17,8 C 9,7 km/h (2 Bft)
28.08.2016 11:51 25,3 C 25,3 C 63 % 1016,6 hPa 0,0 mm 2,9 km/h (1 Bft) W 259 1 min 0,000 mm 5,8 UV-I 928 W/m 17,7 C 4,8 km/h (1 Bft)
28.08.2016 11:52 25,3 C 25,3 C 66 % 1016,6 hPa 0,0 mm 4,5 km/h (1 Bft) W-SW 246 1 min 0,000 mm 5,3 UV-I 831 W/m 18,5 C 11,3 km/h (2 Bft)
28.08.2016 11:53 25,3 C 25,3 C 66 % 1016,5 hPa 0,0 mm 7,8 km/h (2 Bft) W-SW 237 1 min 0,000 mm 4,2 UV-I 831 W/m 18,5 C 11,3 km/h (2 Bft)
28.08.2016 11:54 25,3 C 25,3 C 63 % 1016,5 hPa 0,0 mm 4,9 km/h (1 Bft) W-SW 244 1 min 0,000 mm 4,9 UV-I 831 W/m 17,7 C 11,3 km/h (2 Bft)
28.08.2016 11:55 25,2 C 25,3 C 64 % 1016,6 hPa 0,0 mm 4,5 km/h (1 Bft) W-NW 299 1 min 0,000 mm 5,6 UV-I 831 W/m 17,9 C 11,3 km/h (2 Bft)
28.08.2016 11:56 25,3 C 25,3 C 63 % 1016,5 hPa 0,0 mm 11,2 km/h (2 Bft) W-SW 251 1 min 0,000 mm 5,2 UV-I 784 W/m 17,7 C 14,5 km/h (3 Bft)
28.08.2016 11:57 25,2 C 25,3 C 63 % 1016,5 hPa 0,0 mm 8,9 km/h (2 Bft) W-SW 254 1 min 0,000 mm 4,9 UV-I 784 W/m 17,6 C 14,5 km/h (3 Bft)
28.08.2016 11:58 25,2 C 25,2 C 61 % 1016,6 hPa 0,0 mm 11,3 km/h (2 Bft) W-SW 243 1 min 0,000 mm 4,7 UV-I 654 W/m 17,1 C 14,5 km/h (3 Bft)
28.08.2016 11:59 25,1 C 25,2 C 61 % 1016,6 hPa 0,0 mm 6,4 km/h (2 Bft) SW 227 1 min 0,000 mm 4,7 UV-I 654 W/m 17,0 C 8,0 km/h (2 Bft)
28.08.2016 12:00 25,1 C 25,1 C 63 % 1016,6 hPa 0,0 mm 7,3 km/h (2 Bft) NW 317 1 min 0,000 mm 4,7 UV-I 443 W/m 17,5 C 9,7 km/h (2 Bft)
28.08.2016 12:01 25,1 C 25,1 C 61 % 1016,5 hPa 0,0 mm 6,9 km/h (2 Bft) NW 307 0 min 0,381 mm 4,8 UV-I 366 W/m 17,0 C 9,7 km/h (2 Bft)
28.08.2016 12:02 25,1 C 25,1 C 62 % 1016,5 hPa 0,0 mm 6,1 km/h (2 Bft) NW 306 1 min 0,000 mm 4,2 UV-I 420 W/m 17,3 C 8,0 km/h (2 Bft)
28.08.2016 12:03 25,1 C 25,1 C 61 % 1016,5 hPa 0,0 mm 6,6 km/h (2 Bft) NW 313 1 min 0,000 mm 4,9 UV-I 487 W/m 17,0 C 8,0 km/h (2 Bft)
28.08.2016 12:04 25,2 C 25,2 C 62 % 1016,4 hPa 0,0 mm 2,9 km/h (1 Bft) NW 322 1 min 0,000 mm 5,7 UV-I 487 W/m 17,4 C 4,8 km/h (1 Bft)
28.08.2016 12:05 25,2 C 25,2 C 61 % 1016,4 hPa 0,0 mm 1,2 km/h (1 Bft) NW 322 1 min 0,000 mm 4,8 UV-I 784 W/m 17,1 C 3,2 km/h (1 Bft)
28.08.2016 12:06 25,3 C 25,3 C 60 % 1016,4 hPa 0,0 mm 2,6 km/h (1 Bft) W 263 1 min 0,000 mm 5,8 UV-I 860 W/m 17,0 C 3,2 km/h (1 Bft)
28.08.2016 12:07 25,3 C 25,3 C 65 % 1016,4 hPa 0,0 mm 7,2 km/h (2 Bft) W-SW 249 1 min 0,000 mm 5,4 UV-I 786 W/m 18,2 C 11,3 km/h (2 Bft)
28.08.2016 12:08 25,3 C 25,3 C 62 % 1016,4 hPa 0,0 mm 7,1 km/h (2 Bft) W 275 1 min 0,000 mm 5,7 UV-I 831 W/m 17,5 C 11,3 km/h (2 Bft)
28.08.2016 12:09 25,3 C 25,3 C 61 % 1016,4 hPa 0,0 mm 2,9 km/h (1 Bft) W-SW 242 1 min 0,000 mm 5,7 UV-I 814 W/m 17,2 C 4,8 km/h (1 Bft)
28.08.2016 12:10 25,4 C 25,4 C 63 % 1016,4 hPa 0,0 mm 4,0 km/h (1 Bft) W 270 1 min 0,000 mm 5,8 UV-I 817 W/m 17,8 C 6,4 km/h (2 Bft)
28.08.2016 12:11 25,4 C 25,4 C 60 % 1016,4 hPa 0,0 mm 6,1 km/h (2 Bft) NW 312 1 min 0,000 mm 5,7 UV-I 795 W/m 17,1 C 9,7 km/h (2 Bft)
28.08.2016 12:12 25,5 C 25,5 C 62 % 1016,4 hPa 0,0 mm 3,2 km/h (1 Bft) N 355 1 min 0,000 mm 5,7 UV-I 788 W/m 17,7 C 6,4 km/h (2 Bft)
28.08.2016 12:13 25,6 C 25,6 C 62 % 1016,4 hPa 0,0 mm 3,0 km/h (1 Bft) W 274 1 min 0,000 mm 5,7 UV-I 777 W/m 17,8 C 6,4 km/h (2 Bft)
28.08.2016 12:14 25,6 C 25,6 C 63 % 1016,4 hPa 0,0 mm 8,9 km/h (2 Bft) NW 304 1 min 0,000 mm 5,6 UV-I 766 W/m 18,0 C 11,3 km/h (2 Bft)
28.08.2016 12:15 25,6 C 25,6 C 61 % 1016,4 hPa 0,0 mm 6,3 km/h (2 Bft) W-NW 296 1 min 0,000 mm 5,6 UV-I 758 W/m 17,5 C 12,9 km/h (3 Bft)
28.08.2016 12:16 25,7 C 25,7 C 64 % 1016,3 hPa 0,0 mm 6,3 km/h (2 Bft) W 277 1 min 0,000 mm 5,5 UV-I 744 W/m 18,4 C 11,3 km/h (2 Bft)
28.08.2016 12:17 25,7 C 25,7 C 64 % 1016,3 hPa 0,0 mm 7,2 km/h (2 Bft) W-NW 284 1 min 0,000 mm 5,5 UV-I 735 W/m 18,4 C 9,7 km/h (2 Bft)
28.08.2016 12:18 25,7 C 25,7 C 60 % 1016,3 hPa 0,0 mm 4,6 km/h (1 Bft) NW 311 1 min 0,000 mm 5,5 UV-I 733 W/m 17,3 C 6,4 km/h (2 Bft)
28.08.2016 12:19 25,7 C 25,7 C 62 % 1016,3 hPa 0,0 mm 5,8 km/h (2 Bft) W-SW 249 1 min 0,000 mm 5,6 UV-I 742 W/m 17,9 C 8,0 km/h (2 Bft)
28.08.2016 12:20 25,7 C 25,7 C 59 % 1016,3 hPa 0,0 mm 2,8 km/h (1 Bft) NW 306 1 min 0,000 mm 5,5 UV-I 733 W/m 17,1 C 4,8 km/h (1 Bft)
28.08.2016 12:21 25,7 C 25,7 C 65 % 1016,4 hPa 0,0 mm 8,7 km/h (2 Bft) W-NW 301 1 min 0,000 mm 5,6 UV-I 737 W/m 18,6 C 11,3 km/h (2 Bft)
28.08.2016 12:22 25,7 C 25,8 C 62 % 1016,4 hPa 0,0 mm 6,7 km/h (2 Bft) W-NW 284 1 min 0,000 mm 5,7 UV-I 747 W/m 17,9 C 12,9 km/h (3 Bft)
28.08.2016 12:23 25,7 C 25,8 C 59 % 1016,3 hPa 0,0 mm 10,1 km/h (2 Bft) W-NW 302 1 min 0,000 mm 5,7 UV-I 747 W/m 17,1 C 12,9 km/h (3 Bft)
28.08.2016 12:24 25,6 C 25,7 C 59 % 1016,3 hPa 0,0 mm 5,2 km/h (1 Bft) NW 318 1 min 0,000 mm 5,7 UV-I 751 W/m 17,0 C 9,7 km/h (2 Bft)
28.08.2016 12:25 25,6 C 25,6 C 61 % 1016,3 hPa 0,0 mm 6,8 km/h (2 Bft) W-NW 300 1 min 0,000 mm 5,7 UV-I 752 W/m 17,5 C 8,0 km/h (2 Bft)
28.08.2016 12:26 25,6 C 25,6 C 62 % 1016,3 hPa 0,0 mm 5,8 km/h (2 Bft) NW 315 1 min 0,000 mm 5,6 UV-I 758 W/m 17,8 C 6,4 km/h (2 Bft)
28.08.2016 12:27 25,7 C 25,7 C 63 % 1016,3 hPa 0,0 mm 4,6 km/h (1 Bft) NW 317 1 min 0,000 mm 5,6 UV-I 768 W/m 18,1 C 6,4 km/h (2 Bft)
28.08.2016 12:28 25,7 C 25,7 C 62 % 1016,3 hPa 0,0 mm 6,2 km/h (2 Bft) NW 304 1 min 0,000 mm 5,6 UV-I 766 W/m 17,9 C 8,0 km/h (2 Bft)
28.08.2016 12:29 25,7 C 25,7 C 61 % 1016,3 hPa 0,0 mm 6,8 km/h (2 Bft) W-NW 294 1 min 0,000 mm 5,5 UV-I 779 W/m 17,6 C 11,3 km/h (2 Bft)
28.08.2016 12:30 25,7 C 25,7 C 58 % 1016,2 hPa 0,0 mm 5,4 km/h (1 Bft) NW 321 1 min 0,000 mm 5,7 UV-I 789 W/m 16,8 C 8,0 km/h (2 Bft)
28.08.2016 12:31 25,7 C 25,7 C 64 % 1016,2 hPa 0,0 mm 5,6 km/h (1 Bft) NW 304 1 min 0,000 mm 5,8 UV-I 782 W/m 18,4 C 8,0 km/h (2 Bft)
28.08.2016 12:32 25,8 C 25,8 C 61 % 1016,2 hPa 0,0 mm 5,4 km/h (1 Bft) W 281 1 min 0,000 mm 5,8 UV-I 784 W/m 17,7 C 9,7 km/h (2 Bft)
28.08.2016 12:33 25,8 C 25,8 C 57 % 1016,2 hPa 0,0 mm 5,8 km/h (2 Bft) W 280 1 min 0,000 mm 5,1 UV-I 784 W/m 16,6 C 6,4 km/h (2 Bft)
28.08.2016 12:34 25,8 C 25,8 C 58 % 1016,2 hPa 0,0 mm 4,8 km/h (1 Bft) NW 314 1 min 0,000 mm 5,8 UV-I 668 W/m 16,9 C 6,4 km/h (2 Bft)
28.08.2016 12:35 25,8 C 25,8 C 61 % 1016,2 hPa 0,0 mm 5,2 km/h (1 Bft) W-NW 296 1 min 0,000 mm 5,8 UV-I 668 W/m 17,7 C 8,0 km/h (2 Bft)
28.08.2016 12:36 25,8 C 25,8 C 59 % 1016,1 hPa 0,0 mm 8,4 km/h (2 Bft) W-SW 243 1 min 0,000 mm 5,8 UV-I 773 W/m 17,2 C 12,9 km/h (3 Bft)
28.08.2016 12:37 25,7 C 25,8 C 61 % 1016,1 hPa 0,0 mm 6,5 km/h (2 Bft) NW 319 1 min 0,000 mm 5,8 UV-I 773 W/m 17,6 C 9,7 km/h (2 Bft)
28.08.2016 12:38 25,8 C 25,8 C 59 % 1016,1 hPa 0,0 mm 6,9 km/h (2 Bft) W 281 1 min 0,000 mm 5,8 UV-I 773 W/m 17,2 C 11,3 km/h (2 Bft)
28.08.2016 12:39 25,8 C 25,8 C 62 % 1016,1 hPa 0,0 mm 7,6 km/h (2 Bft) W 263 1 min 0,000 mm 5,8 UV-I 770 W/m 18,0 C 11,3 km/h (2 Bft)
28.08.2016 12:40 25,9 C 25,9 C 61 % 1016,1 hPa 0,0 mm 7,6 km/h (2 Bft) W-NW 283 1 min 0,000 mm 5,8 UV-I 763 W/m 17,8 C 9,7 km/h (2 Bft)
28.08.2016 12:41 26,0 C 26,0 C 60 % 1016,1 hPa 0,0 mm 9,2 km/h (2 Bft) W 271 1 min 0,000 mm 5,8 UV-I 763 W/m 17,6 C 14,5 km/h (3 Bft)
28.08.2016 12:42 26,1 C 26,1 C 58 % 1016,1 hPa 0,0 mm 9,2 km/h (2 Bft) W-NW 283 1 min 0,000 mm 5,7 UV-I 758 W/m 17,2 C 14,5 km/h (3 Bft)
28.08.2016 12:43 26,1 C 26,1 C 58 % 1016,1 hPa 0,0 mm 5,1 km/h (1 Bft) W-NW 293 1 min 0,000 mm 5,7 UV-I 761 W/m 17,2 C 8,0 km/h (2 Bft)
28.08.2016 12:44 26,1 C 26,1 C 57 % 1016,2 hPa 0,0 mm 5,1 km/h (1 Bft) W 279 1 min 0,000 mm 5,6 UV-I 754 W/m 16,9 C 6,4 km/h (2 Bft)
28.08.2016 12:45 25,9 C 26,1 C 59 % 1016,1 hPa 0,0 mm 8,6 km/h (2 Bft) W 279 1 min 0,000 mm 5,4 UV-I 654 W/m 17,3 C 12,9 km/h (3 Bft)
28.08.2016 12:46 25,9 C 26,0 C 59 % 1016,1 hPa 0,0 mm 6,4 km/h (2 Bft) NW 306 1 min 0,000 mm 5,6 UV-I 749 W/m 17,3 C 11,3 km/h (2 Bft)
28.08.2016 12:47 26,0 C 26,0 C 61 % 1016,1 hPa 0,0 mm 8,2 km/h (2 Bft) W-NW 282 1 min 0,000 mm 5,6 UV-I 659 W/m 17,9 C 11,3 km/h (2 Bft)
28.08.2016 12:48 26,0 C 26,1 C 59 % 1016,2 hPa 0,0 mm 5,6 km/h (1 Bft) W-NW 299 1 min 0,000 mm 5,6 UV-I 624 W/m 17,4 C 6,4 km/h (2 Bft)
28.08.2016 12:49 26,0 C 26,1 C 59 % 1016,2 hPa 0,0 mm 12,3 km/h (3 Bft) N 349 1 min 0,000 mm 3,9 UV-I 624 W/m 17,4 C 17,7 km/h (3 Bft)
28.08.2016 12:50 25,8 C 26,0 C 59 % 1016,1 hPa 0,0 mm 7,8 km/h (2 Bft) NW 322 1 min 0,000 mm 3,7 UV-I 624 W/m 17,2 C 11,3 km/h (2 Bft)
28.08.2016 12:51 25,8 C 25,8 C 59 % 1016,1 hPa 0,0 mm 12,1 km/h (2 Bft) NW 308 1 min 0,000 mm 5,4 UV-I 624 W/m 17,2 C 16,1 km/h (3 Bft)
28.08.2016 12:52 25,7 C 25,8 C 59 % 1016,1 hPa 0,0 mm 11,9 km/h (2 Bft) W 279 1 min 0,000 mm 5,5 UV-I 738 W/m 17,1 C 17,7 km/h (3 Bft)
28.08.2016 12:53 25,7 C 25,7 C 59 % 1016,1 hPa 0,0 mm 12,8 km/h (3 Bft) NW 317 1 min 0,000 mm 5,6 UV-I 749 W/m 17,1 C 17,7 km/h (3 Bft)
28.08.2016 12:54 25,8 C 25,8 C 61 % 1016,1 hPa 0,0 mm 15,2 km/h (3 Bft) W-NW 284 1 min 0,000 mm 5,6 UV-I 765 W/m 17,7 C 19,3 km/h (3 Bft)
28.08.2016 12:55 25,9 C 25,9 C 57 % 1016,0 hPa 0,0 mm 11,0 km/h (2 Bft) W 275 1 min 0,000 mm 5,7 UV-I 758 W/m 16,7 C 16,1 km/h (3 Bft)
28.08.2016 12:56 25,9 C 25,9 C 56 % 1016,1 hPa 0,0 mm 11,2 km/h (2 Bft) W-NW 298 1 min 0,000 mm 5,7 UV-I 766 W/m 16,4 C 14,5 km/h (3 Bft)
28.08.2016 12:57 25,9 C 25,9 C 57 % 1016,1 hPa 0,0 mm 6,6 km/h (2 Bft) NW 311 1 min 0,000 mm 5,7 UV-I 752 W/m 16,7 C 12,9 km/h (3 Bft)
28.08.2016 12:58 25,9 C 25,9 C 58 % 1016,1 hPa 0,0 mm 7,1 km/h (2 Bft) W 264 1 min 0,000 mm 5,7 UV-I 747 W/m 17,0 C 11,3 km/h (2 Bft)
28.08.2016 12:59 25,9 C 25,9 C 59 % 1016,1 hPa 0,0 mm 6,4 km/h (2 Bft) N-NW 329 1 min 0,000 mm 5,6 UV-I 758 W/m 17,3 C 9,7 km/h (2 Bft)
28.08.2016 13:00 25,9 C 25,9 C 60 % 1016,1 hPa 0,0 mm 6,3 km/h (2 Bft) W 273 1 min 0,508 mm 4,6 UV-I 758 W/m 17,5 C 11,3 km/h (2 Bft)
28.08.2016 13:01 26,0 C 26,0 C 62 % 1016,1 hPa 0,0 mm 6,2 km/h (2 Bft) W-NW 294 1 min 0,000 mm 5,5 UV-I 758 W/m 18,1 C 11,3 km/h (2 Bft)
28.08.2016 13:02 25,9 C 26,0 C 59 % 1016,0 hPa 0,0 mm 5,6 km/h (1 Bft) W-SW 250 1 min 0,000 mm 4,4 UV-I 758 W/m 17,3 C 8,0 km/h (2 Bft)
28.08.2016 13:03 25,8 C 25,9 C 60 % 1016,1 hPa 0,0 mm 11,3 km/h (2 Bft) W 271 1 min 0,000 mm 4,5 UV-I 758 W/m 17,4 C 11,3 km/h (2 Bft)
28.08.2016 13:04 25,8 C 25,9 C 60 % 1016,1 hPa 0,0 mm 7,0 km/h (2 Bft) W-NW 284 1 min 0,000 mm 4,5 UV-I 758 W/m 17,4 C 11,3 km/h (2 Bft)
28.08.2016 13:05 25,7 C 25,8 C 61 % 1016,0 hPa 0,0 mm 4,3 km/h (1 Bft) NW 315 1 min 0,000 mm 5,7 UV-I 747 W/m 17,6 C 6,4 km/h (2 Bft)
28.08.2016 13:06 25,8 C 25,8 C 59 % 1016,0 hPa 0,0 mm 5,2 km/h (1 Bft) NW 315 1 min 0,000 mm 5,6 UV-I 731 W/m 17,2 C 11,3 km/h (2 Bft)
28.08.2016 13:07 25,9 C 25,9 C 61 % 1015,9 hPa 0,0 mm 10,2 km/h (2 Bft) W-NW 298 1 min 0,000 mm 5,6 UV-I 722 W/m 17,8 C 16,1 km/h (3 Bft)
28.08.2016 13:08 26,0 C 26,0 C 59 % 1015,9 hPa 0,0 mm 9,5 km/h (2 Bft) W-NW 287 1 min 0,000 mm 5,6 UV-I 726 W/m 17,4 C 14,5 km/h (3 Bft)
28.08.2016 13:09 26,0 C 26,1 C 57 % 1015,9 hPa 0,0 mm 7,0 km/h (2 Bft) W 274 1 min 0,000 mm 5,6 UV-I 700 W/m 16,8 C 14,5 km/h (3 Bft)
28.08.2016 13:10 26,1 C 26,1 C 59 % 1015,9 hPa 0,0 mm 6,5 km/h (2 Bft) NW 307 1 min 0,000 mm 5,6 UV-I 759 W/m 17,4 C 11,3 km/h (2 Bft)
28.08.2016 13:11 26,1 C 26,1 C 59 % 1015,9 hPa 0,0 mm 9,7 km/h (2 Bft) W-NW 293 1 min 0,000 mm 5,6 UV-I 740 W/m 17,4 C 14,5 km/h (3 Bft)
28.08.2016 13:12 26,2 C 26,2 C 57 % 1015,9 hPa 0,0 mm 6,3 km/h (2 Bft) N 355 1 min 0,000 mm 5,7 UV-I 758 W/m 17,0 C 8,0 km/h (2 Bft)
28.08.2016 13:13 26,2 C 26,2 C 57 % 1015,9 hPa 0,0 mm 7,8 km/h (2 Bft) W-NW 302 1 min 0,000 mm 5,7 UV-I 759 W/m 17,0 C 12,9 km/h (3 Bft)
28.08.2016 13:14 26,3 C 26,3 C 59 % 1015,9 hPa 0,0 mm 5,8 km/h (2 Bft) W 280 1 min 0,000 mm 5,7 UV-I 763 W/m 17,6 C 11,3 km/h (2 Bft)
28.08.2016 13:15 26,2 C 26,3 C 60 % 1015,9 hPa 0,0 mm 8,9 km/h (2 Bft) W-NW 294 1 min 0,000 mm 5,8 UV-I 772 W/m 17,8 C 12,9 km/h (3 Bft)
28.08.2016 13:16 26,4 C 26,4 C 60 % 1015,9 hPa 0,0 mm 10,6 km/h (2 Bft) W-SW 252 1 min 0,000 mm 5,8 UV-I 772 W/m 18,0 C 16,1 km/h (3 Bft)
28.08.2016 13:17 26,4 C 26,4 C 58 % 1015,9 hPa 0,0 mm 8,6 km/h (2 Bft) W 277 1 min 0,000 mm 5,7 UV-I 752 W/m 17,5 C 12,9 km/h (3 Bft)
28.08.2016 13:18 26,4 C 26,4 C 57 % 1015,9 hPa 0,0 mm 8,9 km/h (2 Bft) W 275 1 min 0,000 mm 5,7 UV-I 742 W/m 17,2 C 14,5 km/h (3 Bft)
28.08.2016 13:19 26,4 C 26,4 C 59 % 1015,9 hPa 0,0 mm 6,4 km/h (2 Bft) W-SW 248 1 min 0,000 mm 5,7 UV-I 740 W/m 17,7 C 9,7 km/h (2 Bft)
28.08.2016 13:20 26,4 C 26,4 C 57 % 1015,9 hPa 0,0 mm 9,7 km/h (2 Bft) W 265 1 min 0,000 mm 5,7 UV-I 742 W/m 17,2 C 12,9 km/h (3 Bft)
28.08.2016 13:21 26,4 C 26,4 C 55 % 1015,9 hPa 0,0 mm 5,3 km/h (1 Bft) W-NW 291 1 min 0,000 mm 5,8 UV-I 745 W/m 16,6 C 11,3 km/h (2 Bft)
28.08.2016 13:22 26,4 C 26,4 C 57 % 1015,9 hPa 0,0 mm 5,4 km/h (1 Bft) N-NW 334 1 min 0,000 mm 5,7 UV-I 719 W/m 17,2 C 8,0 km/h (2 Bft)
28.08.2016 13:23 26,4 C 26,4 C 57 % 1015,9 hPa 0,0 mm 9,5 km/h (2 Bft) W-SW 250 1 min 0,000 mm 5,6 UV-I 729 W/m 17,2 C 12,9 km/h (3 Bft)
28.08.2016 13:24 26,3 C 26,4 C 57 % 1015,9 hPa 0,0 mm 5,2 km/h (1 Bft) W 278 1 min 0,000 mm 5,5 UV-I 703 W/m 17,1 C 9,7 km/h (2 Bft)
28.08.2016 13:25 26,3 C 26,3 C 56 % 1015,8 hPa 0,0 mm 9,0 km/h (2 Bft) W 262 1 min 0,000 mm 5,7 UV-I 737 W/m 16,8 C 12,9 km/h (3 Bft)
28.08.2016 13:26 26,3 C 26,3 C 59 % 1015,8 hPa 0,0 mm 4,5 km/h (1 Bft) W 269 1 min 0,000 mm 5,7 UV-I 740 W/m 17,6 C 6,4 km/h (2 Bft)
28.08.2016 13:27 26,3 C 26,3 C 58 % 1015,8 hPa 0,0 mm 7,8 km/h (2 Bft) W-NW 290 1 min 0,000 mm 5,7 UV-I 737 W/m 17,4 C 12,9 km/h (3 Bft)
28.08.2016 13:28 26,4 C 26,4 C 59 % 1015,8 hPa 0,0 mm 8,7 km/h (2 Bft) NW 319 1 min 0,000 mm 5,8 UV-I 744 W/m 17,7 C 12,9 km/h (3 Bft)
28.08.2016 13:29 26,5 C 26,5 C 57 % 1015,8 hPa 0,0 mm 6,7 km/h (2 Bft) NW 304 1 min 0,000 mm 5,7 UV-I 745 W/m 17,3 C 12,9 km/h (3 Bft)
28.08.2016 13:30 26,6 C 26,6 C 58 % 1015,8 hPa 0,0 mm 11,1 km/h (2 Bft) W-NW 288 1 min 0,000 mm 5,7 UV-I 749 W/m 17,6 C 12,9 km/h (3 Bft)
28.08.2016 13:31 26,6 C 26,6 C 59 % 1015,8 hPa 0,0 mm 8,4 km/h (2 Bft) W 281 1 min 0,000 mm 5,7 UV-I 745 W/m 17,9 C 11,3 km/h (2 Bft)
28.08.2016 13:32 26,7 C 26,7 C 57 % 1015,8 hPa 0,0 mm 6,0 km/h (2 Bft) W-NW 297 1 min 0,000 mm 5,7 UV-I 742 W/m 17,5 C 8,0 km/h (2 Bft)
28.08.2016 13:33 26,6 C 26,7 C 54 % 1015,8 hPa 0,0 mm 8,4 km/h (2 Bft) NW 319 1 min 0,000 mm 5,7 UV-I 733 W/m 16,5 C 12,9 km/h (3 Bft)
28.08.2016 13:34 26,6 C 26,6 C 54 % 1015,8 hPa 0,0 mm 6,3 km/h (2 Bft) NW 324 1 min 0,000 mm 5,7 UV-I 742 W/m 16,5 C 8,0 km/h (2 Bft)
28.08.2016 13:35 26,6 C 26,6 C 57 % 1015,8 hPa 0,0 mm 6,8 km/h (2 Bft) W 275 1 min 0,000 mm 5,8 UV-I 744 W/m 17,4 C 12,9 km/h (3 Bft)
28.08.2016 13:36 26,6 C 26,6 C 58 % 1015,8 hPa 0,0 mm 5,0 km/h (1 Bft) W-SW 246 1 min 0,000 mm 5,7 UV-I 744 W/m 17,6 C 8,0 km/h (2 Bft)
28.08.2016 13:37 26,6 C 26,6 C 59 % 1015,7 hPa 0,0 mm 7,1 km/h (2 Bft) W-NW 300 1 min 0,000 mm 5,7 UV-I 745 W/m 17,9 C 17,7 km/h (3 Bft)
28.08.2016 13:38 26,6 C 26,6 C 57 % 1015,8 hPa 0,0 mm 9,5 km/h (2 Bft) W 265 1 min 0,000 mm 5,8 UV-I 747 W/m 17,4 C 16,1 km/h (3 Bft)
28.08.2016 13:39 26,5 C 26,6 C 55 % 1015,8 hPa 0,0 mm 6,8 km/h (2 Bft) NW 304 1 min 0,000 mm 5,8 UV-I 752 W/m 16,7 C 9,7 km/h (2 Bft)
28.08.2016 13:40 26,5 C 26,5 C 58 % 1015,7 hPa 0,0 mm 8,1 km/h (2 Bft) W 279 1 min 0,000 mm 5,7 UV-I 735 W/m 17,5 C 12,9 km/h (3 Bft)
28.08.2016 13:41 26,6 C 26,6 C 58 % 1015,7 hPa 0,0 mm 7,9 km/h (2 Bft) W-NW 298 1 min 0,000 mm 5,5 UV-I 747 W/m 17,6 C 11,3 km/h (2 Bft)
28.08.2016 13:42 26,6 C 26,6 C 56 % 1015,7 hPa 0,0 mm 7,4 km/h (2 Bft) W-NW 284 1 min 0,000 mm 4,2 UV-I 742 W/m 17,1 C 12,9 km/h (3 Bft)
28.08.2016 13:43 26,6 C 26,6 C 56 % 1015,7 hPa 0,0 mm 6,2 km/h (2 Bft) W 269 1 min 0,000 mm 3,9 UV-I 742 W/m 17,1 C 9,7 km/h (2 Bft)
28.08.2016 13:44 26,4 C 26,6 C 54 % 1015,7 hPa 0,0 mm 6,1 km/h (2 Bft) W 281 0 min 0,000 mm 3,3 UV-I 141 W/m 16,3 C 6,4 km/h (2 Bft)
28.08.2016 13:45 26,3 C 26,4 C 57 % 1015,7 hPa 0,0 mm 6,5 km/h (2 Bft) W 268 0 min 0,000 mm 3,4 UV-I 178 W/m 17,1 C 11,3 km/h (2 Bft)
28.08.2016 13:46 26,1 C 26,3 C 57 % 1015,7 hPa 0,0 mm 3,8 km/h (1 Bft) W-NW 297 0 min 0,000 mm 4,1 UV-I 178 W/m 16,9 C 6,4 km/h (2 Bft)
28.08.2016 13:47 25,9 C 26,1 C 60 % 1015,7 hPa 0,0 mm 2,7 km/h (1 Bft) W-NW 296 0 min 0,000 mm 5,6 UV-I 178 W/m 17,5 C 4,8 km/h (1 Bft)
28.08.2016 13:48 25,9 C 25,9 C 61 % 1015,7 hPa 0,0 mm 3,8 km/h (1 Bft) W-SW 248 1 min 0,000 mm 5,5 UV-I 756 W/m 17,8 C 8,0 km/h (2 Bft)
28.08.2016 13:49 25,9 C 25,9 C 58 % 1015,7 hPa 0,0 mm 7,4 km/h (2 Bft) W-SW 243 1 min 0,000 mm 5,6 UV-I 737 W/m 17,0 C 11,3 km/h (2 Bft)
28.08.2016 13:50 26,1 C 26,1 C 59 % 1015,6 hPa 0,0 mm 3,6 km/h (1 Bft) W 259 1 min 0,000 mm 5,6 UV-I 738 W/m 17,4 C 6,4 km/h (2 Bft)
28.08.2016 13:51 26,2 C 26,2 C 58 % 1015,7 hPa 0,0 mm 3,3 km/h (1 Bft) W-NW 289 1 min 0,000 mm 5,7 UV-I 737 W/m 17,3 C 4,8 km/h (1 Bft)
28.08.2016 13:52 26,3 C 26,3 C 61 % 1015,6 hPa 0,0 mm 9,3 km/h (2 Bft) NW 318 1 min 0,000 mm 5,7 UV-I 735 W/m 18,2 C 12,9 km/h (3 Bft)
28.08.2016 13:53 26,5 C 26,5 C 55 % 1015,6 hPa 0,0 mm 7,4 km/h (2 Bft) W-SW 249 1 min 0,000 mm 5,7 UV-I 737 W/m 16,7 C 12,9 km/h (3 Bft)
28.08.2016 13:54 26,6 C 26,6 C 55 % 1015,6 hPa 0,0 mm 8,1 km/h (2 Bft) N-NW 331 1 min 0,000 mm 5,7 UV-I 731 W/m 16,8 C 12,9 km/h (3 Bft)
28.08.2016 13:55 26,7 C 26,7 C 55 % 1015,6 hPa 0,0 mm 4,8 km/h (1 Bft) W 263 1 min 0,000 mm 5,6 UV-I 731 W/m 16,9 C 6,4 km/h (2 Bft)
28.08.2016 13:56 26,7 C 26,7 C 55 % 1015,6 hPa 0,0 mm 5,1 km/h (1 Bft) S-SW 204 1 min 0,000 mm 5,6 UV-I 729 W/m 16,9 C 6,4 km/h (2 Bft)
28.08.2016 13:57 26,7 C 26,7 C 55 % 1015,6 hPa 0,0 mm 2,5 km/h (1 Bft) W-SW 244 1 min 0,000 mm 5,7 UV-I 731 W/m 16,9 C 4,8 km/h (1 Bft)
28.08.2016 13:58 26,8 C 26,8 C 57 % 1015,6 hPa 0,0 mm 5,3 km/h (1 Bft) W-SW 252 1 min 0,000 mm 5,7 UV-I 731 W/m 17,6 C 8,0 km/h (2 Bft)
28.08.2016 13:59 26,8 C 26,8 C 57 % 1015,6 hPa 0,0 mm 2,9 km/h (1 Bft) W-SW 251 1 min 0,000 mm 5,7 UV-I 729 W/m 17,6 C 4,8 km/h (1 Bft)
28.08.2016 14:00 26,8 C 26,9 C 56 % 1015,6 hPa 0,0 mm 3,7 km/h (1 Bft) NW 309 1 min 0,482 mm 5,6 UV-I 726 W/m 17,3 C 4,8 km/h (1 Bft)
28.08.2016 14:01 26,9 C 26,9 C 55 % 1015,6 hPa 0,0 mm 7,3 km/h (2 Bft) W-NW 300 1 min 0,000 mm 5,6 UV-I 726 W/m 17,1 C 11,3 km/h (2 Bft)
28.08.2016 14:02 26,9 C 26,9 C 56 % 1015,6 hPa 0,0 mm 5,8 km/h (2 Bft) W-NW 291 1 min 0,000 mm 5,6 UV-I 722 W/m 17,4 C 8,0 km/h (2 Bft)
28.08.2016 14:03 26,9 C 26,9 C 54 % 1015,5 hPa 0,0 mm 6,0 km/h (2 Bft) W-NW 297 1 min 0,000 mm 5,5 UV-I 717 W/m 16,8 C 11,3 km/h (2 Bft)
28.08.2016 14:04 26,9 C 26,9 C 54 % 1015,5 hPa 0,0 mm 7,2 km/h (2 Bft) W-NW 303 1 min 0,000 mm 5,6 UV-I 721 W/m 16,8 C 12,9 km/h (3 Bft)
28.08.2016 14:05 26,8 C 26,9 C 53 % 1015,6 hPa 0,0 mm 4,6 km/h (1 Bft) NW 306 1 min 0,000 mm 5,6 UV-I 719 W/m 16,4 C 11,3 km/h (2 Bft)
28.08.2016 14:06 26,8 C 26,8 C 55 % 1015,5 hPa 0,0 mm 5,9 km/h (2 Bft) NW 314 1 min 0,000 mm 5,5 UV-I 717 W/m 17,0 C 11,3 km/h (2 Bft)
28.08.2016 14:07 26,8 C 26,8 C 52 % 1015,5 hPa 0,0 mm 7,0 km/h (2 Bft) NW 311 1 min 0,000 mm 5,6 UV-I 721 W/m 16,1 C 12,9 km/h (3 Bft)
28.08.2016 14:08 26,8 C 26,8 C 54 % 1015,5 hPa 0,0 mm 6,0 km/h (2 Bft) W 281 1 min 0,000 mm 5,6 UV-I 722 W/m 16,7 C 11,3 km/h (2 Bft)
28.08.2016 14:09 26,9 C 26,9 C 57 % 1015,5 hPa 0,0 mm 5,1 km/h (1 Bft) N-NW 333 1 min 0,000 mm 5,6 UV-I 722 W/m 17,6 C 9,7 km/h (2 Bft)
28.08.2016 14:10 26,8 C 26,9 C 54 % 1015,5 hPa 0,0 mm 6,3 km/h (2 Bft) W-NW 302 1 min 0,000 mm 5,6 UV-I 721 W/m 16,7 C 9,7 km/h (2 Bft)
28.08.2016 14:11 26,9 C 26,9 C 55 % 1015,5 hPa 0,0 mm 4,5 km/h (1 Bft) NW 310 1 min 0,000 mm 5,6 UV-I 722 W/m 17,1 C 6,4 km/h (2 Bft)
28.08.2016 14:12 26,9 C 26,9 C 57 % 1015,5 hPa 0,0 mm 6,8 km/h (2 Bft) W 267 1 min 0,000 mm 5,6 UV-I 719 W/m 17,6 C 9,7 km/h (2 Bft)
28.08.2016 14:13 26,9 C 27,0 C 53 % 1015,5 hPa 0,0 mm 10,2 km/h (2 Bft) W 281 1 min 0,000 mm 5,5 UV-I 719 W/m 16,5 C 16,1 km/h (3 Bft)
28.08.2016 14:14 27,0 C 27,0 C 51 % 1015,5 hPa 0,0 mm 12,1 km/h (2 Bft) NW 311 1 min 0,000 mm 5,5 UV-I 721 W/m 16,0 C 16,1 km/h (3 Bft)
28.08.2016 14:15 26,9 C 27,0 C 52 % 1015,5 hPa 0,0 mm 7,3 km/h (2 Bft) N 349 1 min 0,000 mm 5,5 UV-I 722 W/m 16,2 C 11,3 km/h (2 Bft)
28.08.2016 14:16 27,0 C 27,0 C 53 % 1015,4 hPa 0,0 mm 7,4 km/h (2 Bft) W-NW 290 1 min 0,000 mm 5,5 UV-I 721 W/m 16,6 C 11,3 km/h (2 Bft)
28.08.2016 14:17 27,1 C 27,1 C 54 % 1015,4 hPa 0,0 mm 7,9 km/h (2 Bft) W-NW 283 1 min 0,000 mm 5,5 UV-I 721 W/m 17,0 C 12,9 km/h (3 Bft)
28.08.2016 14:18 27,1 C 27,1 C 57 % 1015,4 hPa 0,0 mm 6,5 km/h (2 Bft) NW 317 1 min 0,000 mm 5,5 UV-I 721 W/m 17,8 C 11,3 km/h (2 Bft)
28.08.2016 14:19 27,2 C 27,2 C 57 % 1015,3 hPa 0,0 mm 6,8 km/h (2 Bft) NW 317 1 min 0,000 mm 5,5 UV-I 721 W/m 17,9 C 11,3 km/h (2 Bft)
28.08.2016 14:20 27,2 C 27,2 C 52 % 1015,3 hPa 0,0 mm 6,8 km/h (2 Bft) W-NW 296 1 min 0,000 mm 5,4 UV-I 722 W/m 16,5 C 12,9 km/h (3 Bft)
28.08.2016 14:21 27,3 C 27,3 C 52 % 1015,4 hPa 0,0 mm 7,2 km/h (2 Bft) NW 304 1 min 0,000 mm 5,4 UV-I 722 W/m 16,6 C 12,9 km/h (3 Bft)
28.08.2016 14:22 27,2 C 27,3 C 54 % 1015,3 hPa 0,0 mm 5,5 km/h (1 Bft) W-SW 257 1 min 0,000 mm 5,3 UV-I 712 W/m 17,1 C 11,3 km/h (2 Bft)
28.08.2016 14:23 27,1 C 27,2 C 53 % 1015,3 hPa 0,0 mm 5,4 km/h (1 Bft) W-SW 242 1 min 0,000 mm 5,3 UV-I 712 W/m 16,7 C 11,3 km/h (2 Bft)
28.08.2016 14:24 27,1 C 27,1 C 62 % 1015,3 hPa 0,0 mm 4,7 km/h (1 Bft) W-NW 298 1 min 0,000 mm 5,3 UV-I 710 W/m 19,2 C 11,3 km/h (2 Bft)
28.08.2016 14:25 27,2 C 27,2 C 54 % 1015,3 hPa 0,0 mm 7,7 km/h (2 Bft) W-SW 251 1 min 0,000 mm 5,3 UV-I 714 W/m 17,1 C 11,3 km/h (2 Bft)
28.08.2016 14:26 27,1 C 27,2 C 51 % 1015,3 hPa 0,0 mm 7,7 km/h (2 Bft) W 281 1 min 0,000 mm 5,3 UV-I 729 W/m 16,1 C 11,3 km/h (2 Bft)
28.08.2016 14:27 27,1 C 27,1 C 53 % 1015,3 hPa 0,0 mm 6,8 km/h (2 Bft) W-NW 284 1 min 0,000 mm 5,3 UV-I 744 W/m 16,7 C 11,3 km/h (2 Bft)
28.08.2016 14:28 27,1 C 27,1 C 52 % 1015,3 hPa 0,0 mm 6,3 km/h (2 Bft) NW 304 1 min 0,000 mm 5,3 UV-I 742 W/m 16,4 C 8,0 km/h (2 Bft)
28.08.2016 14:29 27,1 C 27,1 C 56 % 1015,2 hPa 0,0 mm 4,8 km/h (1 Bft) W 272 1 min 0,000 mm 5,3 UV-I 738 W/m 17,5 C 6,4 km/h (2 Bft)
28.08.2016 14:30 27,1 C 27,1 C 55 % 1015,2 hPa 0,0 mm 6,3 km/h (2 Bft) W-NW 296 1 min 0,000 mm 5,2 UV-I 737 W/m 17,3 C 9,7 km/h (2 Bft)
28.08.2016 14:31 27,2 C 27,2 C 53 % 1015,2 hPa 0,0 mm 5,5 km/h (1 Bft) W-NW 284 1 min 0,000 mm 5,1 UV-I 724 W/m 16,8 C 9,7 km/h (2 Bft)
28.08.2016 14:32 27,2 C 27,2 C 52 % 1015,2 hPa 0,0 mm 5,8 km/h (2 Bft) N-NW 328 1 min 0,000 mm 5,1 UV-I 715 W/m 16,5 C 9,7 km/h (2 Bft)
28.08.2016 14:33 27,3 C 27,3 C 54 % 1015,2 hPa 0,0 mm 4,6 km/h (1 Bft) W 267 1 min 0,000 mm 5,0 UV-I 712 W/m 17,2 C 4,8 km/h (1 Bft)
28.08.2016 14:34 27,2 C 27,3 C 53 % 1015,2 hPa 0,0 mm 4,5 km/h (1 Bft) NW 313 1 min 0,000 mm 5,1 UV-I 717 W/m 16,8 C 6,4 km/h (2 Bft)
28.08.2016 14:35 27,2 C 27,2 C 54 % 1015,2 hPa 0,0 mm 5,5 km/h (1 Bft) W-NW 292 1 min 0,000 mm 5,1 UV-I 721 W/m 17,1 C 9,7 km/h (2 Bft)
28.08.2016 14:36 27,2 C 27,2 C 55 % 1015,2 hPa 0,0 mm 4,7 km/h (1 Bft) W 281 1 min 0,000 mm 5,1 UV-I 715 W/m 17,4 C 6,4 km/h (2 Bft)
28.08.2016 14:37 27,2 C 27,2 C 51 % 1015,2 hPa 0,0 mm 6,2 km/h (2 Bft) W 280 1 min 0,000 mm 5,1 UV-I 712 W/m 16,2 C 9,7 km/h (2 Bft)
28.08.2016 14:38 27,2 C 27,2 C 52 % 1015,1 hPa 0,0 mm 3,0 km/h (1 Bft) SW 217 1 min 0,000 mm 5,0 UV-I 712 W/m 16,5 C 6,4 km/h (2 Bft)
28.08.2016 14:39 27,2 C 27,2 C 52 % 1015,2 hPa 0,0 mm 5,4 km/h (1 Bft) W-SW 258 1 min 0,000 mm 5,1 UV-I 715 W/m 16,5 C 9,7 km/h (2 Bft)
28.08.2016 14:40 27,2 C 27,2 C 53 % 1015,1 hPa 0,0 mm 7,9 km/h (2 Bft) W 265 1 min 0,000 mm 5,2 UV-I 715 W/m 16,8 C 11,3 km/h (2 Bft)
28.08.2016 14:41 27,3 C 27,3 C 51 % 1015,1 hPa 0,0 mm 5,2 km/h (1 Bft) W-NW 294 1 min 0,000 mm 5,2 UV-I 714 W/m 16,3 C 6,4 km/h (2 Bft)
28.08.2016 14:42 27,3 C 27,3 C 53 % 1015,1 hPa 0,0 mm 3,4 km/h (1 Bft) W 277 1 min 0,000 mm 5,2 UV-I 710 W/m 16,9 C 4,8 km/h (1 Bft)
28.08.2016 14:43 27,3 C 27,3 C 52 % 1015,1 hPa 0,0 mm 3,8 km/h (1 Bft) W 280 1 min 0,000 mm 5,2 UV-I 705 W/m 16,6 C 9,7 km/h (2 Bft)
28.08.2016 14:44 27,3 C 27,3 C 52 % 1015,1 hPa 0,0 mm 5,9 km/h (2 Bft) NW 317 1 min 0,000 mm 5,1 UV-I 696 W/m 16,6 C 8,0 km/h (2 Bft)
28.08.2016 14:45 27,4 C 27,4 C 56 % 1015,0 hPa 0,0 mm 6,5 km/h (2 Bft) W 277 1 min 0,000 mm 5,0 UV-I 682 W/m 17,8 C 8,0 km/h (2 Bft)
28.08.2016 14:46 27,4 C 27,4 C 54 % 1015,0 hPa 0,0 mm 9,2 km/h (2 Bft) W-NW 284 1 min 0,000 mm 5,0 UV-I 679 W/m 17,3 C 12,9 km/h (3 Bft)
28.08.2016 14:47 27,4 C 27,4 C 51 % 1015,0 hPa 0,0 mm 8,0 km/h (2 Bft) W-NW 290 1 min 0,000 mm 4,9 UV-I 671 W/m 16,3 C 12,9 km/h (3 Bft)
28.08.2016 14:48 27,4 C 27,4 C 54 % 1015,0 hPa 0,0 mm 6,6 km/h (2 Bft) W 274 1 min 0,000 mm 4,9 UV-I 671 W/m 17,3 C 9,7 km/h (2 Bft)
28.08.2016 14:49 27,4 C 27,4 C 52 % 1015,0 hPa 0,0 mm 5,4 km/h (1 Bft) W-NW 291 1 min 0,000 mm 4,9 UV-I 671 W/m 16,7 C 9,7 km/h (2 Bft)
28.08.2016 14:50 27,3 C 27,4 C 53 % 1015,0 hPa 0,0 mm 8,5 km/h (2 Bft) NW 306 1 min 0,000 mm 4,9 UV-I 670 W/m 16,9 C 12,9 km/h (3 Bft)
28.08.2016 14:51 27,4 C 27,4 C 57 % 1015,0 hPa 0,0 mm 5,2 km/h (1 Bft) W 279 1 min 0,000 mm 4,9 UV-I 670 W/m 18,1 C 11,3 km/h (2 Bft)
28.08.2016 14:52 27,3 C 27,4 C 53 % 1014,9 hPa 0,0 mm 6,3 km/h (2 Bft) W 281 1 min 0,000 mm 4,9 UV-I 673 W/m 16,9 C 11,3 km/h (2 Bft)
28.08.2016 14:53 27,3 C 27,3 C 54 % 1015,0 hPa 0,0 mm 8,2 km/h (2 Bft) W-NW 296 1 min 0,000 mm 4,9 UV-I 677 W/m 17,2 C 12,9 km/h (3 Bft)
28.08.2016 14:54 27,2 C 27,3 C 50 % 1015,0 hPa 0,0 mm 7,0 km/h (2 Bft) W-NW 286 1 min 0,000 mm 4,9 UV-I 680 W/m 15,9 C 9,7 km/h (2 Bft)
28.08.2016 14:55 27,2 C 27,3 C 50 % 1014,9 hPa 0,0 mm 9,1 km/h (2 Bft) W-NW 296 1 min 0,000 mm 4,9 UV-I 680 W/m 15,9 C 11,3 km/h (2 Bft)
28.08.2016 14:56 27,2 C 27,2 C 50 % 1015,0 hPa 0,0 mm 5,1 km/h (1 Bft) W-NW 292 1 min 0,000 mm 4,9 UV-I 677 W/m 15,9 C 6,4 km/h (2 Bft)
28.08.2016 14:57 27,1 C 27,2 C 52 % 1014,9 hPa 0,0 mm 3,5 km/h (1 Bft) W 280 1 min 0,000 mm 4,7 UV-I 671 W/m 16,4 C 9,7 km/h (2 Bft)
28.08.2016 14:58 27,1 C 27,1 C 53 % 1014,9 hPa 0,0 mm 3,3 km/h (1 Bft) W 273 1 min 0,000 mm 4,7 UV-I 668 W/m 16,7 C 4,8 km/h (1 Bft)
28.08.2016 14:59 27,1 C 27,1 C 52 % 1014,9 hPa 0,0 mm 4,4 km/h (1 Bft) NW 317 1 min 0,000 mm 4,6 UV-I 666 W/m 16,4 C 8,0 km/h (2 Bft)
28.08.2016 15:00 27,2 C 27,2 C 54 % 1014,9 hPa 0,0 mm 8,8 km/h (2 Bft) NW 324 1 min 0,508 mm 4,6 UV-I 666 W/m 17,1 C 11,3 km/h (2 Bft)
28.08.2016 15:01 27,2 C 27,2 C 52 % 1014,9 hPa 0,0 mm 10,9 km/h (2 Bft) W-NW 283 1 min 0,000 mm 4,5 UV-I 668 W/m 16,5 C 14,5 km/h (3 Bft)
28.08.2016 15:03 27,2 C 27,2 C 53 % 1014,9 hPa 0,0 mm 6,4 km/h (2 Bft) NW 315 2 min 0,000 mm 4,5 UV-I 670 W/m 16,8 C 11,3 km/h (2 Bft)
28.08.2016 15:04 27,3 C 27,3 C 51 % 1014,9 hPa 0,0 mm 6,3 km/h (2 Bft) W-NW 289 1 min 0,000 mm 4,5 UV-I 668 W/m 16,3 C 11,3 km/h (2 Bft)
28.08.2016 15:05 27,3 C 27,3 C 51 % 1014,9 hPa 0,0 mm 2,1 km/h (1 Bft) NW 306 1 min 0,000 mm 4,5 UV-I 670 W/m 16,3 C 4,8 km/h (1 Bft)
28.08.2016 15:06 27,3 C 27,3 C 51 % 1014,9 hPa 0,0 mm 2,5 km/h (1 Bft) N 350 1 min 0,000 mm 4,5 UV-I 670 W/m 16,3 C 4,8 km/h (1 Bft)
28.08.2016 15:07 27,4 C 27,4 C 51 % 1014,9 hPa 0,0 mm 4,8 km/h (1 Bft) W 277 1 min 0,000 mm 4,5 UV-I 668 W/m 16,3 C 8,0 km/h (2 Bft)
28.08.2016 15:08 27,4 C 27,4 C 50 % 1014,9 hPa 0,0 mm 5,5 km/h (1 Bft) W-NW 296 1 min 0,000 mm 4,4 UV-I 668 W/m 16,0 C 9,7 km/h (2 Bft)
28.08.2016 15:09 27,4 C 27,4 C 51 % 1014,9 hPa 0,0 mm 8,2 km/h (2 Bft) NW 318 1 min 0,000 mm 4,4 UV-I 668 W/m 16,3 C 14,5 km/h (3 Bft)
28.08.2016 15:10 27,4 C 27,4 C 53 % 1014,9 hPa 0,0 mm 5,0 km/h (1 Bft) W-NW 287 1 min 0,000 mm 4,3 UV-I 664 W/m 17,0 C 8,0 km/h (2 Bft)
28.08.2016 15:11 27,4 C 27,5 C 52 % 1014,9 hPa 0,0 mm 3,2 km/h (1 Bft) W-NW 283 1 min 0,000 mm 4,3 UV-I 663 W/m 16,7 C 4,8 km/h (1 Bft)
28.08.2016 15:12 27,4 C 27,4 C 54 % 1014,9 hPa 0,0 mm 2,4 km/h (1 Bft) W 281 1 min 0,000 mm 4,3 UV-I 661 W/m 17,3 C 4,8 km/h (1 Bft)
28.08.2016 15:13 27,3 C 27,4 C 49 % 1014,9 hPa 0,0 mm 4,7 km/h (1 Bft) W 279 1 min 0,000 mm 4,3 UV-I 654 W/m 15,6 C 8,0 km/h (2 Bft)
28.08.2016 15:14 27,3 C 27,4 C 51 % 1014,9 hPa 0,0 mm 1,4 km/h (1 Bft) W 265 1 min 0,000 mm 4,3 UV-I 654 W/m 16,3 C 1,6 km/h (1 Bft)
28.08.2016 15:15 27,3 C 27,3 C 49 % 1014,9 hPa 0,0 mm 3,8 km/h (1 Bft) W-NW 295 1 min 0,000 mm 4,3 UV-I 652 W/m 15,6 C 4,8 km/h (1 Bft)
28.08.2016 15:16 27,3 C 27,3 C 50 % 1014,8 hPa 0,0 mm 3,3 km/h (1 Bft) NW 315 1 min 0,000 mm 4,3 UV-I 650 W/m 15,9 C 8,0 km/h (2 Bft)
28.08.2016 15:17 27,3 C 27,4 C 50 % 1014,9 hPa 0,0 mm 6,4 km/h (2 Bft) N-NW 329 1 min 0,000 mm 4,3 UV-I 645 W/m 15,9 C 9,7 km/h (2 Bft)
28.08.2016 15:18 27,3 C 27,3 C 51 % 1014,9 hPa 0,0 mm 3,8 km/h (1 Bft) NW 315 1 min 0,000 mm 4,3 UV-I 642 W/m 16,3 C 8,0 km/h (2 Bft)
28.08.2016 15:19 27,3 C 27,3 C 51 % 1014,9 hPa 0,0 mm 4,6 km/h (1 Bft) NW 316 1 min 0,000 mm 4,2 UV-I 636 W/m 16,3 C 8,0 km/h (2 Bft)
28.08.2016 15:20 27,3 C 27,3 C 51 % 1014,9 hPa 0,0 mm 7,3 km/h (2 Bft) NW 310 1 min 0,000 mm 4,1 UV-I 631 W/m 16,3 C 11,3 km/h (2 Bft)
28.08.2016 15:21 27,3 C 27,3 C 53 % 1014,9 hPa 0,0 mm 5,9 km/h (2 Bft) NW 319 1 min 0,000 mm 4,1 UV-I 631 W/m 16,9 C 11,3 km/h (2 Bft)
28.08.2016 15:22 27,3 C 27,3 C 50 % 1014,9 hPa 0,0 mm 4,6 km/h (1 Bft) NW 313 1 min 0,000 mm 4,1 UV-I 631 W/m 15,9 C 8,0 km/h (2 Bft)
28.08.2016 15:23 27,3 C 27,4 C 50 % 1014,9 hPa 0,0 mm 3,8 km/h (1 Bft) NW 319 1 min 0,000 mm 4,2 UV-I 633 W/m 15,9 C 6,4 km/h (2 Bft)
28.08.2016 15:24 27,4 C 27,4 C 50 % 1014,8 hPa 0,0 mm 4,5 km/h (1 Bft) NW 313 1 min 0,000 mm 4,2 UV-I 631 W/m 16,0 C 4,8 km/h (1 Bft)
28.08.2016 15:25 27,4 C 27,4 C 51 % 1014,9 hPa 0,0 mm 3,0 km/h (1 Bft) N-NW 334 1 min 0,000 mm 4,2 UV-I 628 W/m 16,3 C 3,2 km/h (1 Bft)
28.08.2016 15:26 27,4 C 27,4 C 52 % 1014,9 hPa 0,0 mm 1,3 km/h (1 Bft) N-NW 333 1 min 0,000 mm 4,2 UV-I 626 W/m 16,7 C 3,2 km/h (1 Bft)
28.08.2016 15:27 27,4 C 27,4 C 51 % 1014,9 hPa 0,0 mm 8,3 km/h (2 Bft) W-SW 252 1 min 0,000 mm 4,3 UV-I 624 W/m 16,3 C 12,9 km/h (3 Bft)
28.08.2016 15:28 27,3 C 27,4 C 50 % 1014,9 hPa 0,0 mm 3,8 km/h (1 Bft) W-NW 291 1 min 0,000 mm 4,3 UV-I 622 W/m 15,9 C 4,8 km/h (1 Bft)
28.08.2016 15:29 27,3 C 27,3 C 54 % 1014,9 hPa 0,0 mm 7,3 km/h (2 Bft) NW 319 1 min 0,000 mm 4,2 UV-I 619 W/m 17,2 C 16,1 km/h (3 Bft)
28.08.2016 15:30 27,4 C 27,4 C 53 % 1014,8 hPa 0,0 mm 10,0 km/h (2 Bft) W-NW 290 1 min 0,000 mm 4,2 UV-I 617 W/m 17,0 C 17,7 km/h (3 Bft)
28.08.2016 15:31 27,4 C 27,5 C 53 % 1014,9 hPa 0,0 mm 7,5 km/h (2 Bft) W 279 1 min 0,000 mm 4,2 UV-I 615 W/m 17,0 C 11,3 km/h (2 Bft)
28.08.2016 15:32 27,4 C 27,4 C 48 % 1014,9 hPa 0,0 mm 6,4 km/h (2 Bft) W-NW 296 1 min 0,000 mm 4,2 UV-I 615 W/m 15,4 C 9,7 km/h (2 Bft)
28.08.2016 15:33 27,4 C 27,4 C 49 % 1014,9 hPa 0,0 mm 2,4 km/h (1 Bft) W 279 1 min 0,000 mm 4,2 UV-I 619 W/m 15,7 C 4,8 km/h (1 Bft)
28.08.2016 15:34 27,4 C 27,4 C 51 % 1014,9 hPa 0,0 mm 4,8 km/h (1 Bft) W-NW 292 1 min 0,000 mm 4,2 UV-I 615 W/m 16,3 C 8,0 km/h (2 Bft)
28.08.2016 15:35 27,5 C 27,5 C 54 % 1014,8 hPa 0,0 mm 1,6 km/h (1 Bft) W-NW 291 1 min 0,000 mm 4,2 UV-I 615 W/m 17,3 C 1,6 km/h (1 Bft)
28.08.2016 15:36 27,5 C 27,5 C 52 % 1014,8 hPa 0,0 mm 4,7 km/h (1 Bft) W-NW 299 1 min 0,000 mm 4,2 UV-I 610 W/m 16,7 C 8,0 km/h (2 Bft)
28.08.2016 15:37 27,5 C 27,5 C 51 % 1014,8 hPa 0,0 mm 7,9 km/h (2 Bft) NW 316 1 min 0,000 mm 4,1 UV-I 606 W/m 16,4 C 11,3 km/h (2 Bft)
28.08.2016 15:38 27,6 C 27,6 C 52 % 1014,8 hPa 0,0 mm 7,1 km/h (2 Bft) N-NW 328 1 min 0,000 mm 4,1 UV-I 603 W/m 16,8 C 9,7 km/h (2 Bft)
28.08.2016 15:39 27,6 C 27,6 C 54 % 1014,8 hPa 0,0 mm 3,7 km/h (1 Bft) W-NW 292 1 min 0,000 mm 4,0 UV-I 599 W/m 17,4 C 6,4 km/h (2 Bft)
28.08.2016 15:40 27,6 C 27,6 C 51 % 1014,8 hPa 0,0 mm 4,6 km/h (1 Bft) W-NW 291 1 min 0,000 mm 4,0 UV-I 598 W/m 16,5 C 6,4 km/h (2 Bft)
28.08.2016 15:41 27,6 C 27,6 C 50 % 1014,8 hPa 0,0 mm 4,2 km/h (1 Bft) N-NW 333 1 min 0,000 mm 4,0 UV-I 598 W/m 16,2 C 6,4 km/h (2 Bft)
28.08.2016 15:42 27,6 C 27,6 C 50 % 1014,8 hPa 0,0 mm 4,8 km/h (1 Bft) W-NW 297 1 min 0,000 mm 4,0 UV-I 599 W/m 16,2 C 8,0 km/h (2 Bft)
28.08.2016 15:43 27,6 C 27,6 C 51 % 1014,8 hPa 0,0 mm 8,0 km/h (2 Bft) NW 316 1 min 0,000 mm 4,0 UV-I 599 W/m 16,5 C 12,9 km/h (3 Bft)
28.08.2016 15:44 27,6 C 27,6 C 56 % 1014,8 hPa 0,0 mm 7,2 km/h (2 Bft) W 267 1 min 0,000 mm 4,0 UV-I 601 W/m 18,0 C 9,7 km/h (2 Bft)
28.08.2016 15:45 27,7 C 27,7 C 50 % 1014,8 hPa 0,0 mm 6,2 km/h (2 Bft) W 266 1 min 0,000 mm 4,0 UV-I 601 W/m 16,3 C 9,7 km/h (2 Bft)
28.08.2016 15:46 27,6 C 27,7 C 51 % 1014,8 hPa 0,0 mm 4,4 km/h (1 Bft) N-NW 336 1 min 0,000 mm 4,0 UV-I 601 W/m 16,5 C 8,0 km/h (2 Bft)
28.08.2016 15:47 27,6 C 27,7 C 51 % 1014,8 hPa 0,0 mm 4,6 km/h (1 Bft) NW 314 1 min 0,000 mm 3,9 UV-I 598 W/m 16,5 C 6,4 km/h (2 Bft)
28.08.2016 15:48 27,6 C 27,7 C 49 % 1014,8 hPa 0,0 mm 6,4 km/h (2 Bft) W-NW 300 1 min 0,000 mm 3,9 UV-I 591 W/m 15,9 C 9,7 km/h (2 Bft)
28.08.2016 15:49 27,6 C 27,6 C 51 % 1014,8 hPa 0,0 mm 9,1 km/h (2 Bft) NW 308 1 min 0,000 mm 3,8 UV-I 589 W/m 16,5 C 16,1 km/h (3 Bft)
28.08.2016 15:50 27,6 C 27,6 C 52 % 1014,8 hPa 0,0 mm 7,6 km/h (2 Bft) W-NW 294 1 min 0,000 mm 3,8 UV-I 587 W/m 16,8 C 11,3 km/h (2 Bft)
28.08.2016 15:51 27,5 C 27,6 C 49 % 1014,7 hPa 0,0 mm 9,2 km/h (2 Bft) N-NW 327 1 min 0,000 mm 3,8 UV-I 591 W/m 15,8 C 11,3 km/h (2 Bft)
28.08.2016 15:52 27,6 C 27,6 C 52 % 1014,8 hPa 0,0 mm 10,5 km/h (2 Bft) W-NW 289 1 min 0,000 mm 3,8 UV-I 592 W/m 16,8 C 12,9 km/h (3 Bft)
28.08.2016 15:53 27,6 C 27,6 C 51 % 1014,7 hPa 0,0 mm 10,6 km/h (2 Bft) W-NW 295 1 min 0,000 mm 3,8 UV-I 594 W/m 16,5 C 16,1 km/h (3 Bft)
28.08.2016 15:54 27,5 C 27,6 C 49 % 1014,7 hPa 0,0 mm 4,7 km/h (1 Bft) NW 311 1 min 0,000 mm 3,9 UV-I 594 W/m 15,8 C 8,0 km/h (2 Bft)
28.08.2016 15:55 27,5 C 27,6 C 49 % 1014,7 hPa 0,0 mm 9,8 km/h (2 Bft) W 277 1 min 0,000 mm 3,8 UV-I 587 W/m 15,8 C 12,9 km/h (3 Bft)
28.08.2016 15:56 27,4 C 27,5 C 50 % 1014,7 hPa 0,0 mm 8,3 km/h (2 Bft) NW 325 1 min 0,000 mm 3,7 UV-I 580 W/m 16,0 C 11,3 km/h (2 Bft)
28.08.2016 15:57 27,4 C 27,4 C 53 % 1014,7 hPa 0,0 mm 5,6 km/h (1 Bft) W-NW 286 1 min 0,000 mm 3,7 UV-I 580 W/m 17,0 C 6,4 km/h (2 Bft)
28.08.2016 15:58 27,4 C 27,4 C 51 % 1014,7 hPa 0,0 mm 5,0 km/h (1 Bft) W 266 1 min 0,000 mm 3,7 UV-I 584 W/m 16,3 C 9,7 km/h (2 Bft)
28.08.2016 15:59 27,4 C 27,4 C 49 % 1014,7 hPa 0,0 mm 5,4 km/h (1 Bft) W-NW 284 1 min 0,000 mm 3,7 UV-I 584 W/m 15,7 C 9,7 km/h (2 Bft)
28.08.2016 16:00 27,4 C 27,4 C 48 % 1014,8 hPa 0,0 mm 2,1 km/h (1 Bft) W-SW 248 1 min 0,000 mm 3,7 UV-I 578 W/m 15,4 C 3,2 km/h (1 Bft)
28.08.2016 16:01 27,3 C 27,4 C 50 % 1014,7 hPa 0,0 mm 9,0 km/h (2 Bft) W-SW 258 1 min 0,457 mm 3,6 UV-I 573 W/m 15,9 C 12,9 km/h (3 Bft)
28.08.2016 16:02 27,3 C 27,3 C 50 % 1014,7 hPa 0,0 mm 7,2 km/h (2 Bft) W-NW 283 1 min 0,001 mm 3,6 UV-I 570 W/m 15,9 C 12,9 km/h (3 Bft)
28.08.2016 16:03 27,3 C 27,3 C 53 % 1014,7 hPa 0,0 mm 9,7 km/h (2 Bft) W-NW 286 1 min 0,000 mm 3,6 UV-I 568 W/m 16,9 C 11,3 km/h (2 Bft)
28.08.2016 16:04 27,3 C 27,3 C 53 % 1014,7 hPa 0,0 mm 6,5 km/h (2 Bft) W 266 1 min 0,000 mm 3,6 UV-I 568 W/m 16,9 C 11,3 km/h (2 Bft)
28.08.2016 16:05 27,3 C 27,3 C 52 % 1014,7 hPa 0,0 mm 5,3 km/h (1 Bft) W 273 1 min 0,000 mm 3,6 UV-I 570 W/m 16,6 C 11,3 km/h (2 Bft)
28.08.2016 16:06 27,2 C 27,3 C 54 % 1014,7 hPa 0,0 mm 5,9 km/h (2 Bft) W-NW 297 1 min 0,000 mm 3,6 UV-I 554 W/m 17,1 C 9,7 km/h (2 Bft)
28.08.2016 16:07 27,3 C 27,3 C 52 % 1014,7 hPa 0,0 mm 6,0 km/h (2 Bft) W-NW 282 1 min 0,000 mm 3,5 UV-I 550 W/m 16,6 C 8,0 km/h (2 Bft)
28.08.2016 16:08 27,3 C 27,3 C 51 % 1014,7 hPa 0,0 mm 6,9 km/h (2 Bft) W-SW 250 1 min 0,000 mm 3,4 UV-I 545 W/m 16,3 C 9,7 km/h (2 Bft)
28.08.2016 16:09 27,3 C 27,3 C 50 % 1014,7 hPa 0,0 mm 3,6 km/h (1 Bft) W-NW 298 1 min 0,000 mm 3,4 UV-I 510 W/m 15,9 C 4,8 km/h (1 Bft)
28.08.2016 16:10 27,3 C 27,3 C 51 % 1014,7 hPa 0,0 mm 4,5 km/h (1 Bft) N-NW 327 1 min 0,000 mm 3,5 UV-I 550 W/m 16,3 C 6,4 km/h (2 Bft)
28.08.2016 16:11 27,3 C 27,3 C 53 % 1014,7 hPa 0,0 mm 5,8 km/h (2 Bft) W 279 1 min 0,000 mm 3,4 UV-I 548 W/m 16,9 C 9,7 km/h (2 Bft)
28.08.2016 16:12 27,3 C 27,3 C 51 % 1014,6 hPa 0,0 mm 3,5 km/h (1 Bft) W 280 1 min 0,000 mm 3,4 UV-I 555 W/m 16,3 C 4,8 km/h (1 Bft)
28.08.2016 16:13 27,3 C 27,3 C 54 % 1014,7 hPa 0,0 mm 5,6 km/h (1 Bft) W 267 1 min 0,000 mm 2,2 UV-I 555 W/m 17,2 C 9,7 km/h (2 Bft)
28.08.2016 16:14 27,1 C 27,3 C 51 % 1014,7 hPa 0,0 mm 4,9 km/h (1 Bft) W 271 0 min 0,000 mm 2,1 UV-I 100 W/m 16,1 C 6,4 km/h (2 Bft)
28.08.2016 16:15 27,1 C 27,1 C 50 % 1014,7 hPa 0,0 mm 2,9 km/h (1 Bft) W-NW 300 0 min 0,000 mm 2,1 UV-I 105 W/m 15,8 C 4,8 km/h (1 Bft)
28.08.2016 16:16 26,9 C 27,1 C 53 % 1014,7 hPa 0,0 mm 1,9 km/h (1 Bft) N 349 0 min 0,000 mm 3,2 UV-I 105 W/m 16,5 C 3,2 km/h (1 Bft)
28.08.2016 16:17 26,8 C 26,9 C 57 % 1014,7 hPa 0,0 mm 1,2 km/h (1 Bft) N 355 1 min 0,000 mm 3,2 UV-I 561 W/m 17,6 C 4,8 km/h (1 Bft)
28.08.2016 16:18 26,9 C 26,9 C 52 % 1014,7 hPa 0,0 mm 4,5 km/h (1 Bft) N-NW 342 1 min 0,000 mm 2,9 UV-I 561 W/m 16,2 C 9,7 km/h (2 Bft)
28.08.2016 16:19 26,9 C 27,0 C 52 % 1014,6 hPa 0,0 mm 6,1 km/h (2 Bft) N-NW 335 1 min 0,000 mm 2,4 UV-I 561 W/m 16,2 C 8,0 km/h (2 Bft)
28.08.2016 16:20 27,1 C 27,1 C 53 % 1014,6 hPa 0,0 mm 2,1 km/h (1 Bft) N-NW 340 0 min 0,000 mm 2,4 UV-I 148 W/m 16,7 C 3,2 km/h (1 Bft)
28.08.2016 16:21 27,1 C 27,1 C 51 % 1014,7 hPa 0,0 mm 3,9 km/h (1 Bft) NW 307 0 min 0,000 mm 2,3 UV-I 160 W/m 16,1 C 6,4 km/h (2 Bft)
28.08.2016 16:22 27,2 C 27,2 C 52 % 1014,6 hPa 0,0 mm 2,9 km/h (1 Bft) W-NW 303 0 min 0,000 mm 2,3 UV-I 192 W/m 16,5 C 3,2 km/h (1 Bft)
28.08.2016 16:23 27,2 C 27,2 C 50 % 1014,6 hPa 0,0 mm 1,5 km/h (1 Bft) W-NW 303 0 min 0,000 mm 2,3 UV-I 137 W/m 15,9 C 3,2 km/h (1 Bft)
28.08.2016 16:24 27,2 C 27,2 C 50 % 1014,6 hPa 0,0 mm 1,8 km/h (1 Bft) W-NW 302 0 min 0,000 mm 2,2 UV-I 134 W/m 15,9 C 4,8 km/h (1 Bft)
28.08.2016 16:25 27,2 C 27,2 C 51 % 1014,5 hPa 0,0 mm 4,0 km/h (1 Bft) NW 324 0 min 0,000 mm 2,2 UV-I 128 W/m 16,2 C 4,8 km/h (1 Bft)
28.08.2016 16:26 27,3 C 27,3 C 52 % 1014,6 hPa 0,0 mm 4,9 km/h (1 Bft) W-NW 295 0 min 0,000 mm 2,2 UV-I 123 W/m 16,6 C 8,0 km/h (2 Bft)
28.08.2016 16:27 27,3 C 27,3 C 50 % 1014,6 hPa 0,0 mm 4,2 km/h (1 Bft) W-NW 297 0 min 0,000 mm 2,2 UV-I 118 W/m 15,9 C 6,4 km/h (2 Bft)
28.08.2016 16:28 27,3 C 27,3 C 53 % 1014,5 hPa 0,0 mm 6,0 km/h (2 Bft) NW 306 0 min 0,000 mm 2,1 UV-I 113 W/m 16,9 C 8,0 km/h (2 Bft)
28.08.2016 16:29 27,3 C 27,3 C 51 % 1014,6 hPa 0,0 mm 7,1 km/h (2 Bft) NW 321 0 min 0,000 mm 2,1 UV-I 105 W/m 16,3 C 12,9 km/h (3 Bft)
28.08.2016 16:30 27,3 C 27,3 C 51 % 1014,5 hPa 0,0 mm 8,5 km/h (2 Bft) W-NW 302 0 min 0,000 mm 2,1 UV-I 104 W/m 16,3 C 11,3 km/h (2 Bft)
28.08.2016 16:31 27,3 C 27,3 C 53 % 1014,5 hPa 0,0 mm 7,1 km/h (2 Bft) W-NW 287 0 min 0,000 mm 2,1 UV-I 107 W/m 16,9 C 12,9 km/h (3 Bft)
28.08.2016 16:32 27,3 C 27,3 C 55 % 1014,5 hPa 0,0 mm 5,7 km/h (1 Bft) NW 304 0 min 0,000 mm 2,1 UV-I 105 W/m 17,4 C 9,7 km/h (2 Bft)
28.08.2016 16:33 27,3 C 27,3 C 49 % 1014,6 hPa 0,0 mm 5,0 km/h (1 Bft) W 281 0 min 0,000 mm 2,0 UV-I 104 W/m 15,6 C 6,4 km/h (2 Bft)
28.08.2016 16:34 27,3 C 27,3 C 49 % 1014,5 hPa 0,0 mm 4,7 km/h (1 Bft) W-NW 288 0 min 0,000 mm 2,0 UV-I 104 W/m 15,6 C 8,0 km/h (2 Bft)
28.08.2016 16:35 27,3 C 27,3 C 49 % 1014,5 hPa 0,0 mm 3,4 km/h (1 Bft) W-NW 288 0 min 0,000 mm 2,0 UV-I 90 W/m 15,6 C 4,8 km/h (1 Bft)
28.08.2016 16:36 27,3 C 27,3 C 51 % 1014,5 hPa 0,0 mm 4,8 km/h (1 Bft) W-SW 238 0 min 0,000 mm 1,9 UV-I 84 W/m 16,3 C 11,3 km/h (2 Bft)
28.08.2016 16:37 27,2 C 27,3 C 51 % 1014,5 hPa 0,0 mm 7,0 km/h (2 Bft) W 273 0 min 0,000 mm 1,9 UV-I 79 W/m 16,2 C 9,7 km/h (2 Bft)
28.08.2016 16:38 27,1 C 27,2 C 51 % 1014,5 hPa 0,0 mm 3,5 km/h (1 Bft) W 269 0 min 0,000 mm 1,9 UV-I 72 W/m 16,1 C 4,8 km/h (1 Bft)
28.08.2016 16:39 27,1 C 27,1 C 51 % 1014,4 hPa 0,0 mm 3,8 km/h (1 Bft) N-NW 329 0 min 0,000 mm 1,9 UV-I 70 W/m 16,1 C 6,4 km/h (2 Bft)
28.08.2016 16:40 27,1 C 27,1 C 52 % 1014,4 hPa 0,0 mm 5,4 km/h (1 Bft) W-NW 294 0 min 0,000 mm 1,9 UV-I 72 W/m 16,4 C 8,0 km/h (2 Bft)
28.08.2016 16:41 27,2 C 27,2 C 52 % 1014,5 hPa 0,0 mm 7,7 km/h (2 Bft) W-NW 284 0 min 0,000 mm 1,9 UV-I 67 W/m 16,5 C 9,7 km/h (2 Bft)
28.08.2016 16:42 27,2 C 27,2 C 52 % 1014,5 hPa 0,0 mm 4,7 km/h (1 Bft) W 276 0 min 0,000 mm 1,8 UV-I 67 W/m 16,5 C 6,4 km/h (2 Bft)
28.08.2016 16:43 27,2 C 27,2 C 52 % 1014,5 hPa 0,0 mm 6,4 km/h (2 Bft) W-NW 284 0 min 0,000 mm 1,8 UV-I 67 W/m 16,5 C 11,3 km/h (2 Bft)
28.08.2016 16:44 27,2 C 27,2 C 54 % 1014,5 hPa 0,0 mm 3,7 km/h (1 Bft) W 270 0 min 0,000 mm 1,8 UV-I 65 W/m 17,1 C 9,7 km/h (2 Bft)
28.08.2016 16:45 27,1 C 27,2 C 51 % 1014,6 hPa 0,0 mm 5,7 km/h (1 Bft) W-NW 282 0 min 0,000 mm 1,8 UV-I 69 W/m 16,1 C 9,7 km/h (2 Bft)
28.08.2016 16:46 27,1 C 27,1 C 49 % 1014,6 hPa 0,0 mm 4,7 km/h (1 Bft) W-NW 303 0 min 0,000 mm 1,8 UV-I 76 W/m 15,4 C 6,4 km/h (2 Bft)
28.08.2016 16:47 27,1 C 27,1 C 50 % 1014,6 hPa 0,0 mm 4,8 km/h (1 Bft) W 274 0 min 0,000 mm 1,8 UV-I 72 W/m 15,8 C 9,7 km/h (2 Bft)
28.08.2016 16:48 27,1 C 27,1 C 51 % 1014,6 hPa 0,0 mm 4,1 km/h (1 Bft) NW 304 0 min 0,000 mm 1,8 UV-I 67 W/m 16,1 C 6,4 km/h (2 Bft)
28.08.2016 16:49 27,1 C 27,1 C 50 % 1014,6 hPa 0,0 mm 5,1 km/h (1 Bft) NW 304 0 min 0,000 mm 1,7 UV-I 65 W/m 15,8 C 8,0 km/h (2 Bft)
28.08.2016 16:50 27,1 C 27,1 C 49 % 1014,6 hPa 0,0 mm 3,8 km/h (1 Bft) NW 304 0 min 0,000 mm 1,7 UV-I 63 W/m 15,4 C 6,4 km/h (2 Bft)
28.08.2016 16:51 27,0 C 27,1 C 50 % 1014,5 hPa 0,0 mm 3,5 km/h (1 Bft) W 279 0 min 0,000 mm 1,7 UV-I 63 W/m 15,7 C 4,8 km/h (1 Bft)
28.08.2016 16:52 27,0 C 27,1 C 50 % 1014,6 hPa 0,0 mm 5,1 km/h (1 Bft) NW 304 0 min 0,000 mm 1,7 UV-I 63 W/m 15,7 C 6,4 km/h (2 Bft)
28.08.2016 16:53 27,1 C 27,1 C 51 % 1014,6 hPa 0,0 mm 3,6 km/h (1 Bft) W 261 0 min 0,000 mm 1,7 UV-I 63 W/m 16,1 C 6,4 km/h (2 Bft)
28.08.2016 16:54 27,0 C 27,1 C 51 % 1014,5 hPa 0,0 mm 4,2 km/h (1 Bft) W-SW 249 0 min 0,000 mm 1,7 UV-I 62 W/m 16,0 C 8,0 km/h (2 Bft)
28.08.2016 16:55 26,9 C 27,0 C 53 % 1014,5 hPa 0,0 mm 6,3 km/h (2 Bft) W 262 0 min 0,000 mm 1,7 UV-I 62 W/m 16,5 C 11,3 km/h (2 Bft)
28.08.2016 16:56 26,9 C 26,9 C 50 % 1014,5 hPa 0,0 mm 4,6 km/h (1 Bft) W-SW 252 0 min 0,000 mm 1,7 UV-I 62 W/m 15,6 C 6,4 km/h (2 Bft)
28.08.2016 16:57 26,9 C 26,9 C 49 % 1014,6 hPa 0,0 mm 4,8 km/h (1 Bft) W-SW 244 0 min 0,000 mm 1,7 UV-I 62 W/m 15,3 C 6,4 km/h (2 Bft)
28.08.2016 16:58 26,9 C 26,9 C 51 % 1014,5 hPa 0,0 mm 4,1 km/h (1 Bft) SW 234 0 min 0,000 mm 1,7 UV-I 62 W/m 15,9 C 6,4 km/h (2 Bft)
28.08.2016 16:59 26,9 C 26,9 C 50 % 1014,5 hPa 0,0 mm 3,5 km/h (1 Bft) W-SW 239 0 min 0,000 mm 1,6 UV-I 62 W/m 15,6 C 6,4 km/h (2 Bft)
28.08.2016 17:00 26,9 C 26,9 C 49 % 1014,5 hPa 0,0 mm 2,4 km/h (1 Bft) W 267 0 min 0,000 mm 1,6 UV-I 63 W/m 15,3 C 6,4 km/h (2 Bft)
28.08.2016 17:01 26,9 C 26,9 C 54 % 1014,5 hPa 0,0 mm 4,3 km/h (1 Bft) W 271 0 min 0,177 mm 1,7 UV-I 69 W/m 16,8 C 4,8 km/h (1 Bft)
28.08.2016 17:02 26,9 C 26,9 C 53 % 1014,5 hPa 0,0 mm 4,9 km/h (1 Bft) W 272 0 min 0,000 mm 1,6 UV-I 79 W/m 16,5 C 6,4 km/h (2 Bft)
28.08.2016 17:03 26,9 C 26,9 C 53 % 1014,5 hPa 0,0 mm 3,2 km/h (1 Bft) W-NW 293 0 min 0,000 mm 1,6 UV-I 83 W/m 16,5 C 12,9 km/h (3 Bft)
28.08.2016 17:04 26,9 C 26,9 C 51 % 1014,5 hPa 0,0 mm 6,2 km/h (2 Bft) W 277 0 min 0,000 mm 1,6 UV-I 83 W/m 15,9 C 12,9 km/h (3 Bft)
28.08.2016 17:05 26,9 C 26,9 C 52 % 1014,5 hPa 0,0 mm 7,7 km/h (2 Bft) W-NW 287 0 min 0,000 mm 1,6 UV-I 67 W/m 16,2 C 12,9 km/h (3 Bft)
28.08.2016 17:06 27,0 C 27,0 C 51 % 1014,4 hPa 0,0 mm 5,9 km/h (2 Bft) NW 320 0 min 0,000 mm 1,6 UV-I 53 W/m 16,0 C 11,3 km/h (2 Bft)
28.08.2016 17:07 27,0 C 27,0 C 50 % 1014,4 hPa 0,0 mm 8,0 km/h (2 Bft) W-NW 296 0 min 0,000 mm 1,5 UV-I 63 W/m 15,7 C 12,9 km/h (3 Bft)
28.08.2016 17:08 27,1 C 27,1 C 51 % 1014,4 hPa 0,0 mm 7,3 km/h (2 Bft) W-NW 298 0 min 0,000 mm 1,5 UV-I 62 W/m 16,1 C 12,9 km/h (3 Bft)
28.08.2016 17:09 27,1 C 27,1 C 52 % 1014,4 hPa 0,0 mm 6,6 km/h (2 Bft) W-NW 283 0 min 0,000 mm 1,5 UV-I 60 W/m 16,4 C 12,9 km/h (3 Bft)
28.08.2016 17:10 27,0 C 27,1 C 49 % 1014,4 hPa 0,0 mm 6,2 km/h (2 Bft) NW 313 0 min 0,000 mm 1,5 UV-I 63 W/m 15,4 C 11,3 km/h (2 Bft)
28.08.2016 17:11 27,1 C 27,1 C 52 % 1014,4 hPa 0,0 mm 4,2 km/h (1 Bft) NW 304 0 min 0,000 mm 1,5 UV-I 62 W/m 16,4 C 8,0 km/h (2 Bft)
28.08.2016 17:12 27,0 C 27,1 C 52 % 1014,3 hPa 0,0 mm 4,2 km/h (1 Bft) W-NW 300 0 min 0,000 mm 1,5 UV-I 60 W/m 16,3 C 8,0 km/h (2 Bft)
28.08.2016 17:13 27,0 C 27,0 C 48 % 1014,3 hPa 0,0 mm 3,1 km/h (1 Bft) W-NW 295 0 min 0,000 mm 1,5 UV-I 56 W/m 15,0 C 6,4 km/h (2 Bft)
28.08.2016 17:14 26,9 C 27,0 C 50 % 1014,3 hPa 0,0 mm 4,1 km/h (1 Bft) W-SW 243 0 min 0,000 mm 1,5 UV-I 58 W/m 15,6 C 9,7 km/h (2 Bft)
28.08.2016 17:15 26,9 C 26,9 C 48 % 1014,3 hPa 0,0 mm 6,1 km/h (2 Bft) W-SW 250 0 min 0,000 mm 1,4 UV-I 56 W/m 14,9 C 8,0 km/h (2 Bft)
28.08.2016 17:16 26,9 C 26,9 C 48 % 1014,3 hPa 0,0 mm 4,1 km/h (1 Bft) W 270 0 min 0,000 mm 1,4 UV-I 67 W/m 14,9 C 6,4 km/h (2 Bft)
28.08.2016 17:17 26,8 C 26,9 C 49 % 1014,3 hPa 0,0 mm 4,6 km/h (1 Bft) W 267 0 min 0,000 mm 1,4 UV-I 72 W/m 15,2 C 6,4 km/h (2 Bft)
28.08.2016 17:18 26,8 C 26,8 C 50 % 1014,3 hPa 0,0 mm 4,9 km/h (1 Bft) W 265 0 min 0,000 mm 1,4 UV-I 63 W/m 15,5 C 6,4 km/h (2 Bft)
28.08.2016 17:19 26,7 C 26,8 C 51 % 1014,3 hPa 0,0 mm 3,6 km/h (1 Bft) W 279 0 min 0,000 mm 1,4 UV-I 58 W/m 15,7 C 4,8 km/h (1 Bft)
28.08.2016 17:20 26,7 C 26,7 C 50 % 1014,3 hPa 0,0 mm 4,3 km/h (1 Bft) NW 308 0 min 0,000 mm 0,0 UV-I 58 W/m 15,4 C 4,8 km/h (1 Bft)
28.08.2016 17:21 26,7 C 26,7 C 48 % 1014,3 hPa 0,0 mm 2,5 km/h (1 Bft) NW 307 0 min 0,000 mm 0,0 UV-I 54 W/m 14,8 C 3,2 km/h (1 Bft)
28.08.2016 17:22 26,7 C 26,7 C 48 % 1014,4 hPa 0,0 mm 3,9 km/h (1 Bft) W 269 0 min 0,000 mm 1,4 UV-I 60 W/m 14,8 C 6,4 km/h (2 Bft)
28.08.2016 17:23 26,8 C 26,8 C 49 % 1014,4 hPa 0,0 mm 5,4 km/h (1 Bft) NW 319 0 min 0,000 mm 1,4 UV-I 63 W/m 15,2 C 9,7 km/h (2 Bft)
28.08.2016 17:24 26,8 C 26,8 C 49 % 1014,4 hPa 0,0 mm 3,7 km/h (1 Bft) NW 304 0 min 0,000 mm 1,4 UV-I 60 W/m 15,2 C 4,8 km/h (1 Bft)
28.08.2016 17:25 26,8 C 26,8 C 50 % 1014,4 hPa 0,0 mm 2,9 km/h (1 Bft) W-NW 284 0 min 0,000 mm 1,4 UV-I 58 W/m 15,5 C 4,8 km/h (1 Bft)
28.08.2016 17:26 26,9 C 26,9 C 51 % 1014,4 hPa 0,0 mm 3,1 km/h (1 Bft) W-NW 284 0 min 0,000 mm 1,3 UV-I 60 W/m 15,9 C 4,8 km/h (1 Bft)
28.08.2016 17:27 26,8 C 26,9 C 53 % 1014,4 hPa 0,0 mm 3,7 km/h (1 Bft) W-SW 246 0 min 0,000 mm 1,3 UV-I 67 W/m 16,4 C 6,4 km/h (2 Bft)
28.08.2016 17:28 26,8 C 26,8 C 56 % 1014,4 hPa 0,0 mm 4,6 km/h (1 Bft) W-SW 248 0 min 0,000 mm 1,3 UV-I 67 W/m 17,3 C 6,4 km/h (2 Bft)
28.08.2016 17:29 26,7 C 26,8 C 57 % 1014,4 hPa 0,0 mm 5,2 km/h (1 Bft) W-SW 244 0 min 0,000 mm 1,2 UV-I 60 W/m 17,5 C 9,7 km/h (2 Bft)
28.08.2016 17:30 26,6 C 26,7 C 55 % 1014,4 hPa 0,0 mm 5,8 km/h (2 Bft) W 279 0 min 0,000 mm 1,2 UV-I 60 W/m 16,8 C 9,7 km/h (2 Bft)
28.08.2016 17:31 26,6 C 26,6 C 52 % 1014,4 hPa 0,0 mm 2,5 km/h (1 Bft) W 268 0 min 0,000 mm 1,3 UV-I 56 W/m 15,9 C 4,8 km/h (1 Bft)
28.08.2016 17:32 26,6 C 26,6 C 53 % 1014,4 hPa 0,0 mm 4,3 km/h (1 Bft) W 269 0 min 0,000 mm 0,0 UV-I 54 W/m 16,2 C 4,8 km/h (1 Bft)
28.08.2016 17:33 26,6 C 26,6 C 55 % 1014,4 hPa 0,0 mm 3,8 km/h (1 Bft) SW 225 0 min 0,000 mm 0,0 UV-I 53 W/m 16,8 C 4,8 km/h (1 Bft)
28.08.2016 17:34 26,5 C 26,6 C 52 % 1014,4 hPa 0,0 mm 4,2 km/h (1 Bft) SW 232 0 min 0,000 mm 0,0 UV-I 51 W/m 15,8 C 6,4 km/h (2 Bft)
28.08.2016 17:35 26,4 C 26,5 C 58 % 1014,4 hPa 0,0 mm 1,0 km/h (0 Bft) SW 227 0 min 0,000 mm 0,0 UV-I 51 W/m 17,5 C 1,6 km/h (1 Bft)
28.08.2016 17:36 26,3 C 26,4 C 57 % 1014,3 hPa 0,0 mm 2,0 km/h (1 Bft) SW 233 0 min 0,000 mm 0,0 UV-I 51 W/m 17,1 C 3,2 km/h (1 Bft)
28.08.2016 17:37 26,3 C 26,3 C 55 % 1014,4 hPa 0,0 mm 3,0 km/h (1 Bft) W-SW 249 0 min 0,000 mm 0,0 UV-I 49 W/m 16,5 C 4,8 km/h (1 Bft)
28.08.2016 17:38 26,3 C 26,3 C 57 % 1014,3 hPa 0,0 mm 2,1 km/h (1 Bft) W-SW 249 0 min 0,000 mm 0,0 UV-I 49 W/m 17,1 C 3,2 km/h (1 Bft)
28.08.2016 17:39 26,2 C 26,3 C 53 % 1014,4 hPa 0,0 mm 2,3 km/h (1 Bft) W-SW 242 0 min 0,000 mm 0,0 UV-I 49 W/m 15,8 C 3,2 km/h (1 Bft)
28.08.2016 17:40 26,2 C 26,2 C 56 % 1014,3 hPa 0,0 mm 0,4 km/h (0 Bft) W-SW 242 0 min 0,000 mm 0,0 UV-I 49 W/m 16,7 C 1,6 km/h (1 Bft)
28.08.2016 17:41 26,2 C 26,2 C 57 % 1014,4 hPa 0,0 mm 2,3 km/h (1 Bft) W-SW 242 0 min 0,000 mm 0,0 UV-I 49 W/m 17,0 C 4,8 km/h (1 Bft)
28.08.2016 17:42 26,2 C 26,2 C 55 % 1014,4 hPa 0,0 mm 5,3 km/h (1 Bft) W-SW 251 0 min 0,000 mm 0,0 UV-I 49 W/m 16,4 C 6,4 km/h (2 Bft)
28.08.2016 17:43 26,1 C 26,2 C 60 % 1014,4 hPa 0,0 mm 0,9 km/h (0 Bft) W-SW 250 0 min 0,000 mm 0,0 UV-I 49 W/m 17,7 C 1,6 km/h (1 Bft)
28.08.2016 17:44 25,9 C 26,1 C 59 % 1014,4 hPa 0,0 mm 0,3 km/h (0 Bft) W-SW 250 0 min 0,000 mm 0,0 UV-I 49 W/m 17,3 C 1,6 km/h (1 Bft)
28.08.2016 17:45 25,9 C 25,9 C 57 % 1014,4 hPa 0,0 mm 1,0 km/h (0 Bft) W-SW 251 0 min 0,000 mm 0,0 UV-I 47 W/m 16,7 C 3,2 km/h (1 Bft)
28.08.2016 17:46 25,9 C 25,9 C 57 % 1014,4 hPa 0,0 mm 1,6 km/h (1 Bft) W-SW 251 0 min 0,000 mm 0,0 UV-I 47 W/m 16,7 C 1,6 km/h (1 Bft)
28.08.2016 17:47 25,9 C 25,9 C 57 % 1014,4 hPa 0,0 mm 1,6 km/h (1 Bft) W-SW 251 0 min 0,000 mm 0,0 UV-I 47 W/m 16,7 C 1,6 km/h (1 Bft)
28.08.2016 17:48 25,9 C 25,9 C 57 % 1014,4 hPa 0,0 mm 1,6 km/h (1 Bft) W-SW 251 0 min 0,000 mm 0,0 UV-I 47 W/m 16,7 C 1,6 km/h (1 Bft)
28.08.2016 17:49 25,9 C 25,9 C 57 % 1014,4 hPa 0,0 mm 1,6 km/h (1 Bft) W-SW 251 0 min 0,000 mm 0,0 UV-I 47 W/m 16,7 C 1,6 km/h (1 Bft)
28.08.2016 17:50 25,9 C 25,9 C 57 % 1014,4 hPa 0,0 mm 1,6 km/h (1 Bft) W-SW 251 0 min 0,000 mm 0,0 UV-I 47 W/m 16,7 C 1,6 km/h (1 Bft)
28.08.2016 17:51 25,9 C 25,9 C 57 % 1014,4 hPa 0,0 mm 1,6 km/h (1 Bft) W-SW 251 0 min 0,000 mm 0,0 UV-I 47 W/m 16,7 C 1,6 km/h (1 Bft)
28.08.2016 17:54 26,3 C 26,3 C 53 % 1014,3 hPa 0,0 mm 1,5 km/h (1 Bft) W 275 0 min 0,000 mm 0,0 UV-I 44 W/m 15,9 C 3,2 km/h (1 Bft)
28.08.2016 17:55 26,2 C 26,3 C 53 % 1014,3 hPa 0,0 mm 0,2 km/h (0 Bft) W 275 0 min 0,000 mm 0,0 UV-I 44 W/m 15,8 C 1,6 km/h (1 Bft)
28.08.2016 17:56 26,2 C 26,2 C 54 % 1014,2 hPa 0,0 mm 0,0 km/h (0 Bft) W 275 0 min 0,000 mm 0,0 UV-I 44 W/m 16,1 C 0,0 km/h (0 Bft)
28.08.2016 17:57 26,1 C 26,2 C 56 % 1014,3 hPa 0,0 mm 0,4 km/h (0 Bft) W 275 0 min 0,000 mm 0,0 UV-I 47 W/m 16,6 C 1,6 km/h (1 Bft)
28.08.2016 17:58 26,0 C 26,2 C 56 % 1014,2 hPa 0,0 mm 0,1 km/h (0 Bft) W 275 0 min 0,000 mm 0,0 UV-I 47 W/m 16,5 C 1,6 km/h (1 Bft)
28.08.2016 17:59 26,0 C 26,0 C 55 % 1014,2 hPa 0,0 mm 0,5 km/h (0 Bft) W 275 0 min 0,000 mm 0,0 UV-I 46 W/m 16,2 C 1,6 km/h (1 Bft)
28.08.2016 18:00 25,9 C 26,0 C 54 % 1014,3 hPa 0,0 mm 0,1 km/h (0 Bft) W 275 0 min 0,000 mm 0,0 UV-I 44 W/m 15,9 C 1,6 km/h (1 Bft)
28.08.2016 18:01 26,0 C 26,0 C 56 % 1014,3 hPa 0,0 mm 0,5 km/h (0 Bft) W 275 0 min 0,000 mm 0,0 UV-I 44 W/m 16,5 C 1,6 km/h (1 Bft)
28.08.2016 18:02 26,1 C 26,1 C 55 % 1014,2 hPa 0,0 mm 0,1 km/h (0 Bft) W 275 0 min 0,000 mm 0,0 UV-I 44 W/m 16,3 C 1,6 km/h (1 Bft)
28.08.2016 18:03 26,1 C 26,1 C 55 % 1014,3 hPa 0,0 mm 0,2 km/h (0 Bft) W 275 0 min 0,000 mm 0,0 UV-I 42 W/m 16,3 C 1,6 km/h (1 Bft)
28.08.2016 18:04 26,0 C 26,1 C 54 % 1014,2 hPa 0,0 mm 0,9 km/h (0 Bft) W 275 0 min 0,000 mm 0,0 UV-I 42 W/m 16,0 C 3,2 km/h (1 Bft)
28.08.2016 18:05 26,0 C 26,1 C 55 % 1014,2 hPa 0,0 mm 0,3 km/h (0 Bft) W 275 0 min 0,000 mm 0,0 UV-I 42 W/m 16,2 C 1,6 km/h (1 Bft)
28.08.2016 18:06 26,0 C 26,1 C 58 % 1014,3 hPa 0,0 mm 0,1 km/h (0 Bft) W 275 0 min 0,000 mm 0,0 UV-I 42 W/m 17,1 C 1,6 km/h (1 Bft)
28.08.2016 18:07 25,9 C 26,0 C 56 % 1014,2 hPa 0,0 mm 0,1 km/h (0 Bft) W 275 0 min 0,077 mm 0,0 UV-I 42 W/m 16,4 C 1,6 km/h (1 Bft)
28.08.2016 18:08 25,9 C 25,9 C 60 % 1014,2 hPa 0,0 mm 0,2 km/h (0 Bft) W 275 0 min 0,000 mm 0,0 UV-I 42 W/m 17,5 C 1,6 km/h (1 Bft)
28.08.2016 18:09 25,8 C 25,9 C 57 % 1014,2 hPa 0,0 mm 0,3 km/h (0 Bft) W 275 0 min 0,000 mm 0,0 UV-I 42 W/m 16,6 C 1,6 km/h (1 Bft)
28.08.2016 18:10 25,7 C 25,8 C 61 % 1014,2 hPa 0,0 mm 0,3 km/h (0 Bft) W 275 0 min 0,000 mm 0,0 UV-I 42 W/m 17,6 C 1,6 km/h (1 Bft)
28.08.2016 18:11 25,6 C 25,7 C 60 % 1014,2 hPa 0,0 mm 0,2 km/h (0 Bft) W 275 0 min 0,000 mm 0,0 UV-I 44 W/m 17,2 C 1,6 km/h (1 Bft)
28.08.2016 18:12 25,6 C 25,6 C 56 % 1014,2 hPa 0,0 mm 0,0 km/h (0 Bft) W 275 0 min 0,000 mm 0,0 UV-I 46 W/m 16,2 C 0,0 km/h (0 Bft)
28.08.2016 18:13 25,5 C 25,6 C 58 % 1014,2 hPa 0,0 mm 0,0 km/h (0 Bft) W 275 0 min 0,000 mm 0,0 UV-I 44 W/m 16,6 C 0,0 km/h (0 Bft)
28.08.2016 18:14 25,6 C 25,6 C 56 % 1014,2 hPa 0,0 mm 0,6 km/h (0 Bft) W 275 0 min 0,000 mm 0,0 UV-I 44 W/m 16,2 C 1,6 km/h (1 Bft)
28.08.2016 18:15 25,5 C 25,6 C 57 % 1014,2 hPa 0,0 mm 0,3 km/h (0 Bft) W 275 0 min 0,000 mm 0,0 UV-I 44 W/m 16,3 C 1,6 km/h (1 Bft)
28.08.2016 18:16 25,6 C 25,6 C 57 % 1014,2 hPa 0,0 mm 0,0 km/h (0 Bft) W 275 0 min 0,000 mm 0,0 UV-I 44 W/m 16,4 C 0,0 km/h (0 Bft)
28.08.2016 18:17 25,6 C 25,6 C 57 % 1014,2 hPa 0,0 mm 0,2 km/h (0 Bft) W 275 0 min 0,000 mm 0,0 UV-I 44 W/m 16,4 C 1,6 km/h (1 Bft)
28.08.2016 18:18 25,7 C 25,7 C 57 % 1014,2 hPa 0,0 mm 0,0 km/h (0 Bft) W 275 0 min 0,000 mm 0,0 UV-I 44 W/m 16,5 C 0,0 km/h (0 Bft)
28.08.2016 18:19 25,6 C 25,7 C 57 % 1014,1 hPa 0,0 mm 0,5 km/h (0 Bft) W 275 0 min 0,000 mm 0,0 UV-I 42 W/m 16,4 C 1,6 km/h (1 Bft)
28.08.2016 18:20 25,7 C 25,7 C 57 % 1014,2 hPa 0,0 mm 0,0 km/h (0 Bft) W 275 0 min 0,000 mm 0,0 UV-I 42 W/m 16,5 C 0,0 km/h (0 Bft)
28.08.2016 18:21 25,6 C 25,7 C 57 % 1014,1 hPa 0,0 mm 0,0 km/h (0 Bft) W 275 0 min 0,000 mm 0,0 UV-I 42 W/m 16,4 C 0,0 km/h (0 Bft)
28.08.2016 18:22 25,6 C 25,6 C 60 % 1014,1 hPa 0,0 mm 0,0 km/h (0 Bft) W 275 0 min 0,000 mm 0,0 UV-I 42 W/m 17,2 C 0,0 km/h (0 Bft)
28.08.2016 18:23 25,6 C 25,6 C 58 % 1014,1 hPa 0,0 mm 0,3 km/h (0 Bft) W 275 0 min 0,000 mm 0,0 UV-I 42 W/m 16,7 C 1,6 km/h (1 Bft)
28.08.2016 18:24 25,4 C 25,6 C 57 % 1014,1 hPa 0,0 mm 0,3 km/h (0 Bft) W 275 0 min 0,000 mm 0,0 UV-I 42 W/m 16,2 C 1,6 km/h (1 Bft)
28.08.2016 18:25 25,3 C 25,4 C 61 % 1014,1 hPa 0,0 mm 0,6 km/h (0 Bft) W 275 0 min 0,000 mm 0,0 UV-I 42 W/m 17,2 C 1,6 km/h (1 Bft)
28.08.2016 18:26 25,2 C 25,3 C 58 % 1014,1 hPa 0,0 mm 0,6 km/h (0 Bft) W 275 0 min 0,000 mm 0,0 UV-I 42 W/m 16,3 C 1,6 km/h (1 Bft)
28.08.2016 18:27 25,1 C 25,2 C 61 % 1014,0 hPa 0,0 mm 0,4 km/h (0 Bft) W 275 0 min 0,000 mm 0,0 UV-I 42 W/m 17,0 C 1,6 km/h (1 Bft)
28.08.2016 18:28 25,1 C 25,1 C 61 % 1014,0 hPa 0,0 mm 0,1 km/h (0 Bft) W 275 0 min 0,000 mm 0,0 UV-I 44 W/m 17,0 C 1,6 km/h (1 Bft)
28.08.2016 18:29 25,1 C 25,2 C 58 % 1014,0 hPa 0,0 mm 0,2 km/h (0 Bft) W 275 0 min 0,000 mm 0,0 UV-I 46 W/m 16,2 C 1,6 km/h (1 Bft)
28.08.2016 18:30 24,9 C 25,1 C 58 % 1014,0 hPa 0,0 mm 0,8 km/h (0 Bft) W 275 0 min 0,000 mm 0,0 UV-I 47 W/m 16,1 C 1,6 km/h (1 Bft)
28.08.2016 18:31 24,7 C 24,9 C 64 % 1014,0 hPa 0,0 mm 1,5 km/h (1 Bft) W 275 0 min 0,000 mm 0,0 UV-I 47 W/m 17,4 C 1,6 km/h (1 Bft)
28.08.2016 18:32 24,6 C 24,7 C 62 % 1014,0 hPa 0,0 mm 0,9 km/h (0 Bft) W 275 0 min 0,000 mm 0,0 UV-I 49 W/m 16,8 C 1,6 km/h (1 Bft)
28.08.2016 18:33 24,8 C 24,8 C 60 % 1014,0 hPa 0,0 mm 0,7 km/h (0 Bft) W 275 0 min 0,000 mm 0,0 UV-I 49 W/m 16,5 C 1,6 km/h (1 Bft)
28.08.2016 18:34 24,8 C 24,8 C 61 % 1014,0 hPa 0,0 mm 0,7 km/h (0 Bft) W 275 0 min 0,000 mm 0,0 UV-I 49 W/m 16,8 C 1,6 km/h (1 Bft)
28.08.2016 18:35 24,9 C 24,9 C 58 % 1014,0 hPa 0,0 mm 1,5 km/h (1 Bft) W 275 0 min 0,000 mm 0,0 UV-I 49 W/m 16,1 C 1,6 km/h (1 Bft)
28.08.2016 18:36 24,9 C 24,9 C 63 % 1013,9 hPa 0,0 mm 0,0 km/h (0 Bft) W 275 0 min 0,000 mm 0,0 UV-I 49 W/m 17,4 C 0,0 km/h (0 Bft)
28.08.2016 18:37 25,0 C 25,1 C 63 % 1014,0 hPa 0,0 mm 0,0 km/h (0 Bft) W 275 0 min 0,000 mm 0,0 UV-I 47 W/m 17,5 C 0,0 km/h (0 Bft)
28.08.2016 18:38 24,9 C 25,0 C 60 % 1013,9 hPa 0,0 mm 0,3 km/h (0 Bft) W 275 0 min 0,000 mm 0,0 UV-I 47 W/m 16,6 C 1,6 km/h (1 Bft)
28.08.2016 18:39 24,9 C 24,9 C 60 % 1013,9 hPa 0,0 mm 1,0 km/h (0 Bft) W 275 0 min 0,000 mm 0,0 UV-I 54 W/m 16,6 C 1,6 km/h (1 Bft)
28.08.2016 18:40 24,9 C 24,9 C 62 % 1013,9 hPa 0,0 mm 0,7 km/h (0 Bft) W 275 0 min 0,000 mm 0,6 UV-I 58 W/m 17,1 C 1,6 km/h (1 Bft)
28.08.2016 18:41 24,9 C 24,9 C 59 % 1013,9 hPa 0,0 mm 0,3 km/h (0 Bft) W 275 0 min 0,000 mm 0,6 UV-I 56 W/m 16,3 C 1,6 km/h (1 Bft)
28.08.2016 18:42 24,9 C 24,9 C 60 % 1013,9 hPa 0,0 mm 0,0 km/h (0 Bft) W 275 0 min 0,000 mm 0,6 UV-I 62 W/m 16,6 C 0,0 km/h (0 Bft)
28.08.2016 18:44 25,0 C 25,0 C 58 % 1013,9 hPa 0,0 mm 0,4 km/h (0 Bft) W 275 0 min 0,000 mm 0,6 UV-I 60 W/m 16,1 C 1,6 km/h (1 Bft)
28.08.2016 18:45 24,9 C 25,0 C 63 % 1013,9 hPa 0,0 mm 0,2 km/h (0 Bft) W 275 0 min 0,000 mm 0,6 UV-I 63 W/m 17,4 C 1,6 km/h (1 Bft)
28.08.2016 18:46 24,8 C 24,9 C 63 % 1013,9 hPa 0,0 mm 1,1 km/h (1 Bft) W 275 0 min 0,000 mm 0,6 UV-I 69 W/m 17,3 C 1,6 km/h (1 Bft)
28.08.2016 18:47 24,8 C 24,8 C 64 % 1013,9 hPa 0,0 mm 1,9 km/h (1 Bft) W 275 0 min 0,000 mm 0,6 UV-I 63 W/m 17,5 C 3,2 km/h (1 Bft)
28.08.2016 18:48 24,8 C 24,8 C 59 % 1013,9 hPa 0,0 mm 0,9 km/h (0 Bft) W 275 0 min 0,000 mm 0,0 UV-I 54 W/m 16,2 C 1,6 km/h (1 Bft)
28.08.2016 18:49 24,8 C 24,8 C 60 % 1013,8 hPa 0,0 mm 0,3 km/h (0 Bft) W 275 0 min 0,000 mm 0,0 UV-I 53 W/m 16,5 C 1,6 km/h (1 Bft)
28.08.2016 18:50 24,9 C 24,9 C 59 % 1013,8 hPa 0,0 mm 0,3 km/h (0 Bft) W 275 0 min 0,000 mm 0,0 UV-I 51 W/m 16,3 C 1,6 km/h (1 Bft)
28.08.2016 18:51 24,9 C 24,9 C 61 % 1013,8 hPa 0,0 mm 0,4 km/h (0 Bft) W 275 0 min 0,000 mm 0,0 UV-I 51 W/m 16,8 C 1,6 km/h (1 Bft)
28.08.2016 18:52 24,8 C 24,9 C 61 % 1013,8 hPa 0,0 mm 0,0 km/h (0 Bft) W 275 0 min 0,000 mm 0,0 UV-I 49 W/m 16,8 C 0,0 km/h (0 Bft)
28.08.2016 18:53 24,8 C 24,9 C 60 % 1013,9 hPa 0,0 mm 0,2 km/h (0 Bft) W 275 0 min 0,000 mm 0,0 UV-I 47 W/m 16,5 C 1,6 km/h (1 Bft)
28.08.2016 18:54 24,8 C 24,8 C 61 % 1013,8 hPa 0,0 mm 0,0 km/h (0 Bft) W 275 0 min 0,000 mm 0,0 UV-I 46 W/m 16,8 C 0,0 km/h (0 Bft)
28.08.2016 18:55 24,8 C 24,8 C 61 % 1013,8 hPa 0,0 mm 1,4 km/h (1 Bft) W 275 0 min 0,000 mm 0,0 UV-I 47 W/m 16,8 C 1,6 km/h (1 Bft)
28.08.2016 18:56 24,8 C 24,8 C 62 % 1013,8 hPa 0,0 mm 1,0 km/h (0 Bft) W 275 0 min 0,000 mm 0,0 UV-I 53 W/m 17,0 C 1,6 km/h (1 Bft)
28.08.2016 18:57 24,8 C 24,8 C 60 % 1013,7 hPa 0,0 mm 0,3 km/h (0 Bft) W 275 0 min 0,000 mm 0,0 UV-I 51 W/m 16,5 C 1,6 km/h (1 Bft)
28.08.2016 18:58 24,8 C 24,8 C 63 % 1013,8 hPa 0,0 mm 0,5 km/h (0 Bft) W 275 0 min 0,000 mm 0,0 UV-I 44 W/m 17,3 C 1,6 km/h (1 Bft)
28.08.2016 18:59 24,7 C 24,8 C 65 % 1013,7 hPa 0,0 mm 1,8 km/h (1 Bft) W 274 0 min 0,000 mm 0,0 UV-I 51 W/m 17,7 C 3,2 km/h (1 Bft)
28.08.2016 19:00 24,6 C 24,7 C 64 % 1013,8 hPa 0,0 mm 1,6 km/h (1 Bft) W 274 0 min 0,000 mm 0,0 UV-I 65 W/m 17,3 C 1,6 km/h (1 Bft)
28.08.2016 19:01 24,5 C 24,6 C 65 % 1013,7 hPa 0,0 mm 1,1 km/h (1 Bft) W 274 0 min 0,000 mm 0,0 UV-I 60 W/m 17,5 C 3,2 km/h (1 Bft)
28.08.2016 19:03 24,4 C 24,5 C 66 % 1013,7 hPa 0,0 mm 1,6 km/h (1 Bft) W 274 0 min 0,000 mm 0,0 UV-I 40 W/m 17,6 C 1,6 km/h (1 Bft)
28.08.2016 19:04 24,3 C 24,5 C 68 % 1013,6 hPa 0,0 mm 0,0 km/h (0 Bft) W 274 0 min 0,000 mm 0,0 UV-I 40 W/m 18,0 C 1,6 km/h (1 Bft)
28.08.2016 19:05 24,3 C 24,5 C 67 % 1013,7 hPa 0,0 mm 1,6 km/h (1 Bft) W 274 0 min 0,000 mm 0,0 UV-I 40 W/m 17,8 C 1,6 km/h (1 Bft)
28.08.2016 19:06 24,2 C 24,5 C 67 % 1013,6 hPa 0,0 mm 0,9 km/h (0 Bft) W 274 0 min 0,000 mm 0,0 UV-I 37 W/m 17,7 C 3,2 km/h (1 Bft)
28.08.2016 19:07 24,2 C 24,2 C 67 % 1013,7 hPa 0,0 mm 1,0 km/h (0 Bft) W 274 0 min 0,050 mm 0,0 UV-I 33 W/m 17,7 C 1,6 km/h (1 Bft)
28.08.2016 19:08 24,1 C 24,2 C 67 % 1013,7 hPa 0,0 mm 1,8 km/h (1 Bft) W 274 0 min 0,000 mm 0,0 UV-I 32 W/m 17,6 C 3,2 km/h (1 Bft)
28.08.2016 19:09 23,9 C 24,1 C 69 % 1013,7 hPa 0,0 mm 1,6 km/h (1 Bft) W 274 0 min 0,000 mm 0,0 UV-I 26 W/m 17,9 C 1,6 km/h (1 Bft)
28.08.2016 19:10 23,9 C 23,9 C 66 % 1013,7 hPa 0,0 mm 1,0 km/h (0 Bft) W 274 0 min 0,000 mm 0,0 UV-I 26 W/m 17,1 C 1,6 km/h (1 Bft)
28.08.2016 19:11 23,9 C 23,9 C 67 % 1013,7 hPa 0,0 mm 1,6 km/h (1 Bft) S 184 0 min 0,000 mm 0,0 UV-I 30 W/m 17,4 C 3,2 km/h (1 Bft)
28.08.2016 19:12 23,9 C 23,9 C 67 % 1013,7 hPa 0,0 mm 0,4 km/h (0 Bft) S 184 0 min 0,000 mm 0,0 UV-I 32 W/m 17,4 C 1,6 km/h (1 Bft)
28.08.2016 19:13 23,8 C 23,9 C 67 % 1013,7 hPa 0,0 mm 1,2 km/h (1 Bft) S 184 0 min 0,000 mm 0,0 UV-I 26 W/m 17,3 C 1,6 km/h (1 Bft)
28.08.2016 19:14 23,8 C 23,8 C 66 % 1013,7 hPa 0,0 mm 1,6 km/h (1 Bft) S 184 0 min 0,000 mm 0,0 UV-I 23 W/m 17,1 C 1,6 km/h (1 Bft)
28.08.2016 19:15 23,8 C 23,8 C 67 % 1013,7 hPa 0,0 mm 1,8 km/h (1 Bft) S 184 0 min 0,000 mm 0,0 UV-I 25 W/m 17,3 C 3,2 km/h (1 Bft)
28.08.2016 19:16 23,7 C 23,8 C 68 % 1013,7 hPa 0,0 mm 2,0 km/h (1 Bft) S 184 0 min 0,000 mm 0,0 UV-I 25 W/m 17,4 C 3,2 km/h (1 Bft)
28.08.2016 19:17 23,8 C 23,8 C 66 % 1013,7 hPa 0,0 mm 2,4 km/h (1 Bft) S 184 0 min 0,000 mm 0,0 UV-I 25 W/m 17,1 C 3,2 km/h (1 Bft)
28.08.2016 19:18 23,7 C 23,8 C 66 % 1013,7 hPa 0,0 mm 2,0 km/h (1 Bft) S 184 0 min 0,000 mm 0,0 UV-I 28 W/m 17,0 C 3,2 km/h (1 Bft)
28.08.2016 19:19 23,7 C 23,7 C 64 % 1013,7 hPa 0,0 mm 2,2 km/h (1 Bft) S 184 0 min 0,000 mm 0,0 UV-I 28 W/m 16,5 C 3,2 km/h (1 Bft)
28.08.2016 19:20 23,7 C 23,7 C 67 % 1013,8 hPa 0,0 mm 2,1 km/h (1 Bft) S 184 0 min 0,000 mm 0,0 UV-I 26 W/m 17,2 C 3,2 km/h (1 Bft)
28.08.2016 19:22 23,6 C 23,7 C 67 % 1013,8 hPa 0,0 mm 2,3 km/h (1 Bft) S 184 0 min 0,000 mm 0,0 UV-I 23 W/m 17,1 C 4,8 km/h (1 Bft)
28.08.2016 19:23 23,5 C 23,6 C 67 % 1013,8 hPa 0,0 mm 3,0 km/h (1 Bft) S 184 0 min 0,000 mm 0,0 UV-I 23 W/m 17,0 C 3,2 km/h (1 Bft)
28.08.2016 19:24 23,4 C 23,5 C 67 % 1013,8 hPa 0,0 mm 2,1 km/h (1 Bft) S 184 0 min 0,000 mm 0,0 UV-I 23 W/m 16,9 C 3,2 km/h (1 Bft)
28.08.2016 19:25 23,4 C 23,4 C 67 % 1013,8 hPa 0,0 mm 2,3 km/h (1 Bft) S 184 0 min 0,000 mm 0,0 UV-I 18 W/m 16,9 C 3,2 km/h (1 Bft)
28.08.2016 19:26 23,3 C 23,4 C 67 % 1013,8 hPa 0,0 mm 4,0 km/h (1 Bft) S 184 0 min 0,000 mm 0,0 UV-I 18 W/m 16,8 C 4,8 km/h (1 Bft)
28.08.2016 19:27 23,3 C 23,3 C 67 % 1013,8 hPa 0,0 mm 3,2 km/h (1 Bft) S 184 0 min 0,000 mm 0,0 UV-I 19 W/m 16,8 C 4,8 km/h (1 Bft)
28.08.2016 19:28 23,2 C 23,3 C 66 % 1013,8 hPa 0,0 mm 2,6 km/h (1 Bft) S 184 0 min 0,000 mm 0,0 UV-I 23 W/m 16,5 C 3,2 km/h (1 Bft)
28.08.2016 19:29 23,1 C 23,2 C 67 % 1013,8 hPa 0,0 mm 3,9 km/h (1 Bft) S 184 0 min 0,000 mm 0,0 UV-I 23 W/m 16,6 C 4,8 km/h (1 Bft)
28.08.2016 19:30 23,1 C 23,1 C 67 % 1013,9 hPa 0,0 mm 3,9 km/h (1 Bft) S 184 0 min 0,000 mm 0,0 UV-I 23 W/m 16,6 C 4,8 km/h (1 Bft)
28.08.2016 19:31 23,1 C 23,1 C 67 % 1013,9 hPa 0,0 mm 3,2 km/h (1 Bft) S 184 0 min 0,000 mm 0,0 UV-I 18 W/m 16,6 C 4,8 km/h (1 Bft)
28.08.2016 19:32 23,0 C 23,1 C 67 % 1013,9 hPa 0,0 mm 3,1 km/h (1 Bft) S 184 0 min 0,000 mm 0,0 UV-I 16 W/m 16,5 C 4,8 km/h (1 Bft)
28.08.2016 19:33 22,9 C 23,0 C 67 % 1013,9 hPa 0,0 mm 3,2 km/h (1 Bft) S 184 0 min 0,000 mm 0,0 UV-I 16 W/m 16,4 C 4,8 km/h (1 Bft)
28.08.2016 19:34 22,8 C 22,9 C 67 % 1013,9 hPa 0,0 mm 3,2 km/h (1 Bft) S 184 0 min 0,000 mm 0,0 UV-I 16 W/m 16,3 C 3,2 km/h (1 Bft)
28.08.2016 19:35 22,8 C 22,8 C 69 % 1013,9 hPa 0,0 mm 2,7 km/h (1 Bft) S 184 0 min 0,000 mm 0,0 UV-I 16 W/m 16,8 C 3,2 km/h (1 Bft)
28.08.2016 19:36 22,6 C 22,8 C 70 % 1013,9 hPa 0,0 mm 2,2 km/h (1 Bft) S 184 0 min 0,000 mm 0,0 UV-I 14 W/m 16,8 C 3,2 km/h (1 Bft)
28.08.2016 19:37 22,3 C 22,6 C 72 % 1014,0 hPa 0,0 mm 2,4 km/h (1 Bft) S 184 0 min 0,000 mm 0,0 UV-I 14 W/m 17,0 C 3,2 km/h (1 Bft)
28.08.2016 19:38 22,0 C 22,3 C 72 % 1013,9 hPa 0,0 mm 3,7 km/h (1 Bft) S 184 0 min 0,000 mm 0,0 UV-I 14 W/m 16,7 C 4,8 km/h (1 Bft)
28.08.2016 19:39 21,8 C 22,0 C 73 % 1014,0 hPa 0,0 mm 3,7 km/h (1 Bft) S 184 0 min 0,000 mm 0,0 UV-I 14 W/m 16,7 C 4,8 km/h (1 Bft)
28.08.2016 19:40 21,6 C 21,8 C 74 % 1014,0 hPa 0,0 mm 2,9 km/h (1 Bft) S 184 0 min 0,000 mm 0,0 UV-I 14 W/m 16,8 C 3,2 km/h (1 Bft)
28.08.2016 19:41 21,4 C 21,6 C 75 % 1013,9 hPa 0,0 mm 2,3 km/h (1 Bft) S 184 0 min 0,000 mm 0,0 UV-I 14 W/m 16,8 C 3,2 km/h (1 Bft)
28.08.2016 19:42 21,3 C 21,4 C 75 % 1014,0 hPa 0,0 mm 3,1 km/h (1 Bft) S 184 0 min 0,000 mm 0,0 UV-I 14 W/m 16,7 C 4,8 km/h (1 Bft)
28.08.2016 19:43 21,1 C 21,3 C 75 % 1013,9 hPa 0,0 mm 2,7 km/h (1 Bft) S 184 0 min 0,000 mm 0,0 UV-I 14 W/m 16,5 C 3,2 km/h (1 Bft)
28.08.2016 19:44 21,0 C 21,1 C 75 % 1014,0 hPa 0,0 mm 2,4 km/h (1 Bft) S 184 0 min 0,000 mm 0,0 UV-I 12 W/m 16,4 C 3,2 km/h (1 Bft)
28.08.2016 19:45 20,9 C 21,0 C 76 % 1014,0 hPa 0,0 mm 3,0 km/h (1 Bft) S 184 0 min 0,000 mm 0,0 UV-I 12 W/m 16,5 C 4,8 km/h (1 Bft)
28.08.2016 19:46 20,9 C 20,9 C 77 % 1014,0 hPa 0,0 mm 3,0 km/h (1 Bft) S 184 0 min 0,000 mm 0,0 UV-I 12 W/m 16,7 C 4,8 km/h (1 Bft)
28.08.2016 19:47 20,8 C 20,9 C 77 % 1014,0 hPa 0,0 mm 3,2 km/h (1 Bft) S 184 0 min 0,000 mm 0,0 UV-I 12 W/m 16,6 C 4,8 km/h (1 Bft)
28.08.2016 19:48 20,8 C 20,8 C 76 % 1014,0 hPa 0,0 mm 2,5 km/h (1 Bft) S 184 0 min 0,000 mm 0,0 UV-I 11 W/m 16,4 C 3,2 km/h (1 Bft)
28.08.2016 19:49 20,8 C 20,8 C 77 % 1014,0 hPa 0,0 mm 3,3 km/h (1 Bft) S 184 0 min 0,000 mm 0,0 UV-I 11 W/m 16,6 C 4,8 km/h (1 Bft)
28.08.2016 19:50 20,8 C 20,8 C 76 % 1014,1 hPa 0,0 mm 2,8 km/h (1 Bft) S 184 0 min 0,000 mm 0,0 UV-I 11 W/m 16,4 C 4,8 km/h (1 Bft)
28.08.2016 19:51 20,8 C 20,8 C 77 % 1014,0 hPa 0,0 mm 3,1 km/h (1 Bft) S 184 0 min 0,000 mm 0,0 UV-I 9 W/m 16,6 C 4,8 km/h (1 Bft)
28.08.2016 19:52 20,8 C 20,8 C 76 % 1014,0 hPa 0,0 mm 3,5 km/h (1 Bft) S 184 0 min 0,000 mm 0,0 UV-I 9 W/m 16,4 C 4,8 km/h (1 Bft)
28.08.2016 19:53 20,9 C 20,9 C 75 % 1014,0 hPa 0,0 mm 3,6 km/h (1 Bft) S 183 0 min 0,000 mm 0,0 UV-I 7 W/m 16,3 C 4,8 km/h (1 Bft)
28.08.2016 19:54 21,1 C 21,1 C 75 % 1014,0 hPa 0,0 mm 3,6 km/h (1 Bft) S 183 0 min 0,000 mm 0,0 UV-I 5 W/m 16,5 C 4,8 km/h (1 Bft)
28.08.2016 19:55 21,1 C 21,1 C 75 % 1014,0 hPa 0,0 mm 3,2 km/h (1 Bft) S 183 0 min 0,000 mm 0,0 UV-I 5 W/m 16,5 C 4,8 km/h (1 Bft)
28.08.2016 19:56 21,2 C 21,2 C 75 % 1014,0 hPa 0,0 mm 2,9 km/h (1 Bft) S 183 0 min 0,000 mm 0,0 UV-I 5 W/m 16,6 C 3,2 km/h (1 Bft)
28.08.2016 19:57 21,2 C 21,2 C 75 % 1014,1 hPa 0,0 mm 3,0 km/h (1 Bft) S 183 0 min 0,000 mm 0,0 UV-I 5 W/m 16,6 C 3,2 km/h (1 Bft)
28.08.2016 19:58 21,2 C 21,2 C 74 % 1014,0 hPa 0,0 mm 3,9 km/h (1 Bft) S 183 0 min 0,000 mm 0,0 UV-I 5 W/m 16,4 C 4,8 km/h (1 Bft)
28.08.2016 19:59 21,3 C 21,3 C 73 % 1014,0 hPa 0,0 mm 3,6 km/h (1 Bft) S 183 0 min 0,000 mm 0,0 UV-I 5 W/m 16,3 C 4,8 km/h (1 Bft)
28.08.2016 20:00 21,3 C 21,3 C 73 % 1014,1 hPa 0,0 mm 3,2 km/h (1 Bft) S 183 0 min 0,000 mm 0,0 UV-I 5 W/m 16,3 C 3,2 km/h (1 Bft)
28.08.2016 20:01 21,3 C 21,3 C 73 % 1014,1 hPa 0,0 mm 2,6 km/h (1 Bft) S 183 0 min 0,000 mm 0,0 UV-I 5 W/m 16,3 C 4,8 km/h (1 Bft)
28.08.2016 20:02 21,3 C 21,3 C 73 % 1014,2 hPa 0,0 mm 3,8 km/h (1 Bft) S 183 0 min 0,000 mm 0,0 UV-I 5 W/m 16,3 C 4,8 km/h (1 Bft)
28.08.2016 20:03 21,4 C 21,4 C 73 % 1014,2 hPa 0,0 mm 2,8 km/h (1 Bft) S 183 0 min 0,000 mm 0,0 UV-I 0 W/m 16,4 C 3,2 km/h (1 Bft)
28.08.2016 20:04 21,3 C 21,4 C 74 % 1014,2 hPa 0,0 mm 2,6 km/h (1 Bft) S 183 0 min 0,000 mm 0,0 UV-I 0 W/m 16,5 C 3,2 km/h (1 Bft)
28.08.2016 20:05 21,1 C 21,3 C 76 % 1014,2 hPa 0,0 mm 3,4 km/h (1 Bft) S 183 0 min 0,000 mm 0,0 UV-I 0 W/m 16,7 C 6,4 km/h (2 Bft)
28.08.2016 20:06 20,8 C 21,1 C 76 % 1014,2 hPa 0,0 mm 3,0 km/h (1 Bft) S 183 0 min 0,000 mm 0,0 UV-I 0 W/m 16,4 C 4,8 km/h (1 Bft)
28.08.2016 20:07 20,8 C 20,8 C 76 % 1014,2 hPa 0,0 mm 4,0 km/h (1 Bft) S 183 0 min 0,026 mm 0,0 UV-I 0 W/m 16,4 C 4,8 km/h (1 Bft)
28.08.2016 20:08 20,8 C 20,8 C 76 % 1014,3 hPa 0,0 mm 2,4 km/h (1 Bft) S 183 0 min 0,000 mm 0,0 UV-I 0 W/m 16,4 C 4,8 km/h (1 Bft)
28.08.2016 20:09 20,8 C 20,8 C 76 % 1014,3 hPa 0,0 mm 2,9 km/h (1 Bft) S 183 0 min 0,000 mm 0,0 UV-I 0 W/m 16,4 C 4,8 km/h (1 Bft)
28.08.2016 20:10 20,9 C 20,9 C 76 % 1014,3 hPa 0,0 mm 2,7 km/h (1 Bft) S 183 0 min 0,000 mm 0,0 UV-I 0 W/m 16,5 C 3,2 km/h (1 Bft)
28.08.2016 20:11 20,9 C 20,9 C 75 % 1014,3 hPa 0,0 mm 2,7 km/h (1 Bft) S 183 0 min 0,000 mm 0,0 UV-I 0 W/m 16,3 C 3,2 km/h (1 Bft)
28.08.2016 20:12 21,0 C 21,0 C 75 % 1014,3 hPa 0,0 mm 2,7 km/h (1 Bft) S 183 0 min 0,000 mm 0,0 UV-I 0 W/m 16,4 C 3,2 km/h (1 Bft)
28.08.2016 20:13 21,1 C 21,1 C 74 % 1014,3 hPa 0,0 mm 2,4 km/h (1 Bft) S 183 0 min 0,000 mm 0,0 UV-I 0 W/m 16,3 C 4,8 km/h (1 Bft)
28.08.2016 20:14 21,1 C 21,1 C 74 % 1014,3 hPa 0,0 mm 2,1 km/h (1 Bft) S 183 0 min 0,000 mm 0,0 UV-I 0 W/m 16,3 C 3,2 km/h (1 Bft)
28.08.2016 20:15 21,2 C 21,2 C 74 % 1014,4 hPa 0,0 mm 3,1 km/h (1 Bft) S 183 0 min 0,000 mm 0,0 UV-I 0 W/m 16,4 C 4,8 km/h (1 Bft)
28.08.2016 20:16 21,3 C 21,3 C 73 % 1014,4 hPa 0,0 mm 1,6 km/h (1 Bft) S 183 0 min 0,000 mm 0,0 UV-I 0 W/m 16,3 C 1,6 km/h (1 Bft)
28.08.2016 20:17 21,2 C 21,3 C 74 % 1014,4 hPa 0,0 mm 1,3 km/h (1 Bft) S 183 0 min 0,000 mm 0,0 UV-I 0 W/m 16,4 C 1,6 km/h (1 Bft)
28.08.2016 20:18 21,2 C 21,2 C 74 % 1014,4 hPa 0,0 mm 1,3 km/h (1 Bft) S 183 0 min 0,000 mm 0,0 UV-I 0 W/m 16,4 C 1,6 km/h (1 Bft)
28.08.2016 20:19 21,2 C 21,2 C 74 % 1014,4 hPa 0,0 mm 1,1 km/h (1 Bft) S 183 0 min 0,000 mm 0,0 UV-I 0 W/m 16,4 C 1,6 km/h (1 Bft)
28.08.2016 20:20 21,2 C 21,2 C 74 % 1014,4 hPa 0,0 mm 2,4 km/h (1 Bft) S 183 0 min 0,000 mm 0,0 UV-I 0 W/m 16,4 C 3,2 km/h (1 Bft)
28.08.2016 20:21 21,3 C 21,3 C 74 % 1014,4 hPa 0,0 mm 3,9 km/h (1 Bft) S 181 0 min 0,000 mm 0,0 UV-I 0 W/m 16,5 C 4,8 km/h (1 Bft)
28.08.2016 20:22 21,3 C 21,3 C 74 % 1014,4 hPa 0,0 mm 5,0 km/h (1 Bft) S-SO 166 0 min 0,000 mm 0,0 UV-I 0 W/m 16,5 C 6,4 km/h (2 Bft)
28.08.2016 20:23 21,3 C 21,3 C 74 % 1014,4 hPa 0,0 mm 4,1 km/h (1 Bft) S-SO 155 0 min 0,000 mm 0,0 UV-I 0 W/m 16,5 C 6,4 km/h (2 Bft)
28.08.2016 20:24 21,3 C 21,3 C 74 % 1014,5 hPa 0,0 mm 1,8 km/h (1 Bft) S-SO 155 0 min 0,000 mm 0,0 UV-I 0 W/m 16,5 C 3,2 km/h (1 Bft)
28.08.2016 20:25 21,3 C 21,3 C 75 % 1014,5 hPa 0,0 mm 1,0 km/h (0 Bft) S-SO 155 0 min 0,000 mm 0,0 UV-I 0 W/m 16,7 C 3,2 km/h (1 Bft)
28.08.2016 20:26 21,1 C 21,3 C 75 % 1014,5 hPa 0,0 mm 0,0 km/h (0 Bft) S-SO 155 0 min 0,000 mm 0,0 UV-I 0 W/m 16,5 C 0,0 km/h (0 Bft)
28.08.2016 20:27 21,0 C 21,1 C 76 % 1014,6 hPa 0,0 mm 0,0 km/h (0 Bft) S-SO 155 0 min 0,000 mm 0,0 UV-I 0 W/m 16,6 C 0,0 km/h (0 Bft)
28.08.2016 20:28 20,9 C 21,0 C 76 % 1014,6 hPa 0,0 mm 0,1 km/h (0 Bft) S-SO 155 0 min 0,000 mm 0,0 UV-I 0 W/m 16,5 C 1,6 km/h (1 Bft)
28.08.2016 20:29 20,8 C 20,9 C 76 % 1014,6 hPa 0,0 mm 0,4 km/h (0 Bft) S-SO 155 0 min 0,000 mm 0,0 UV-I 0 W/m 16,4 C 1,6 km/h (1 Bft)
28.08.2016 20:30 20,8 C 20,9 C 76 % 1014,6 hPa 0,0 mm 0,1 km/h (0 Bft) S-SO 155 0 min 0,000 mm 0,0 UV-I 0 W/m 16,4 C 1,6 km/h (1 Bft)
28.08.2016 20:31 20,8 C 20,8 C 76 % 1014,6 hPa 0,0 mm 0,8 km/h (0 Bft) S-SO 155 0 min 0,000 mm 0,0 UV-I 0 W/m 16,4 C 1,6 km/h (1 Bft)
28.08.2016 20:32 20,7 C 20,8 C 76 % 1014,6 hPa 0,0 mm 0,0 km/h (0 Bft) S-SO 155 0 min 0,000 mm 0,0 UV-I 0 W/m 16,3 C 0,0 km/h (0 Bft)
28.08.2016 20:33 20,7 C 20,7 C 76 % 1014,6 hPa 0,0 mm 0,0 km/h (0 Bft) S-SO 155 0 min 0,000 mm 0,0 UV-I 0 W/m 16,3 C 0,0 km/h (0 Bft)
28.08.2016 20:34 20,7 C 20,7 C 77 % 1014,7 hPa 0,0 mm 0,0 km/h (0 Bft) S-SO 155 0 min 0,000 mm 0,0 UV-I 0 W/m 16,5 C 0,0 km/h (0 Bft)
28.08.2016 20:35 20,8 C 20,8 C 76 % 1014,7 hPa 0,0 mm 0,5 km/h (0 Bft) S-SO 155 0 min 0,000 mm 0,0 UV-I 0 W/m 16,4 C 1,6 km/h (1 Bft)
28.08.2016 20:36 20,8 C 20,8 C 76 % 1014,6 hPa 0,0 mm 0,7 km/h (0 Bft) S-SO 155 0 min 0,000 mm 0,0 UV-I 0 W/m 16,4 C 1,6 km/h (1 Bft)
28.08.2016 20:37 20,8 C 20,8 C 76 % 1014,6 hPa 0,0 mm 1,1 km/h (1 Bft) S-SO 155 0 min 0,000 mm 0,0 UV-I 0 W/m 16,4 C 1,6 km/h (1 Bft)
28.08.2016 20:38 20,8 C 20,9 C 76 % 1014,6 hPa 0,0 mm 1,0 km/h (0 Bft) S-SO 155 0 min 0,000 mm 0,0 UV-I 0 W/m 16,4 C 3,2 km/h (1 Bft)
28.08.2016 20:39 20,8 C 20,8 C 76 % 1014,6 hPa 0,0 mm 0,2 km/h (0 Bft) S-SO 155 0 min 0,000 mm 0,0 UV-I 0 W/m 16,4 C 1,6 km/h (1 Bft)
28.08.2016 20:40 20,8 C 20,8 C 77 % 1014,6 hPa 0,0 mm 0,9 km/h (0 Bft) S-SO 155 0 min 0,000 mm 0,0 UV-I 0 W/m 16,6 C 1,6 km/h (1 Bft)
28.08.2016 20:41 20,8 C 20,8 C 76 % 1014,7 hPa 0,0 mm 1,4 km/h (1 Bft) S-SO 155 0 min 0,000 mm 0,0 UV-I 0 W/m 16,4 C 3,2 km/h (1 Bft)
28.08.2016 20:42 20,8 C 20,8 C 77 % 1014,7 hPa 0,0 mm 1,6 km/h (1 Bft) S-SO 155 0 min 0,000 mm 0,0 UV-I 0 W/m 16,6 C 3,2 km/h (1 Bft)
28.08.2016 20:43 20,8 C 20,8 C 76 % 1014,7 hPa 0,0 mm 0,7 km/h (0 Bft) S-SO 155 0 min 0,000 mm 0,0 UV-I 0 W/m 16,4 C 1,6 km/h (1 Bft)
28.08.2016 20:44 20,8 C 20,8 C 76 % 1014,6 hPa 0,0 mm 1,3 km/h (1 Bft) S-SO 155 0 min 0,000 mm 0,0 UV-I 0 W/m 16,4 C 3,2 km/h (1 Bft)
28.08.2016 20:45 20,7 C 20,8 C 76 % 1014,7 hPa 0,0 mm 0,4 km/h (0 Bft) S-SO 155 0 min 0,000 mm 0,0 UV-I 0 W/m 16,3 C 1,6 km/h (1 Bft)
28.08.2016 20:46 20,6 C 20,7 C 76 % 1014,7 hPa 0,0 mm 0,8 km/h (0 Bft) S-SO 155 0 min 0,000 mm 0,0 UV-I 0 W/m 16,2 C 1,6 km/h (1 Bft)
28.08.2016 20:47 20,4 C 20,6 C 76 % 1014,7 hPa 0,0 mm 1,5 km/h (1 Bft) S-SO 155 0 min 0,000 mm 0,0 UV-I 0 W/m 16,0 C 3,2 km/h (1 Bft)
28.08.2016 20:48 20,4 C 20,4 C 76 % 1014,7 hPa 0,0 mm 1,3 km/h (1 Bft) S-SO 155 0 min 0,000 mm 0,0 UV-I 0 W/m 16,0 C 1,6 km/h (1 Bft)
28.08.2016 20:49 20,4 C 20,4 C 76 % 1014,7 hPa 0,0 mm 2,3 km/h (1 Bft) S-SO 156 0 min 0,000 mm 0,0 UV-I 0 W/m 16,0 C 3,2 km/h (1 Bft)
28.08.2016 20:50 20,4 C 20,4 C 76 % 1014,7 hPa 0,0 mm 2,5 km/h (1 Bft) S-SO 156 0 min 0,000 mm 0,0 UV-I 0 W/m 16,0 C 3,2 km/h (1 Bft)
28.08.2016 20:51 20,3 C 20,4 C 77 % 1014,7 hPa 0,0 mm 1,7 km/h (1 Bft) S-SO 156 0 min 0,000 mm 0,0 UV-I 0 W/m 16,1 C 3,2 km/h (1 Bft)
28.08.2016 20:52 20,3 C 20,3 C 77 % 1014,8 hPa 0,0 mm 1,3 km/h (1 Bft) S 173 0 min 0,000 mm 0,0 UV-I 0 W/m 16,1 C 4,8 km/h (1 Bft)
28.08.2016 20:53 20,2 C 20,3 C 77 % 1014,8 hPa 0,0 mm 2,9 km/h (1 Bft) S 173 0 min 0,000 mm 0,0 UV-I 0 W/m 16,0 C 4,8 km/h (1 Bft)
28.08.2016 20:54 20,2 C 20,2 C 77 % 1014,7 hPa 0,0 mm 2,8 km/h (1 Bft) S 173 0 min 0,000 mm 0,0 UV-I 0 W/m 16,0 C 3,2 km/h (1 Bft)
28.08.2016 20:55 20,2 C 20,2 C 76 % 1014,8 hPa 0,0 mm 2,7 km/h (1 Bft) S 173 0 min 0,000 mm 0,0 UV-I 0 W/m 15,8 C 4,8 km/h (1 Bft)
28.08.2016 20:56 20,2 C 20,3 C 76 % 1014,8 hPa 0,0 mm 2,6 km/h (1 Bft) S 173 0 min 0,000 mm 0,0 UV-I 0 W/m 15,8 C 3,2 km/h (1 Bft)
28.08.2016 20:57 20,3 C 20,3 C 76 % 1014,8 hPa 0,0 mm 2,5 km/h (1 Bft) S 173 0 min 0,000 mm 0,0 UV-I 0 W/m 15,9 C 3,2 km/h (1 Bft)
28.08.2016 20:58 20,3 C 20,3 C 76 % 1014,8 hPa 0,0 mm 2,7 km/h (1 Bft) S 173 0 min 0,000 mm 0,0 UV-I 0 W/m 15,9 C 3,2 km/h (1 Bft)
28.08.2016 20:59 20,3 C 20,3 C 76 % 1014,8 hPa 0,0 mm 2,7 km/h (1 Bft) S 173 0 min 0,000 mm 0,0 UV-I 0 W/m 15,9 C 3,2 km/h (1 Bft)
28.08.2016 21:00 20,4 C 20,4 C 76 % 1014,8 hPa 0,0 mm 2,0 km/h (1 Bft) S 173 0 min 0,000 mm 0,0 UV-I 0 W/m 16,0 C 3,2 km/h (1 Bft)
28.08.2016 21:01 20,4 C 20,4 C 75 % 1014,8 hPa 0,0 mm 2,3 km/h (1 Bft) S 173 0 min 0,000 mm 0,0 UV-I 0 W/m 15,8 C 3,2 km/h (1 Bft)
28.08.2016 21:02 20,5 C 20,5 C 75 % 1014,9 hPa 0,0 mm 1,4 km/h (1 Bft) S 173 0 min 0,000 mm 0,0 UV-I 0 W/m 15,9 C 1,6 km/h (1 Bft)
28.08.2016 21:03 20,4 C 20,5 C 76 % 1014,9 hPa 0,0 mm 2,0 km/h (1 Bft) S 173 0 min 0,000 mm 0,0 UV-I 0 W/m 16,0 C 3,2 km/h (1 Bft)
28.08.2016 21:04 20,3 C 20,4 C 76 % 1014,9 hPa 0,0 mm 2,2 km/h (1 Bft) S 173 0 min 0,000 mm 0,0 UV-I 0 W/m 15,9 C 3,2 km/h (1 Bft)
28.08.2016 21:05 20,2 C 20,3 C 77 % 1014,9 hPa 0,0 mm 2,9 km/h (1 Bft) S 173 0 min 0,000 mm 0,0 UV-I 0 W/m 16,0 C 4,8 km/h (1 Bft)
28.08.2016 21:06 20,2 C 20,2 C 76 % 1014,9 hPa 0,0 mm 2,8 km/h (1 Bft) S 173 0 min 0,000 mm 0,0 UV-I 0 W/m 15,8 C 4,8 km/h (1 Bft)
28.08.2016 21:07 20,2 C 20,2 C 76 % 1014,9 hPa 0,0 mm 2,7 km/h (1 Bft) S 173 0 min 0,000 mm 0,0 UV-I 0 W/m 15,8 C 3,2 km/h (1 Bft)
28.08.2016 21:08 20,2 C 20,2 C 76 % 1014,9 hPa 0,0 mm 3,1 km/h (1 Bft) S 172 0 min 0,000 mm 0,0 UV-I 0 W/m 15,8 C 4,8 km/h (1 Bft)
28.08.2016 21:09 20,3 C 20,3 C 76 % 1014,9 hPa 0,0 mm 4,8 km/h (1 Bft) S-SO 148 0 min 0,000 mm 0,0 UV-I 0 W/m 15,9 C 6,4 km/h (2 Bft)
28.08.2016 21:10 20,3 C 20,3 C 77 % 1014,9 hPa 0,0 mm 3,7 km/h (1 Bft) S-SO 148 0 min 0,000 mm 0,0 UV-I 0 W/m 16,1 C 4,8 km/h (1 Bft)
28.08.2016 21:11 20,3 C 20,3 C 77 % 1014,9 hPa 0,0 mm 2,9 km/h (1 Bft) S-SO 148 0 min 0,000 mm 0,0 UV-I 0 W/m 16,1 C 4,8 km/h (1 Bft)
28.08.2016 21:12 20,4 C 20,4 C 76 % 1014,8 hPa 0,0 mm 2,7 km/h (1 Bft) S-SO 148 0 min 0,000 mm 0,0 UV-I 0 W/m 16,0 C 4,8 km/h (1 Bft)
28.08.2016 21:13 20,4 C 20,4 C 76 % 1014,9 hPa 0,0 mm 3,1 km/h (1 Bft) S-SO 148 0 min 0,000 mm 0,0 UV-I 0 W/m 16,0 C 4,8 km/h (1 Bft)
28.08.2016 21:14 20,5 C 20,5 C 76 % 1014,9 hPa 0,0 mm 2,1 km/h (1 Bft) S-SO 148 0 min 0,000 mm 0,0 UV-I 0 W/m 16,1 C 3,2 km/h (1 Bft)
28.08.2016 21:15 20,5 C 20,6 C 76 % 1014,9 hPa 0,0 mm 2,4 km/h (1 Bft) S-SO 148 0 min 0,000 mm 0,0 UV-I 0 W/m 16,1 C 3,2 km/h (1 Bft)
28.08.2016 21:16 20,4 C 20,5 C 77 % 1014,9 hPa 0,0 mm 1,9 km/h (1 Bft) S-SO 148 0 min 0,000 mm 0,0 UV-I 0 W/m 16,2 C 3,2 km/h (1 Bft)
28.08.2016 21:17 20,5 C 20,5 C 76 % 1014,9 hPa 0,0 mm 2,0 km/h (1 Bft) S-SO 148 0 min 0,000 mm 0,0 UV-I 0 W/m 16,1 C 3,2 km/h (1 Bft)
28.08.2016 21:18 20,5 C 20,6 C 76 % 1014,9 hPa 0,0 mm 2,8 km/h (1 Bft) S-SO 148 0 min 0,000 mm 0,0 UV-I 0 W/m 16,1 C 3,2 km/h (1 Bft)
28.08.2016 21:19 20,5 C 20,5 C 76 % 1014,9 hPa 0,0 mm 1,7 km/h (1 Bft) S-SO 148 0 min 0,000 mm 0,0 UV-I 0 W/m 16,1 C 3,2 km/h (1 Bft)
28.08.2016 21:20 20,6 C 20,6 C 76 % 1014,9 hPa 0,0 mm 2,4 km/h (1 Bft) S-SO 148 0 min 0,000 mm 0,0 UV-I 0 W/m 16,2 C 3,2 km/h (1 Bft)
28.08.2016 21:21 20,6 C 20,6 C 76 % 1014,9 hPa 0,0 mm 2,1 km/h (1 Bft) S-SO 148 0 min 0,000 mm 0,0 UV-I 0 W/m 16,2 C 3,2 km/h (1 Bft)
28.08.2016 21:22 20,6 C 20,6 C 76 % 1014,9 hPa 0,0 mm 2,5 km/h (1 Bft) S-SO 148 0 min 0,000 mm 0,0 UV-I 0 W/m 16,2 C 3,2 km/h (1 Bft)
28.08.2016 21:23 20,6 C 20,7 C 75 % 1014,9 hPa 0,0 mm 1,7 km/h (1 Bft) S-SO 148 0 min 0,000 mm 0,0 UV-I 0 W/m 16,0 C 3,2 km/h (1 Bft)
28.08.2016 21:24 20,7 C 20,7 C 75 % 1014,9 hPa 0,0 mm 2,1 km/h (1 Bft) S-SO 148 0 min 0,000 mm 0,0 UV-I 0 W/m 16,1 C 3,2 km/h (1 Bft)
28.08.2016 21:25 20,7 C 20,7 C 76 % 1015,0 hPa 0,0 mm 2,0 km/h (1 Bft) S-SO 148 0 min 0,000 mm 0,0 UV-I 0 W/m 16,3 C 3,2 km/h (1 Bft)
28.08.2016 21:26 20,7 C 20,7 C 75 % 1014,9 hPa 0,0 mm 2,5 km/h (1 Bft) S-SO 148 0 min 0,000 mm 0,0 UV-I 0 W/m 16,1 C 3,2 km/h (1 Bft)
28.08.2016 21:27 20,8 C 20,8 C 75 % 1014,9 hPa 0,0 mm 2,1 km/h (1 Bft) S-SO 148 0 min 0,000 mm 0,0 UV-I 0 W/m 16,2 C 3,2 km/h (1 Bft)
28.08.2016 21:28 20,8 C 20,8 C 74 % 1015,0 hPa 0,0 mm 2,2 km/h (1 Bft) S-SO 148 0 min 0,000 mm 0,0 UV-I 0 W/m 16,0 C 3,2 km/h (1 Bft)
28.08.2016 21:29 20,8 C 20,8 C 74 % 1015,0 hPa 0,0 mm 1,9 km/h (1 Bft) S-SO 148 0 min 0,000 mm 0,0 UV-I 0 W/m 16,0 C 3,2 km/h (1 Bft)
28.08.2016 21:30 20,8 C 20,8 C 75 % 1014,9 hPa 0,0 mm 1,7 km/h (1 Bft) S-SO 148 0 min 0,000 mm 0,0 UV-I 0 W/m 16,2 C 3,2 km/h (1 Bft)
28.08.2016 21:31 20,8 C 20,8 C 74 % 1015,0 hPa 0,0 mm 0,9 km/h (0 Bft) S-SO 148 0 min 0,000 mm 0,0 UV-I 0 W/m 16,0 C 3,2 km/h (1 Bft)
28.08.2016 21:32 20,8 C 20,8 C 75 % 1015,0 hPa 0,0 mm 1,9 km/h (1 Bft) S-SO 148 0 min 0,000 mm 0,0 UV-I 0 W/m 16,2 C 3,2 km/h (1 Bft)
28.08.2016 21:33 20,8 C 20,8 C 74 % 1015,0 hPa 0,0 mm 1,9 km/h (1 Bft) S-SO 148 0 min 0,000 mm 0,0 UV-I 0 W/m 16,0 C 3,2 km/h (1 Bft)
28.08.2016 21:34 20,8 C 20,8 C 74 % 1015,0 hPa 0,0 mm 2,0 km/h (1 Bft) S-SO 148 0 min 0,000 mm 0,0 UV-I 0 W/m 16,0 C 3,2 km/h (1 Bft)
28.08.2016 21:35 20,7 C 20,8 C 75 % 1015,0 hPa 0,0 mm 1,8 km/h (1 Bft) S-SO 148 0 min 0,000 mm 0,0 UV-I 0 W/m 16,1 C 3,2 km/h (1 Bft)
28.08.2016 21:36 20,6 C 20,7 C 75 % 1015,0 hPa 0,0 mm 2,0 km/h (1 Bft) S-SO 148 0 min 0,000 mm 0,0 UV-I 0 W/m 16,0 C 4,8 km/h (1 Bft)
28.08.2016 21:37 20,6 C 20,6 C 75 % 1015,0 hPa 0,0 mm 2,7 km/h (1 Bft) O-SO 123 0 min 0,000 mm 0,0 UV-I 0 W/m 16,0 C 4,8 km/h (1 Bft)
28.08.2016 21:38 20,6 C 20,6 C 75 % 1015,0 hPa 0,0 mm 3,7 km/h (1 Bft) S-SO 150 0 min 0,000 mm 0,0 UV-I 0 W/m 16,0 C 4,8 km/h (1 Bft)
28.08.2016 21:39 20,6 C 20,6 C 75 % 1015,1 hPa 0,0 mm 3,4 km/h (1 Bft) S 176 0 min 0,000 mm 0,0 UV-I 0 W/m 16,0 C 6,4 km/h (2 Bft)
28.08.2016 21:40 20,6 C 20,6 C 75 % 1015,0 hPa 0,0 mm 3,0 km/h (1 Bft) S 171 0 min 0,000 mm 0,0 UV-I 0 W/m 16,0 C 3,2 km/h (1 Bft)
28.08.2016 21:41 20,5 C 20,6 C 75 % 1015,1 hPa 0,0 mm 2,9 km/h (1 Bft) S 171 0 min 0,000 mm 0,0 UV-I 0 W/m 15,9 C 3,2 km/h (1 Bft)
28.08.2016 21:42 20,5 C 20,5 C 75 % 1015,0 hPa 0,0 mm 3,3 km/h (1 Bft) S-SO 165 0 min 0,000 mm 0,0 UV-I 0 W/m 15,9 C 6,4 km/h (2 Bft)
28.08.2016 21:43 20,6 C 20,6 C 75 % 1015,1 hPa 0,0 mm 3,1 km/h (1 Bft) S-SO 165 0 min 0,000 mm 0,0 UV-I 0 W/m 16,0 C 3,2 km/h (1 Bft)
28.08.2016 21:44 20,6 C 20,6 C 74 % 1015,1 hPa 0,0 mm 3,4 km/h (1 Bft) S-SO 162 0 min 0,000 mm 0,0 UV-I 0 W/m 15,8 C 6,4 km/h (2 Bft)
28.08.2016 21:45 20,7 C 20,7 C 75 % 1015,1 hPa 0,0 mm 3,8 km/h (1 Bft) S-SO 160 0 min 0,000 mm 0,0 UV-I 0 W/m 16,1 C 6,4 km/h (2 Bft)
28.08.2016 21:46 20,7 C 20,7 C 74 % 1015,1 hPa 0,0 mm 2,4 km/h (1 Bft) S-SO 159 0 min 0,000 mm 0,0 UV-I 0 W/m 15,9 C 6,4 km/h (2 Bft)
28.08.2016 21:47 20,7 C 20,7 C 74 % 1015,1 hPa 0,0 mm 0,8 km/h (0 Bft) S-SO 159 0 min 0,000 mm 0,0 UV-I 0 W/m 15,9 C 1,6 km/h (1 Bft)
28.08.2016 21:48 20,6 C 20,7 C 74 % 1015,2 hPa 0,0 mm 0,4 km/h (0 Bft) S-SO 160 0 min 0,000 mm 0,0 UV-I 0 W/m 15,8 C 1,6 km/h (1 Bft)
28.08.2016 21:49 20,5 C 20,6 C 75 % 1015,1 hPa 0,0 mm 4,1 km/h (1 Bft) S-SO 159 0 min 0,000 mm 0,0 UV-I 0 W/m 15,9 C 6,4 km/h (2 Bft)
28.08.2016 21:50 20,5 C 20,5 C 74 % 1015,2 hPa 0,0 mm 1,8 km/h (1 Bft) S-SO 159 0 min 0,000 mm 0,0 UV-I 0 W/m 15,7 C 3,2 km/h (1 Bft)
28.08.2016 21:51 20,4 C 20,5 C 75 % 1015,2 hPa 0,0 mm 0,8 km/h (0 Bft) S-SO 159 0 min 0,000 mm 0,0 UV-I 0 W/m 15,8 C 1,6 km/h (1 Bft)
28.08.2016 21:52 20,3 C 20,4 C 75 % 1015,2 hPa 0,0 mm 2,2 km/h (1 Bft) S-SO 159 0 min 0,000 mm 0,0 UV-I 0 W/m 15,7 C 3,2 km/h (1 Bft)
28.08.2016 21:53 20,2 C 20,3 C 75 % 1015,2 hPa 0,0 mm 1,8 km/h (1 Bft) S-SO 159 0 min 0,000 mm 0,0 UV-I 0 W/m 15,6 C 3,2 km/h (1 Bft)
28.08.2016 21:54 20,2 C 20,2 C 75 % 1015,2 hPa 0,0 mm 4,5 km/h (1 Bft) SO 141 0 min 0,000 mm 0,0 UV-I 0 W/m 15,6 C 6,4 km/h (2 Bft)
28.08.2016 21:55 20,3 C 20,3 C 75 % 1015,2 hPa 0,0 mm 4,3 km/h (1 Bft) SO 141 0 min 0,000 mm 0,0 UV-I 0 W/m 15,7 C 6,4 km/h (2 Bft)
28.08.2016 21:56 20,2 C 20,3 C 75 % 1015,2 hPa 0,0 mm 2,0 km/h (1 Bft) SO 141 0 min 0,000 mm 0,0 UV-I 0 W/m 15,6 C 3,2 km/h (1 Bft)
28.08.2016 21:57 20,2 C 20,3 C 75 % 1015,2 hPa 0,0 mm 2,2 km/h (1 Bft) SO 141 0 min 0,000 mm 0,0 UV-I 0 W/m 15,6 C 3,2 km/h (1 Bft)
28.08.2016 21:58 20,3 C 20,3 C 75 % 1015,2 hPa 0,0 mm 1,9 km/h (1 Bft) SO 141 0 min 0,000 mm 0,0 UV-I 0 W/m 15,7 C 3,2 km/h (1 Bft)
28.08.2016 21:59 20,3 C 20,3 C 74 % 1015,2 hPa 0,0 mm 1,5 km/h (1 Bft) SO 141 0 min 0,000 mm 0,0 UV-I 0 W/m 15,5 C 3,2 km/h (1 Bft)
28.08.2016 22:00 20,3 C 20,3 C 74 % 1015,2 hPa 0,0 mm 2,8 km/h (1 Bft) S-SO 165 0 min 0,000 mm 0,0 UV-I 0 W/m 15,5 C 3,2 km/h (1 Bft)
28.08.2016 22:01 20,2 C 20,3 C 75 % 1015,2 hPa 0,0 mm 2,9 km/h (1 Bft) S-SO 160 0 min 0,000 mm 0,0 UV-I 0 W/m 15,6 C 6,4 km/h (2 Bft)
28.08.2016 22:02 20,2 C 20,2 C 75 % 1015,2 hPa 0,0 mm 3,6 km/h (1 Bft) S-SO 159 0 min 0,000 mm 0,0 UV-I 0 W/m 15,6 C 6,4 km/h (2 Bft)
28.08.2016 22:03 20,2 C 20,2 C 75 % 1015,2 hPa 0,0 mm 3,0 km/h (1 Bft) S-SO 159 0 min 0,000 mm 0,0 UV-I 0 W/m 15,6 C 3,2 km/h (1 Bft)
28.08.2016 22:04 20,3 C 20,3 C 75 % 1015,3 hPa 0,0 mm 3,8 km/h (1 Bft) S-SO 151 0 min 0,000 mm 0,0 UV-I 0 W/m 15,7 C 4,8 km/h (1 Bft)
28.08.2016 22:05 20,3 C 20,3 C 75 % 1015,3 hPa 0,0 mm 3,0 km/h (1 Bft) S-SO 151 0 min 0,000 mm 0,0 UV-I 0 W/m 15,7 C 4,8 km/h (1 Bft)
28.08.2016 22:06 20,4 C 20,4 C 74 % 1015,3 hPa 0,0 mm 2,7 km/h (1 Bft) S-SO 151 0 min 0,000 mm 0,0 UV-I 0 W/m 15,6 C 3,2 km/h (1 Bft)
28.08.2016 22:07 20,4 C 20,4 C 74 % 1015,3 hPa 0,0 mm 2,6 km/h (1 Bft) S-SO 151 0 min 0,025 mm 0,0 UV-I 0 W/m 15,6 C 3,2 km/h (1 Bft)
28.08.2016 22:08 20,4 C 20,4 C 74 % 1015,3 hPa 0,0 mm 2,4 km/h (1 Bft) S-SO 151 0 min 0,000 mm 0,0 UV-I 0 W/m 15,6 C 3,2 km/h (1 Bft)
28.08.2016 22:09 20,4 C 20,4 C 74 % 1015,4 hPa 0,0 mm 3,2 km/h (1 Bft) S-SO 151 0 min 0,000 mm 0,0 UV-I 0 W/m 15,6 C 4,8 km/h (1 Bft)
28.08.2016 22:10 20,4 C 20,4 C 74 % 1015,4 hPa 0,0 mm 3,1 km/h (1 Bft) S-SO 151 0 min 0,000 mm 0,0 UV-I 0 W/m 15,6 C 4,8 km/h (1 Bft)
28.08.2016 22:11 20,4 C 20,4 C 74 % 1015,4 hPa 0,0 mm 2,0 km/h (1 Bft) S-SO 151 0 min 0,000 mm 0,0 UV-I 0 W/m 15,6 C 3,2 km/h (1 Bft)
28.08.2016 22:12 20,4 C 20,4 C 74 % 1015,4 hPa 0,0 mm 3,0 km/h (1 Bft) S-SO 151 0 min 0,000 mm 0,0 UV-I 0 W/m 15,6 C 4,8 km/h (1 Bft)
28.08.2016 22:13 20,4 C 20,4 C 74 % 1015,4 hPa 0,0 mm 2,0 km/h (1 Bft) S-SO 151 0 min 0,000 mm 0,0 UV-I 0 W/m 15,6 C 4,8 km/h (1 Bft)
28.08.2016 22:14 20,4 C 20,4 C 75 % 1015,5 hPa 0,0 mm 1,0 km/h (0 Bft) S-SO 151 0 min 0,000 mm 0,0 UV-I 0 W/m 15,8 C 1,6 km/h (1 Bft)
28.08.2016 22:15 20,3 C 20,4 C 75 % 1015,5 hPa 0,0 mm 0,8 km/h (0 Bft) S-SO 151 0 min 0,000 mm 0,0 UV-I 0 W/m 15,7 C 1,6 km/h (1 Bft)
28.08.2016 22:16 20,3 C 20,3 C 75 % 1015,5 hPa 0,0 mm 1,2 km/h (1 Bft) S-SO 151 0 min 0,000 mm 0,0 UV-I 0 W/m 15,7 C 1,6 km/h (1 Bft)
28.08.2016 22:17 20,2 C 20,3 C 76 % 1015,5 hPa 0,0 mm 0,7 km/h (0 Bft) S-SO 151 0 min 0,000 mm 0,0 UV-I 0 W/m 15,8 C 1,6 km/h (1 Bft)
28.08.2016 22:18 20,2 C 20,2 C 75 % 1015,5 hPa 0,0 mm 0,5 km/h (0 Bft) S-SO 151 0 min 0,000 mm 0,0 UV-I 0 W/m 15,6 C 1,6 km/h (1 Bft)
28.08.2016 22:19 20,2 C 20,2 C 75 % 1015,4 hPa 0,0 mm 1,7 km/h (1 Bft) S-SO 151 0 min 0,000 mm 0,0 UV-I 0 W/m 15,6 C 3,2 km/h (1 Bft)
28.08.2016 22:20 20,2 C 20,2 C 75 % 1015,4 hPa 0,0 mm 2,8 km/h (1 Bft) S-SO 151 0 min 0,000 mm 0,0 UV-I 0 W/m 15,6 C 4,8 km/h (1 Bft)
28.08.2016 22:21 20,3 C 20,3 C 75 % 1015,4 hPa 0,0 mm 2,5 km/h (1 Bft) S-SO 151 0 min 0,000 mm 0,0 UV-I 0 W/m 15,7 C 3,2 km/h (1 Bft)
28.08.2016 22:22 20,3 C 20,3 C 75 % 1015,4 hPa 0,0 mm 3,7 km/h (1 Bft) SO 142 0 min 0,000 mm 0,0 UV-I 0 W/m 15,7 C 6,4 km/h (2 Bft)
28.08.2016 22:23 20,4 C 20,4 C 75 % 1015,4 hPa 0,0 mm 3,4 km/h (1 Bft) SO 142 0 min 0,000 mm 0,0 UV-I 0 W/m 15,8 C 4,8 km/h (1 Bft)
28.08.2016 22:24 20,5 C 20,5 C 74 % 1015,4 hPa 0,0 mm 3,9 km/h (1 Bft) SO 142 0 min 0,000 mm 0,0 UV-I 0 W/m 15,7 C 4,8 km/h (1 Bft)
28.08.2016 22:25 20,5 C 20,5 C 74 % 1015,4 hPa 0,0 mm 1,6 km/h (1 Bft) SO 142 0 min 0,000 mm 0,0 UV-I 0 W/m 15,7 C 3,2 km/h (1 Bft)
28.08.2016 22:26 20,5 C 20,5 C 74 % 1015,4 hPa 0,0 mm 2,5 km/h (1 Bft) SO 143 0 min 0,000 mm 0,0 UV-I 0 W/m 15,7 C 3,2 km/h (1 Bft)
28.08.2016 22:27 20,5 C 20,5 C 74 % 1015,4 hPa 0,0 mm 2,6 km/h (1 Bft) SO 142 0 min 0,000 mm 0,0 UV-I 0 W/m 15,7 C 3,2 km/h (1 Bft)
28.08.2016 22:28 20,5 C 20,5 C 74 % 1015,4 hPa 0,0 mm 3,4 km/h (1 Bft) SO 143 0 min 0,000 mm 0,0 UV-I 0 W/m 15,7 C 4,8 km/h (1 Bft)
28.08.2016 22:29 20,6 C 20,6 C 74 % 1015,4 hPa 0,0 mm 3,2 km/h (1 Bft) SO 143 0 min 0,000 mm 0,0 UV-I 0 W/m 15,8 C 4,8 km/h (1 Bft)
28.08.2016 22:30 20,6 C 20,6 C 74 % 1015,4 hPa 0,0 mm 2,4 km/h (1 Bft) S-SO 162 0 min 0,000 mm 0,0 UV-I 0 W/m 15,8 C 3,2 km/h (1 Bft)
28.08.2016 22:31 20,4 C 20,6 C 74 % 1015,4 hPa 0,0 mm 2,9 km/h (1 Bft) S-SO 162 0 min 0,000 mm 0,0 UV-I 0 W/m 15,6 C 6,4 km/h (2 Bft)
28.08.2016 22:32 20,4 C 20,4 C 74 % 1015,4 hPa 0,0 mm 3,8 km/h (1 Bft) S-SO 162 0 min 0,000 mm 0,0 UV-I 0 W/m 15,6 C 6,4 km/h (2 Bft)
28.08.2016 22:33 20,4 C 20,4 C 74 % 1015,4 hPa 0,0 mm 4,3 km/h (1 Bft) S-SO 162 0 min 0,000 mm 0,0 UV-I 0 W/m 15,6 C 6,4 km/h (2 Bft)
28.08.2016 22:34 20,4 C 20,4 C 74 % 1015,4 hPa 0,0 mm 4,5 km/h (1 Bft) S-SO 162 0 min 0,000 mm 0,0 UV-I 0 W/m 15,6 C 6,4 km/h (2 Bft)
28.08.2016 22:35 20,4 C 20,4 C 73 % 1015,4 hPa 0,0 mm 6,4 km/h (2 Bft) S 179 0 min 0,000 mm 0,0 UV-I 0 W/m 15,4 C 11,3 km/h (2 Bft)
28.08.2016 22:36 20,5 C 20,5 C 73 % 1015,4 hPa 0,0 mm 4,7 km/h (1 Bft) S-SO 166 0 min 0,000 mm 0,0 UV-I 0 W/m 15,5 C 6,4 km/h (2 Bft)
28.08.2016 22:37 20,5 C 20,6 C 73 % 1015,4 hPa 0,0 mm 5,7 km/h (1 Bft) S-SO 158 0 min 0,000 mm 0,0 UV-I 0 W/m 15,5 C 9,7 km/h (2 Bft)
28.08.2016 22:38 20,6 C 20,6 C 72 % 1015,5 hPa 0,0 mm 6,4 km/h (2 Bft) S-SO 159 0 min 0,000 mm 0,0 UV-I 0 W/m 15,4 C 9,7 km/h (2 Bft)
28.08.2016 22:39 20,6 C 20,6 C 72 % 1015,4 hPa 0,0 mm 3,6 km/h (1 Bft) S 178 0 min 0,000 mm 0,0 UV-I 0 W/m 15,4 C 6,4 km/h (2 Bft)
28.08.2016 22:40 20,5 C 20,6 C 73 % 1015,4 hPa 0,0 mm 1,9 km/h (1 Bft) S 178 0 min 0,000 mm 0,0 UV-I 0 W/m 15,5 C 3,2 km/h (1 Bft)
28.08.2016 22:41 20,4 C 20,5 C 74 % 1015,4 hPa 0,0 mm 3,1 km/h (1 Bft) S 181 0 min 0,000 mm 0,0 UV-I 0 W/m 15,6 C 4,8 km/h (1 Bft)
28.08.2016 22:42 20,2 C 20,4 C 74 % 1015,4 hPa 0,0 mm 4,6 km/h (1 Bft) S 181 0 min 0,000 mm 0,0 UV-I 0 W/m 15,4 C 4,8 km/h (1 Bft)
28.08.2016 22:43 20,1 C 20,2 C 74 % 1015,4 hPa 0,0 mm 3,3 km/h (1 Bft) S 180 0 min 0,000 mm 0,0 UV-I 0 W/m 15,3 C 4,8 km/h (1 Bft)
28.08.2016 22:44 20,1 C 20,1 C 74 % 1015,4 hPa 0,0 mm 3,8 km/h (1 Bft) S 180 0 min 0,000 mm 0,0 UV-I 0 W/m 15,3 C 4,8 km/h (1 Bft)
28.08.2016 22:45 20,2 C 20,2 C 74 % 1015,4 hPa 0,0 mm 3,0 km/h (1 Bft) S 173 0 min 0,000 mm 0,0 UV-I 0 W/m 15,4 C 4,8 km/h (1 Bft)
28.08.2016 22:46 20,2 C 20,2 C 74 % 1015,4 hPa 0,0 mm 1,4 km/h (1 Bft) S 173 0 min 0,000 mm 0,0 UV-I 0 W/m 15,4 C 3,2 km/h (1 Bft)
28.08.2016 22:47 20,1 C 20,2 C 74 % 1015,4 hPa 0,0 mm 2,1 km/h (1 Bft) S 173 0 min 0,000 mm 0,0 UV-I 0 W/m 15,3 C 3,2 km/h (1 Bft)
28.08.2016 22:48 20,0 C 20,1 C 75 % 1015,4 hPa 0,0 mm 1,9 km/h (1 Bft) S 173 0 min 0,000 mm 0,0 UV-I 0 W/m 15,4 C 3,2 km/h (1 Bft)
28.08.2016 22:49 20,0 C 20,0 C 75 % 1015,4 hPa 0,0 mm 2,7 km/h (1 Bft) S 173 0 min 0,000 mm 0,0 UV-I 0 W/m 15,4 C 3,2 km/h (1 Bft)
28.08.2016 22:50 19,9 C 20,0 C 75 % 1015,4 hPa 0,0 mm 2,0 km/h (1 Bft) S 173 0 min 0,000 mm 0,0 UV-I 0 W/m 15,3 C 3,2 km/h (1 Bft)
28.08.2016 22:51 19,9 C 19,9 C 75 % 1015,4 hPa 0,0 mm 3,1 km/h (1 Bft) S 173 0 min 0,000 mm 0,0 UV-I 0 W/m 15,3 C 4,8 km/h (1 Bft)
28.08.2016 22:52 19,9 C 19,9 C 75 % 1015,4 hPa 0,0 mm 2,7 km/h (1 Bft) S 173 0 min 0,000 mm 0,0 UV-I 0 W/m 15,3 C 4,8 km/h (1 Bft)
28.08.2016 22:53 19,9 C 19,9 C 74 % 1015,4 hPa 0,0 mm 1,8 km/h (1 Bft) S 175 0 min 0,000 mm 0,0 UV-I 0 W/m 15,1 C 3,2 km/h (1 Bft)
28.08.2016 22:54 19,9 C 19,9 C 75 % 1015,4 hPa 0,0 mm 3,4 km/h (1 Bft) S-SW 193 0 min 0,000 mm 0,0 UV-I 0 W/m 15,3 C 6,4 km/h (2 Bft)
28.08.2016 22:55 19,8 C 19,9 C 75 % 1015,4 hPa 0,0 mm 2,7 km/h (1 Bft) S-SW 192 0 min 0,000 mm 0,0 UV-I 0 W/m 15,2 C 4,8 km/h (1 Bft)
28.08.2016 22:56 19,8 C 19,8 C 75 % 1015,4 hPa 0,0 mm 1,7 km/h (1 Bft) S-SW 192 0 min 0,000 mm 0,0 UV-I 0 W/m 15,2 C 3,2 km/h (1 Bft)
28.08.2016 22:57 19,7 C 19,8 C 75 % 1015,4 hPa 0,0 mm 1,6 km/h (1 Bft) S-SW 192 0 min 0,000 mm 0,0 UV-I 0 W/m 15,1 C 3,2 km/h (1 Bft)
28.08.2016 22:58 19,7 C 19,7 C 76 % 1015,4 hPa 0,0 mm 1,9 km/h (1 Bft) S-SW 192 0 min 0,000 mm 0,0 UV-I 0 W/m 15,3 C 3,2 km/h (1 Bft)
28.08.2016 22:59 19,6 C 19,7 C 77 % 1015,4 hPa 0,0 mm 2,4 km/h (1 Bft) S-SW 192 0 min 0,000 mm 0,0 UV-I 0 W/m 15,5 C 3,2 km/h (1 Bft)
28.08.2016 23:00 19,6 C 19,6 C 76 % 1015,4 hPa 0,0 mm 2,2 km/h (1 Bft) S-SW 192 0 min 0,000 mm 0,0 UV-I 0 W/m 15,2 C 3,2 km/h (1 Bft)
28.08.2016 23:01 19,6 C 19,6 C 76 % 1015,4 hPa 0,0 mm 2,4 km/h (1 Bft) S-SW 192 0 min 0,000 mm 0,0 UV-I 0 W/m 15,2 C 3,2 km/h (1 Bft)
28.08.2016 23:02 19,6 C 19,6 C 76 % 1015,4 hPa 0,0 mm 2,1 km/h (1 Bft) S-SW 192 0 min 0,000 mm 0,0 UV-I 0 W/m 15,2 C 3,2 km/h (1 Bft)
28.08.2016 23:03 19,7 C 19,7 C 76 % 1015,4 hPa 0,0 mm 2,7 km/h (1 Bft) S-SW 192 0 min 0,000 mm 0,0 UV-I 0 W/m 15,3 C 3,2 km/h (1 Bft)
28.08.2016 23:04 19,7 C 19,7 C 77 % 1015,3 hPa 0,0 mm 2,3 km/h (1 Bft) S-SW 192 0 min 0,000 mm 0,0 UV-I 0 W/m 15,5 C 3,2 km/h (1 Bft)
28.08.2016 23:05 19,7 C 19,7 C 76 % 1015,4 hPa 0,0 mm 2,6 km/h (1 Bft) S-SO 159 0 min 0,000 mm 0,0 UV-I 0 W/m 15,3 C 6,4 km/h (2 Bft)
28.08.2016 23:06 19,8 C 19,8 C 75 % 1015,4 hPa 0,0 mm 3,4 km/h (1 Bft) S-SO 159 0 min 0,000 mm 0,0 UV-I 0 W/m 15,2 C 6,4 km/h (2 Bft)
28.08.2016 23:07 19,8 C 19,8 C 76 % 1015,3 hPa 0,0 mm 1,3 km/h (1 Bft) S-SO 159 0 min 0,026 mm 0,0 UV-I 0 W/m 15,4 C 3,2 km/h (1 Bft)
28.08.2016 23:08 19,8 C 19,8 C 75 % 1015,4 hPa 0,0 mm 2,4 km/h (1 Bft) S-SO 157 0 min 0,000 mm 0,0 UV-I 0 W/m 15,2 C 4,8 km/h (1 Bft)
28.08.2016 23:09 19,8 C 19,8 C 76 % 1015,3 hPa 0,0 mm 3,3 km/h (1 Bft) S-SO 157 0 min 0,000 mm 0,0 UV-I 0 W/m 15,4 C 4,8 km/h (1 Bft)
28.08.2016 23:10 19,7 C 19,8 C 75 % 1015,3 hPa 0,0 mm 2,6 km/h (1 Bft) S-SO 157 0 min 0,000 mm 0,0 UV-I 0 W/m 15,1 C 4,8 km/h (1 Bft)
28.08.2016 23:11 19,7 C 19,8 C 76 % 1015,3 hPa 0,0 mm 2,7 km/h (1 Bft) S-SO 153 0 min 0,000 mm 0,0 UV-I 0 W/m 15,3 C 4,8 km/h (1 Bft)
28.08.2016 23:12 19,8 C 19,8 C 75 % 1015,4 hPa 0,0 mm 3,3 km/h (1 Bft) S-SO 153 0 min 0,000 mm 0,0 UV-I 0 W/m 15,2 C 4,8 km/h (1 Bft)
28.08.2016 23:13 19,7 C 19,8 C 75 % 1015,5 hPa 0,0 mm 2,1 km/h (1 Bft) S-SO 153 0 min 0,000 mm 0,0 UV-I 0 W/m 15,1 C 3,2 km/h (1 Bft)
28.08.2016 23:14 19,7 C 19,7 C 76 % 1015,4 hPa 0,0 mm 1,3 km/h (1 Bft) S-SO 153 0 min 0,000 mm 0,0 UV-I 0 W/m 15,3 C 1,6 km/h (1 Bft)
28.08.2016 23:15 19,6 C 19,7 C 76 % 1015,4 hPa 0,0 mm 2,7 km/h (1 Bft) S-SO 153 0 min 0,000 mm 0,0 UV-I 0 W/m 15,2 C 3,2 km/h (1 Bft)
28.08.2016 23:16 19,6 C 19,6 C 76 % 1015,5 hPa 0,0 mm 1,3 km/h (1 Bft) S-SO 153 0 min 0,000 mm 0,0 UV-I 0 W/m 15,2 C 3,2 km/h (1 Bft)
28.08.2016 23:17 19,6 C 19,7 C 76 % 1015,4 hPa 0,0 mm 1,0 km/h (0 Bft) S-SO 153 0 min 0,000 mm 0,0 UV-I 0 W/m 15,2 C 3,2 km/h (1 Bft)
28.08.2016 23:18 19,5 C 19,6 C 76 % 1015,4 hPa 0,0 mm 1,3 km/h (1 Bft) S-SO 153 0 min 0,000 mm 0,0 UV-I 0 W/m 15,2 C 3,2 km/h (1 Bft)
28.08.2016 23:19 19,4 C 19,5 C 77 % 1015,5 hPa 0,0 mm 1,2 km/h (1 Bft) S-SO 153 0 min 0,000 mm 0,0 UV-I 0 W/m 15,3 C 3,2 km/h (1 Bft)
28.08.2016 23:20 19,3 C 19,4 C 77 % 1015,5 hPa 0,0 mm 2,2 km/h (1 Bft) S-SO 153 0 min 0,000 mm 0,0 UV-I 0 W/m 15,2 C 3,2 km/h (1 Bft)
28.08.2016 23:21 19,3 C 19,3 C 77 % 1015,5 hPa 0,0 mm 1,1 km/h (1 Bft) S-SO 153 0 min 0,000 mm 0,0 UV-I 0 W/m 15,2 C 1,6 km/h (1 Bft)
28.08.2016 23:22 19,2 C 19,3 C 77 % 1015,4 hPa 0,0 mm 0,0 km/h (0 Bft) S-SO 153 0 min 0,000 mm 0,0 UV-I 0 W/m 15,1 C 0,0 km/h (0 Bft)
28.08.2016 23:23 19,1 C 19,2 C 77 % 1015,4 hPa 0,0 mm 0,2 km/h (0 Bft) S-SO 153 0 min 0,000 mm 0,0 UV-I 0 W/m 15,0 C 1,6 km/h (1 Bft)
28.08.2016 23:24 19,0 C 19,1 C 78 % 1015,5 hPa 0,0 mm 0,0 km/h (0 Bft) S-SO 153 0 min 0,000 mm 0,0 UV-I 0 W/m 15,1 C 0,0 km/h (0 Bft)
28.08.2016 23:25 18,9 C 19,0 C 78 % 1015,4 hPa 0,0 mm 0,0 km/h (0 Bft) S-SO 153 0 min 0,000 mm 0,0 UV-I 0 W/m 15,0 C 0,0 km/h (0 Bft)
28.08.2016 23:26 18,8 C 18,9 C 79 % 1015,4 hPa 0,0 mm 0,6 km/h (0 Bft) S-SO 153 0 min 0,000 mm 0,0 UV-I 0 W/m 15,1 C 1,6 km/h (1 Bft)
28.08.2016 23:27 18,7 C 18,8 C 79 % 1015,5 hPa 0,0 mm 0,7 km/h (0 Bft) S-SO 153 0 min 0,000 mm 0,0 UV-I 0 W/m 15,0 C 3,2 km/h (1 Bft)
28.08.2016 23:28 18,7 C 18,7 C 79 % 1015,4 hPa 0,0 mm 1,5 km/h (1 Bft) S-SO 153 0 min 0,000 mm 0,0 UV-I 0 W/m 15,0 C 3,2 km/h (1 Bft)
28.08.2016 23:29 18,6 C 18,7 C 79 % 1015,4 hPa 0,0 mm 1,4 km/h (1 Bft) S-SO 153 0 min 0,000 mm 0,0 UV-I 0 W/m 14,9 C 3,2 km/h (1 Bft)
28.08.2016 23:30 18,7 C 18,7 C 80 % 1015,5 hPa 0,0 mm 2,2 km/h (1 Bft) S-SO 153 0 min 0,000 mm 0,0 UV-I 0 W/m 15,2 C 3,2 km/h (1 Bft)
28.08.2016 23:31 18,8 C 18,8 C 79 % 1015,5 hPa 0,0 mm 2,1 km/h (1 Bft) S-SO 153 0 min 0,000 mm 0,0 UV-I 0 W/m 15,1 C 3,2 km/h (1 Bft)
28.08.2016 23:32 18,8 C 18,8 C 78 % 1015,5 hPa 0,0 mm 1,0 km/h (0 Bft) S-SO 153 0 min 0,000 mm 0,0 UV-I 0 W/m 14,9 C 1,6 km/h (1 Bft)
28.08.2016 23:33 18,9 C 18,9 C 78 % 1015,4 hPa 0,0 mm 0,6 km/h (0 Bft) S-SO 153 0 min 0,000 mm 0,0 UV-I 0 W/m 15,0 C 1,6 km/h (1 Bft)
28.08.2016 23:34 18,9 C 18,9 C 78 % 1015,4 hPa 0,0 mm 0,1 km/h (0 Bft) S-SO 153 0 min 0,000 mm 0,0 UV-I 0 W/m 15,0 C 1,6 km/h (1 Bft)
28.08.2016 23:35 18,9 C 18,9 C 79 % 1015,5 hPa 0,0 mm 0,0 km/h (0 Bft) S-SO 153 0 min 0,000 mm 0,0 UV-I 0 W/m 15,2 C 0,0 km/h (0 Bft)
28.08.2016 23:36 18,8 C 18,9 C 78 % 1015,4 hPa 0,0 mm 0,0 km/h (0 Bft) S-SO 153 0 min 0,000 mm 0,0 UV-I 0 W/m 14,9 C 0,0 km/h (0 Bft)
28.08.2016 23:37 18,6 C 18,8 C 79 % 1015,4 hPa 0,0 mm 0,0 km/h (0 Bft) S-SO 153 0 min 0,000 mm 0,0 UV-I 0 W/m 14,9 C 0,0 km/h (0 Bft)
28.08.2016 23:38 18,6 C 18,6 C 79 % 1015,4 hPa 0,0 mm 0,0 km/h (0 Bft) S-SO 153 0 min 0,000 mm 0,0 UV-I 0 W/m 14,9 C 0,0 km/h (0 Bft)
28.08.2016 23:39 18,4 C 18,6 C 79 % 1015,4 hPa 0,0 mm 0,0 km/h (0 Bft) S-SO 153 0 min 0,000 mm 0,0 UV-I 0 W/m 14,7 C 0,0 km/h (0 Bft)
28.08.2016 23:40 18,3 C 18,4 C 80 % 1015,5 hPa 0,0 mm 0,0 km/h (0 Bft) S-SO 153 0 min 0,000 mm 0,0 UV-I 0 W/m 14,8 C 0,0 km/h (0 Bft)
28.08.2016 23:41 18,3 C 18,3 C 80 % 1015,4 hPa 0,0 mm 0,0 km/h (0 Bft) S-SO 153 0 min 0,000 mm 0,0 UV-I 0 W/m 14,8 C 0,0 km/h (0 Bft)
28.08.2016 23:42 18,2 C 18,3 C 80 % 1015,4 hPa 0,0 mm 0,0 km/h (0 Bft) S-SO 153 0 min 0,000 mm 0,0 UV-I 0 W/m 14,7 C 0,0 km/h (0 Bft)
28.08.2016 23:43 18,2 C 18,2 C 81 % 1015,5 hPa 0,0 mm 0,0 km/h (0 Bft) S-SO 153 0 min 0,000 mm 0,0 UV-I 0 W/m 14,9 C 0,0 km/h (0 Bft)
28.08.2016 23:44 18,1 C 18,2 C 82 % 1015,4 hPa 0,0 mm 0,0 km/h (0 Bft) S-SO 153 0 min 0,000 mm 0,0 UV-I 0 W/m 15,0 C 0,0 km/h (0 Bft)
28.08.2016 23:45 18,1 C 18,1 C 82 % 1015,5 hPa 0,0 mm 0,0 km/h (0 Bft) S-SO 153 0 min 0,000 mm 0,0 UV-I 0 W/m 15,0 C 0,0 km/h (0 Bft)
28.08.2016 23:46 18,1 C 18,1 C 81 % 1015,4 hPa 0,0 mm 0,0 km/h (0 Bft) S-SO 153 0 min 0,000 mm 0,0 UV-I 0 W/m 14,8 C 0,0 km/h (0 Bft)
28.08.2016 23:47 18,0 C 18,1 C 81 % 1015,5 hPa 0,0 mm 0,0 km/h (0 Bft) S-SO 153 0 min 0,000 mm 0,0 UV-I 0 W/m 14,7 C 0,0 km/h (0 Bft)
28.08.2016 23:48 17,9 C 18,0 C 82 % 1015,4 hPa 0,0 mm 0,0 km/h (0 Bft) S-SO 153 0 min 0,000 mm 0,0 UV-I 0 W/m 14,8 C 0,0 km/h (0 Bft)
28.08.2016 23:49 17,9 C 17,9 C 82 % 1015,5 hPa 0,0 mm 0,0 km/h (0 Bft) S-SO 153 0 min 0,000 mm 0,0 UV-I 0 W/m 14,8 C 0,0 km/h (0 Bft)
28.08.2016 23:50 17,8 C 17,9 C 82 % 1015,4 hPa 0,0 mm 0,0 km/h (0 Bft) S-SO 153 0 min 0,000 mm 0,0 UV-I 0 W/m 14,7 C 0,0 km/h (0 Bft)
28.08.2016 23:51 17,8 C 17,8 C 82 % 1015,4 hPa 0,0 mm 0,0 km/h (0 Bft) S-SO 153 0 min 0,000 mm 0,0 UV-I 0 W/m 14,7 C 0,0 km/h (0 Bft)
28.08.2016 23:52 17,9 C 17,9 C 82 % 1015,5 hPa 0,0 mm 0,0 km/h (0 Bft) S-SO 153 0 min 0,000 mm 0,0 UV-I 0 W/m 14,8 C 0,0 km/h (0 Bft)
28.08.2016 23:53 17,9 C 17,9 C 82 % 1015,4 hPa 0,0 mm 0,0 km/h (0 Bft) S-SO 153 0 min 0,000 mm 0,0 UV-I 0 W/m 14,8 C 0,0 km/h (0 Bft)
28.08.2016 23:54 18,1 C 18,1 C 81 % 1015,4 hPa 0,0 mm 0,0 km/h (0 Bft) S-SO 153 0 min 0,000 mm 0,0 UV-I 0 W/m 14,8 C 0,0 km/h (0 Bft)
28.08.2016 23:55 18,1 C 18,1 C 81 % 1015,4 hPa 0,0 mm 0,6 km/h (0 Bft) S-SO 153 0 min 0,000 mm 0,0 UV-I 0 W/m 14,8 C 3,2 km/h (1 Bft)
28.08.2016 23:56 18,1 C 18,1 C 81 % 1015,4 hPa 0,0 mm 2,2 km/h (1 Bft) S-SO 153 0 min 0,000 mm 0,0 UV-I 0 W/m 14,8 C 3,2 km/h (1 Bft)
28.08.2016 23:57 18,1 C 18,1 C 81 % 1015,4 hPa 0,0 mm 0,5 km/h (0 Bft) S-SO 153 0 min 0,000 mm 0,0 UV-I 0 W/m 14,8 C 1,6 km/h (1 Bft)
28.08.2016 23:58 18,1 C 18,1 C 80 % 1015,4 hPa 0,0 mm 0,7 km/h (0 Bft) S-SO 153 0 min 0,000 mm 0,0 UV-I 0 W/m 14,6 C 1,6 km/h (1 Bft)
28.08.2016 23:59 18,1 C 18,1 C 81 % 1015,4 hPa 0,0 mm 1,1 km/h (1 Bft) S-SO 153 0 min 0,000 mm 0,0 UV-I 0 W/m 14,8 C 1,6 km/h (1 Bft)
_ Min-Zeit 05:42 05:42 17:22 19:06 - 23:54 - - - - - - 23:58 23:54
Minimum _ 15,8 C 15,8 C 48 % 1013,6 hPa - 0,0 km/h (0 Bft) - - - - - - 14,6 C 0,0 km/h (0 Bft)
_ Max-Zeit 15:45 15:48 06:45 11:44 23:59 12:54 - - 15:03 15:00 13:39 11:51 10:14 12:54
Maximum _ 27,7 C 27,7 C 95 % 1016,7 hPa 0,0 mm 15,2 km/h
W-NW (3 Bft)
- - 2 min 0,508 mm 5,8 UV-I 928 W/m 20,4 C 19,3 km/h
W (3 Bft)
Durchschnitt _ 21,5 C 21,5 C 75 % 1015,3 hPa #0,0 mm 2,4 km/h (1 Bft) S - #6:33 h #3,277 mm 3,4 UV-I 190 W/m 16,5 C 3,9 km/h (1 Bft)